GFSSE_925_thetae_000.txt.gz
Theta_e
355 357 351 352 352 351 351 351 351 350 346 344 343 344 345 346 346 352 351 351 353 353 354 354 351 346 348 346 345 344 343 343 346 343 342 345 346 343 345 346 345 348 348
358 359 352 350 351 352 351 351 351 350 348 345 343 344 344 348 346 351 352 352 353 355 355 353 352 352 351 351 349 345 345 350 350 350 353 351 350 345 347 348 345 347 348
359 360 357 351 351 350 350 350 350 350 350 346 344 344 345 346 346 352 352 352 350 353 348 348 345 351 350 351 352 346 348 350 348 346 349 349 348 348 349 344 340 347 348
361 361 361 352 351 349 350 350 350 350 350 347 345 345 346 345 343 348 354 352 352 353 349 346 347 350 349 351 351 348 346 347 348 344 349 347 347 348 352 349 346 348 347
361 361 360 353 351 350 351 351 351 351 350 348 346 346 346 346 346 352 349 350 354 351 348 347 351 351 349 350 351 347 344 346 344 347 347 348 346 351 347 344 349 344 347
356 359 357 351 352 351 351 351 351 352 350 349 347 347 347 347 349 351 346 351 349 351 349 347 347 352 352 351 350 348 342 345 345 350 349 347 347 346 342 349 349 349 343
359 361 356 343 353 351 352 351 351 351 351 350 349 349 348 348 349 348 353 349 350 350 350 352 347 353 352 352 348 347 341 341 350 348 348 348 345 340 350 349 348 348 340
360 362 359 351 353 355 353 352 352 351 352 351 350 350 350 347 345 351 346 348 346 347 350 348 348 351 351 351 350 345 341 342 349 350 350 350 342 343 351 348 347 347 339
360 362 358 358 356 355 355 352 352 352 351 350 350 351 349 344 345 347 345 345 346 347 345 347 349 350 349 351 349 344 339 338 350 350 350 349 341 347 350 347 345 346 345
359 362 359 358 357 357 355 349 345 346 348 348 349 346 343 344 348 348 346 347 344 345 344 345 347 350 348 349 347 343 340 341 346 350 351 348 344 347 350 347 347 344 345
360 361 359 358 356 356 356 350 345 344 341 340 350 349 344 349 347 351 348 352 346 344 345 345 346 347 349 348 349 343 339 339 346 349 350 346 341 343 349 346 344 343 343
357 358 357 358 356 354 355 352 351 349 344 344 350 349 349 350 351 352 353 351 349 344 345 345 346 347 346 350 348 349 342 344 348 347 347 342 336 342 346 347 344 345 344
357 357 356 356 354 355 352 350 352 351 348 343 343 346 346 353 351 350 349 350 346 346 347 346 347 347 349 349 350 347 346 348 348 348 348 344 339 338 345 346 345 344 344
355 354 356 356 354 352 351 348 349 351 351 345 343 341 346 348 341 349 351 349 350 352 350 351 352 351 350 349 349 348 348 348 348 349 349 345 339 335 344 346 346 343 345
350 352 352 355 355 353 349 337 344 349 351 351 347 346 342 338 342 347 347 347 351 348 350 347 349 349 349 348 348 348 350 350 347 349 347 346 337 335 341 345 346 345 343
349 351 354 355 356 355 353 351 350 350 348 347 349 347 344 342 347 349 348 343 347 347 345 346 347 349 348 348 348 348 350 350 347 350 349 347 345 339 344 343 343 342 345
352 353 355 356 357 357 356 356 354 351 351 349 349 348 346 344 343 346 345 346 347 347 344 344 347 347 347 349 348 348 349 349 350 349 349 347 344 342 339 345 342 340 340
354 354 356 355 356 357 356 355 353 350 350 350 344 345 346 346 347 348 347 346 345 348 345 345 345 347 346 350 349 349 349 349 349 349 350 347 347 343 343 339 339 342 342
356 355 355 356 357 356 355 353 350 348 347 348 347 345 347 346 346 346 347 346 344 343 349 345 342 344 348 348 347 347 348 349 347 350 350 347 348 349 347 339 338 341 343
355 356 356 356 356 356 354 351 349 347 347 346 344 344 345 343 344 345 347 347 344 343 345 346 344 340 344 347 345 346 347 349 351 349 348 348 348 347 346 346 342 342 341
355 357 356 356 355 353 353 351 348 348 346 346 344 342 344 343 343 344 346 346 344 346 344 345 343 343 346 346 347 346 345 346 350 349 346 346 348 348 344 345 343 342 342
356 356 356 355 354 352 349 347 346 346 346 343 345 341 339 343 342 344 343 347 345 345 345 344 344 343 344 345 346 344 347 347 350 350 349 347 345 346 346 344 343 341 342
357 356 355 354 352 351 349 348 347 344 343 343 342 340 341 339 342 343 343 343 346 346 344 344 345 344 344 345 344 344 347 352 348 346 346 347 347 347 346 344 345 345 345
358 357 355 352 353 352 349 347 346 346 343 342 340 339 339 340 343 342 343 343 344 347 344 347 344 343 342 345 343 343 346 346 348 350 344 346 345 345 346 346 345 346 344
357 357 355 353 354 351 351 345 345 342 339 339 339 340 342 342 342 342 342 342 345 347 346 345 345 344 341 340 342 342 345 346 343 345 350 347 346 344 345 345 345 345 345
348 354 356 354 353 350 347 345 344 344 343 343 343 343 343 342 342 342 342 343 344 345 345 344 344 345 340 342 343 342 344 343 343 344 345 345 345 346 345 345 346 344 344

GFSSE_925_thetae_003.txt.gz
Theta_e
354 350 352 352 352 349 349 349 347 345 344 343 343 340 340 345 347 342 347 348 352 348 346 345 347 345 345 345 343 344 344 343 347 346 345 340 343 347 350 349 348 347 347
350 350 352 353 352 351 352 351 350 346 345 344 344 342 341 342 348 349 349 353 354 351 354 351 349 347 343 344 343 343 343 343 346 352 351 352 351 346 348 349 348 345 347
351 351 353 353 353 352 352 351 351 350 346 345 345 344 342 340 344 346 350 349 348 350 352 348 348 350 345 348 344 343 345 345 342 340 344 346 346 349 351 346 349 348 347
355 356 353 352 351 351 351 351 351 350 347 345 345 345 345 342 340 353 349 350 350 349 347 350 348 346 347 346 345 344 345 346 345 346 344 344 352 349 346 347 349 347 347
361 359 354 352 350 350 351 351 351 350 349 346 345 346 345 344 341 352 350 352 349 347 350 349 350 345 346 346 346 343 345 344 344 349 347 348 344 350 340 349 348 348 345
364 357 357 352 350 351 351 351 351 351 349 348 346 346 346 345 344 349 347 346 348 347 347 349 353 352 346 345 346 343 343 344 346 348 349 347 342 342 347 349 348 348 344
362 358 347 354 352 352 351 351 351 351 349 349 347 347 346 346 347 344 347 351 348 350 350 348 349 353 348 349 343 343 343 343 348 347 348 346 339 342 350 349 349 347 344
358 353 345 350 352 352 352 352 351 351 350 349 348 347 347 347 348 346 351 348 348 346 350 348 347 354 345 349 346 342 344 343 347 349 347 346 338 343 350 347 347 346 345
358 355 348 349 354 353 353 351 349 350 351 350 348 348 348 348 343 349 348 347 346 346 347 348 348 351 348 347 346 342 342 343 347 349 347 346 339 346 350 348 346 341 344
360 355 351 357 357 356 353 352 352 348 350 350 349 350 348 344 344 351 345 346 346 345 344 346 348 349 350 347 345 342 341 340 346 350 347 346 340 346 350 348 346 345 337
360 358 356 354 355 352 348 344 345 345 349 356 355 353 345 350 351 352 347 347 349 345 345 345 347 348 347 347 346 341 342 339 343 348 349 346 341 343 347 345 345 344 342
358 358 358 359 358 356 352 348 347 348 348 351 344 343 348 347 349 352 351 349 353 348 347 346 346 347 346 347 345 343 344 338 344 347 347 345 338 344 342 344 344 342 345
358 357 357 357 356 355 355 350 348 348 350 350 349 350 349 351 352 349 351 352 351 346 345 346 345 347 346 350 350 345 339 338 348 348 348 343 339 339 344 344 340 343 342
357 357 355 356 353 353 351 349 348 350 349 345 342 342 346 347 347 348 350 349 350 348 347 351 348 346 346 350 351 350 344 342 348 347 346 344 340 336 344 343 344 341 342
355 358 355 355 353 353 350 348 345 345 347 347 345 343 341 340 347 342 347 347 347 349 350 347 350 349 348 350 349 349 348 345 347 346 347 344 342 336 341 341 343 342 344
354 357 357 355 352 352 350 344 334 339 346 349 349 347 347 343 342 341 347 344 346 345 345 346 346 348 348 348 348 348 347 347 346 346 347 345 342 337 337 340 343 343 346
352 356 356 356 353 353 351 350 348 348 349 349 346 330 349 348 343 345 344 345 344 341 342 343 345 347 347 348 348 347 348 346 347 346 346 346 345 342 337 338 339 341 343
352 355 356 357 358 356 355 355 354 354 352 350 346 344 346 347 346 344 345 344 343 342 343 342 344 346 346 348 347 348 349 349 350 347 348 348 345 344 341 339 337 340 339
353 355 356 358 359 357 357 356 351 351 350 351 349 348 344 346 345 345 345 345 344 343 343 342 344 346 345 347 349 347 349 348 348 348 348 348 346 345 342 341 340 338 341
354 355 356 357 358 357 355 354 351 348 346 346 347 345 344 343 344 343 343 346 347 344 342 345 343 341 343 346 347 347 347 348 348 347 347 348 346 346 346 344 340 339 341
355 356 355 356 356 356 355 351 350 348 347 345 344 343 344 343 343 342 342 342 345 344 342 340 344 343 339 346 346 346 346 346 342 345 346 348 347 347 346 341 345 340 341
356 355 354 355 355 354 352 351 348 345 345 344 343 343 343 340 341 342 343 343 344 344 344 343 343 343 344 345 343 343 342 344 345 347 348 347 347 347 346 344 345 344 341
357 356 355 354 354 353 351 349 347 346 344 343 342 341 340 339 339 340 341 341 343 345 344 345 343 343 342 344 343 341 341 342 345 346 348 347 346 346 345 346 343 343 342
356 355 354 354 352 351 350 347 346 345 345 339 339 340 340 337 337 340 340 341 343 345 345 344 343 342 343 342 344 343 342 344 343 343 346 346 347 347 347 345 345 343 343
357 355 346 353 354 351 350 347 345 343 342 342 341 340 340 338 338 339 341 341 342 343 344 345 343 342 342 341 341 340 341 343 343 342 342 344 347 345 345 345 345 343 342
356 347 342 353 351 349 347 345 342 343 340 340 339 340 340 340 339 340 342 342 341 342 342 345 344 343 342 340 338 339 340 342 342 343 339 340 342 344 344 345 344 343 343

GFSSE_925_thetae_006.txt.gz
Theta_e
355 354 352 352 348 347 345 344 343 343 343 342 343 344 344 345 345 348 349 346 345 344 349 350 348 348 346 346 347 347 344 345 349 350 350 349 349 349 348 348 348 345 345
352 353 352 351 349 349 346 345 344 343 343 341 340 341 344 344 346 347 345 348 352 349 350 351 347 345 346 344 344 345 343 347 349 351 351 352 350 350 349 348 347 345 345
350 352 353 350 350 351 350 348 345 344 344 343 341 340 340 344 347 346 349 353 354 354 353 353 347 343 345 344 344 347 346 347 349 351 350 348 348 350 350 348 347 347 346
349 352 352 352 352 352 350 350 348 345 344 344 343 342 339 339 345 348 346 346 350 350 352 352 350 345 344 344 344 345 343 342 343 342 344 347 349 350 349 348 348 347 346
349 350 352 352 352 351 350 350 349 346 345 344 344 344 343 338 345 348 351 347 351 350 349 352 351 347 343 343 344 344 344 343 343 344 347 349 345 349 349 349 348 347 345
353 352 353 351 350 350 350 350 349 348 346 345 345 345 344 342 343 347 350 349 349 347 350 350 353 348 344 343 344 344 343 342 347 347 349 346 343 344 349 349 348 344 344
356 354 354 350 350 351 351 350 350 349 347 346 346 345 345 346 347 346 344 349 349 350 350 351 353 353 346 343 343 344 341 345 347 348 349 344 340 345 349 349 348 346 345
354 354 352 350 351 351 351 351 350 349 348 347 346 346 345 347 347 341 349 348 349 349 350 350 350 353 352 346 343 344 342 345 346 348 346 345 338 346 350 348 347 346 344
356 348 353 350 350 350 351 350 350 349 349 348 347 347 346 346 346 347 346 346 346 346 350 347 348 352 347 345 344 343 342 344 349 349 346 345 337 345 349 347 347 346 341
352 345 347 350 350 351 351 350 349 348 350 349 349 350 348 348 349 350 348 346 344 346 345 346 347 349 348 346 342 343 340 344 347 349 347 345 338 346 349 347 345 343 343
354 348 348 352 353 351 351 350 348 350 352 354 354 354 352 349 348 352 346 344 344 345 346 345 346 347 348 346 344 343 342 340 344 347 347 345 339 345 349 346 344 340 341
356 354 352 356 355 352 348 350 351 353 353 353 351 351 349 342 344 345 345 344 349 348 347 348 347 346 347 346 345 342 343 340 342 347 348 345 341 344 341 344 344 343 340
358 356 354 353 351 346 344 345 346 349 351 352 349 348 347 347 351 351 349 348 345 348 346 347 346 346 347 346 345 344 341 340 341 346 343 347 340 341 341 343 343 342 344
358 357 357 357 356 355 353 347 345 344 346 341 342 346 348 350 350 349 348 345 345 346 344 346 346 345 347 346 347 348 344 340 342 347 346 347 341 339 343 344 340 341 344
356 357 356 357 356 353 352 352 347 347 348 344 342 341 343 346 349 347 343 345 345 347 344 347 349 347 346 346 349 348 348 343 345 347 341 344 343 340 339 343 342 339 341
356 357 356 355 354 352 351 349 348 347 346 348 348 343 341 341 341 346 343 341 343 344 342 344 345 348 348 347 349 348 347 345 344 346 345 345 343 340 338 342 342 342 341
356 357 356 354 353 351 350 348 346 344 339 347 350 348 345 345 345 342 340 341 342 344 345 342 345 345 347 348 347 347 347 347 346 346 344 346 343 342 339 339 343 343 341
354 357 356 354 351 350 350 348 347 339 345 347 349 348 337 342 348 344 343 344 343 343 342 340 342 344 347 347 347 348 347 346 345 345 344 346 345 343 341 338 341 341 342
354 356 356 355 353 353 352 352 351 351 350 349 350 347 344 345 346 346 345 344 343 343 342 343 342 344 345 345 347 347 348 347 347 346 346 346 347 346 344 342 339 339 338
352 353 355 355 356 355 354 353 352 351 352 349 347 347 346 345 345 344 343 343 344 344 343 343 342 344 344 345 347 348 348 347 347 346 347 348 348 347 346 343 341 341 340
353 354 355 356 355 354 353 352 351 349 346 346 346 345 345 344 344 343 341 341 341 345 344 341 342 342 343 344 346 346 346 347 347 347 347 348 347 347 345 345 343 342 341
355 355 354 353 354 354 352 352 349 348 346 344 343 342 343 342 343 341 342 341 340 342 344 342 343 343 342 340 344 342 341 343 344 343 346 347 347 347 346 346 345 343 343
347 351 354 353 353 353 352 350 348 346 345 344 342 341 341 341 340 339 339 340 340 341 344 343 341 343 342 342 343 340 340 340 342 345 346 348 347 347 346 346 346 343 343
333 340 342 351 353 352 351 348 346 344 344 342 341 340 337 338 339 338 339 340 340 340 343 343 343 342 342 343 344 343 342 342 340 339 341 344 346 347 346 345 345 345 343
337 341 345 352 352 350 349 346 344 342 342 341 339 339 339 339 339 338 337 339 340 340 341 343 343 344 342 342 342 342 343 342 341 340 341 340 342 343 346 347 346 345 344
348 349 348 353 350 349 347 343 339 340 337 338 339 340 341 340 340 338 338 340 341 341 342 342 344 343 343 342 341 340 340 342 341 341 340 340 340 341 343 345 345 346 345

GFSSE_925_thetae_009.txt.gz
Theta_e
355 352 348 347 345 345 344 344 343 343 342 341 342 345 346 345 344 343 344 347 350 352 353 353 347 348 348 347 345 346 345 346 351 349 349 348 349 348 347 347 345 344 342
354 353 350 349 348 345 344 343 342 341 340 342 342 342 343 344 346 345 344 348 352 352 353 353 352 346 346 346 346 350 344 348 349 349 349 349 349 348 348 347 345 344 346
353 352 350 347 347 346 344 343 343 342 340 341 342 341 342 346 350 351 352 353 352 353 353 353 353 352 349 348 346 351 351 347 347 350 351 348 348 348 348 347 346 345 345
351 351 350 348 348 346 345 344 343 343 341 341 341 343 346 351 352 354 354 353 353 353 353 353 349 352 350 345 349 351 351 350 351 351 345 346 350 349 348 348 347 346 345
351 351 350 349 350 350 348 345 344 343 343 343 341 340 349 354 351 351 353 352 349 352 353 353 347 344 350 345 349 349 348 348 345 345 347 347 347 349 349 348 347 346 345
352 351 350 350 351 351 350 348 345 345 344 344 344 343 344 352 353 353 353 353 352 347 348 353 346 343 348 345 343 343 347 349 343 348 349 344 347 347 349 348 347 346 345
354 352 351 352 352 351 350 350 348 345 345 344 345 346 346 349 352 352 352 352 351 350 347 347 350 347 344 347 343 343 342 346 346 347 348 341 342 347 349 348 346 345 345
351 353 353 352 350 351 351 350 349 347 346 345 345 345 346 346 347 344 348 349 351 350 350 348 352 352 345 348 343 341 343 346 347 348 347 342 340 346 349 348 346 344 345
352 351 352 351 350 350 350 350 350 348 347 346 346 346 346 347 347 343 347 347 346 347 348 348 348 349 347 345 344 342 344 346 347 348 346 342 339 346 349 346 346 342 344
352 354 351 350 350 349 351 351 350 349 348 347 348 347 348 352 350 351 343 345 345 345 346 345 347 347 343 344 345 343 341 345 348 348 346 344 338 347 349 347 345 339 341
354 352 352 351 350 350 351 352 351 351 351 353 353 354 353 352 351 352 344 342 344 344 344 344 345 346 345 344 344 344 342 344 346 348 347 346 340 345 349 348 344 341 338
355 354 352 351 351 351 351 352 351 352 354 351 353 353 351 351 347 349 346 343 345 347 345 344 344 346 346 344 344 345 342 341 343 346 347 346 341 343 348 346 341 339 342
354 350 349 350 349 352 352 353 349 352 352 351 351 351 352 344 344 349 348 349 345 348 346 347 346 345 346 346 344 343 342 340 340 346 346 347 342 342 348 344 342 341 337
356 353 351 352 353 352 352 347 347 346 349 348 350 351 346 343 344 347 348 346 345 347 346 345 346 345 345 346 345 345 344 341 339 345 345 346 344 341 345 347 343 342 342
357 356 354 352 351 350 346 343 344 345 345 347 344 342 345 348 346 349 348 346 345 346 344 345 346 345 345 345 345 345 345 342 339 343 346 342 345 340 342 347 347 346 345
356 355 355 355 355 354 353 351 346 344 344 344 342 342 346 346 345 348 346 345 344 343 343 345 344 345 347 346 346 347 345 346 340 341 346 344 345 343 341 343 348 347 346
356 355 355 356 355 355 353 351 350 347 347 348 347 346 343 341 343 344 346 343 341 341 343 343 343 343 346 348 347 347 346 346 343 342 344 345 344 344 341 341 343 346 346
355 356 355 356 355 354 351 351 349 348 346 343 346 348 348 344 343 344 343 342 341 342 342 344 342 342 344 346 347 347 347 347 346 344 344 345 343 344 342 341 340 345 345
354 354 355 355 354 353 352 350 349 346 340 334 345 347 347 346 335 345 345 341 342 343 343 343 341 341 343 346 346 346 346 346 345 346 345 344 343 345 344 344 341 341 344
353 354 355 355 354 352 350 350 348 350 349 347 346 346 347 346 344 345 345 345 344 344 343 342 342 342 342 344 345 346 347 346 346 346 345 344 345 345 345 344 343 341 340
347 352 354 355 354 352 351 351 352 351 349 348 346 345 344 344 344 343 343 342 343 341 343 343 343 342 342 344 345 345 346 348 347 347 346 347 347 347 346 346 345 344 341
335 348 342 343 343 348 350 350 351 348 348 346 345 345 344 344 343 343 342 341 341 339 341 343 343 342 341 343 343 341 340 343 347 346 346 347 347 346 347 346 345 344 342
343 341 335 340 340 347 349 351 349 347 346 344 343 342 341 341 342 341 341 340 340 340 340 342 343 342 342 341 340 340 337 338 339 344 343 346 347 347 347 347 345 345 345
339 336 331 334 340 347 349 349 347 346 343 342 341 340 340 338 338 339 340 339 340 340 340 339 343 342 341 342 341 341 341 340 336 338 344 346 347 347 346 346 346 346 346
339 332 335 335 340 348 350 348 345 343 341 340 337 338 338 338 338 338 338 338 339 340 340 340 342 343 342 340 340 342 341 342 340 336 336 337 343 345 344 345 346 346 345
335 338 339 339 346 349 348 345 340 340 337 339 339 339 339 339 339 339 338 337 338 339 340 340 342 343 342 342 340 341 341 341 340 339 336 337 338 338 341 342 344 345 344

GFSSE_925_thetae_012.txt.gz
Theta_e
352 350 352 345 343 341 339 339 343 348 349 349 349 349 349 349 346 347 347 345 345 348 351 350 347 347 346 346 344 344 347 351 350 350 349 348 348 348 348 346 343 344 346
351 349 347 345 343 342 341 340 339 340 345 348 348 348 348 346 344 346 346 351 351 351 353 349 350 348 347 344 344 345 350 350 348 348 347 349 349 348 347 345 342 345 342
351 349 347 346 346 345 343 342 340 339 340 341 343 344 344 344 344 349 348 352 353 353 353 352 349 351 347 345 350 349 351 346 347 348 349 347 346 348 346 346 345 346 344
349 349 347 347 347 345 343 343 340 339 340 340 341 342 345 350 351 352 353 353 353 353 352 353 352 353 351 351 350 351 350 348 350 350 345 346 348 349 347 346 346 344 345
352 350 348 347 346 345 345 343 342 342 343 345 346 350 350 351 351 352 353 353 354 351 350 351 346 352 349 348 351 350 349 350 350 345 345 346 346 348 348 348 347 345 343
352 351 348 350 351 346 345 345 346 345 343 341 345 352 352 351 352 353 353 351 351 353 347 344 345 350 350 348 349 347 346 349 346 346 346 346 344 346 348 347 347 345 343
351 351 349 349 352 349 346 345 346 345 344 344 344 346 351 350 351 351 352 350 351 350 346 345 343 344 351 343 349 347 346 349 346 347 345 345 345 344 348 348 346 345 340
349 350 350 350 351 350 350 348 345 345 345 346 346 346 345 349 349 350 347 348 348 348 347 346 345 347 346 343 345 342 346 347 344 347 347 342 343 344 348 347 341 345 345
349 349 351 351 351 351 351 350 347 346 346 346 346 346 347 351 350 344 347 346 348 346 346 346 347 348 344 344 342 341 344 347 347 347 346 341 341 344 349 347 339 345 344
349 350 350 351 350 351 351 350 350 347 347 348 348 346 347 352 349 343 349 346 346 344 346 347 346 344 347 345 342 341 345 345 347 346 344 341 339 345 348 346 346 342 341
353 351 350 350 349 350 349 350 350 349 350 353 352 351 352 351 350 349 346 345 345 346 344 345 345 345 342 345 342 342 343 346 348 347 345 344 340 346 348 346 345 336 342
353 351 350 350 351 351 351 350 351 351 353 352 352 352 350 349 346 349 344 343 350 347 347 345 345 345 345 343 344 342 343 342 347 347 346 346 343 340 349 346 345 338 336
353 353 351 350 350 351 351 352 353 352 353 353 353 352 351 350 346 345 346 345 347 351 349 348 344 345 345 345 343 342 341 341 344 345 346 346 344 339 347 345 344 343 342
354 351 347 349 350 350 350 351 349 347 347 349 346 346 349 348 344 345 346 345 345 347 347 347 344 345 344 346 346 344 342 341 340 341 346 345 346 340 344 346 344 342 343
354 352 348 346 348 349 349 349 350 345 343 343 344 345 344 345 341 343 344 348 346 345 347 345 343 344 344 345 346 345 344 341 340 339 344 345 347 343 340 346 345 345 345
355 354 352 349 348 349 348 346 345 343 342 342 343 344 344 342 343 342 345 344 346 344 345 344 345 345 346 345 345 345 345 344 340 338 342 344 342 344 341 341 346 346 346
356 355 354 352 351 351 351 349 346 344 344 344 344 343 343 343 342 342 343 345 344 342 342 343 344 345 345 347 346 346 346 345 345 340 339 344 344 344 343 341 342 345 345
356 356 354 353 353 354 354 353 352 351 348 347 346 346 346 346 344 342 343 345 343 341 341 341 343 343 343 345 346 346 347 347 346 345 340 342 344 343 343 343 341 341 344
354 355 354 354 354 353 353 352 350 349 348 347 345 343 341 346 347 343 342 341 342 343 341 342 343 343 341 342 346 346 346 346 346 346 342 343 344 345 344 343 342 342 341
351 349 349 349 349 349 350 349 349 348 346 345 341 336 342 346 345 344 338 341 344 340 342 343 343 343 341 341 343 345 346 346 346 346 346 344 345 345 343 344 343 344 341
341 336 340 345 345 345 347 348 349 349 348 347 346 345 344 344 344 342 342 342 343 343 343 343 342 342 342 342 344 343 344 345 345 345 345 345 345 344 344 345 344 345 342
338 341 340 337 337 342 340 347 349 348 347 346 346 345 343 341 341 341 341 341 340 341 341 340 342 343 342 342 342 340 343 344 346 346 346 346 346 346 346 346 346 346 345
339 336 336 335 338 336 340 347 349 347 346 344 343 342 340 339 339 340 340 341 340 340 340 339 341 343 342 341 342 339 341 345 340 344 345 346 346 347 346 346 346 346 345
338 336 334 335 339 335 339 347 346 345 343 341 340 338 337 337 338 338 339 340 340 339 340 340 339 342 342 341 341 340 339 338 343 346 343 343 344 346 346 346 346 346 345
343 344 342 338 333 336 344 347 345 342 339 337 337 338 338 338 338 338 338 339 339 338 339 339 340 339 342 341 341 340 340 341 339 337 341 340 344 346 346 346 346 346 346
338 336 332 335 337 343 348 345 341 338 337 338 338 339 338 338 339 339 339 338 338 338 339 339 339 339 341 342 341 340 340 340 340 339 340 337 338 336 338 340 341 342 345

GFSSE_925_thetae_015.txt.gz
Theta_e
354 357 352 350 349 348 348 349 349 349 349 349 349 348 347 345 346 347 346 345 345 346 348 347 347 347 348 346 342 344 349 351 350 350 350 349 349 348 348 345 343 343 345
353 356 351 348 346 344 347 349 349 349 350 350 350 349 349 346 348 348 346 344 347 348 349 347 347 346 346 347 345 346 352 349 349 350 349 349 349 348 346 343 347 346 347
353 354 353 345 342 341 342 345 349 349 349 349 350 350 349 347 347 348 348 346 347 347 349 349 347 347 348 345 346 350 352 346 346 347 350 347 348 347 346 343 348 341 344
353 353 353 345 342 341 341 341 341 344 346 347 348 348 346 345 350 353 352 352 347 350 352 348 352 352 348 345 349 351 349 348 348 349 347 345 345 347 348 347 345 346 345
353 353 355 350 346 345 343 341 341 342 341 342 343 344 345 349 350 353 351 353 353 354 351 345 352 353 346 349 350 349 349 350 350 346 348 348 347 347 347 347 345 345 345
355 354 355 353 354 347 344 342 342 342 342 341 342 346 349 350 349 350 350 349 350 350 348 343 348 352 345 351 350 349 348 350 347 348 348 347 348 346 348 347 346 344 343
356 355 356 349 352 346 345 343 343 343 342 342 346 350 349 348 349 349 349 347 346 346 345 345 348 352 345 350 350 347 349 350 348 348 348 347 348 345 348 347 347 342 345
356 354 356 350 346 347 345 345 344 344 344 343 342 344 347 349 350 351 347 348 346 345 344 344 350 351 349 347 349 342 346 349 348 348 347 347 346 344 349 348 346 341 345
356 356 357 357 357 349 347 345 345 345 346 347 348 346 345 350 347 350 347 348 347 346 346 345 346 347 350 344 349 343 346 343 347 349 348 345 343 344 348 346 345 345 344
357 357 357 358 358 358 356 348 346 346 346 348 348 348 346 348 351 349 347 347 347 346 346 346 346 348 344 342 342 341 348 349 349 349 349 345 340 344 349 345 338 345 344
356 355 349 353 355 355 354 351 349 347 348 348 352 352 352 351 352 350 352 347 347 344 345 345 346 344 343 343 342 342 346 348 349 349 348 345 338 344 348 347 341 343 344
355 355 354 356 356 352 357 354 355 355 352 352 353 354 353 352 353 350 352 344 344 346 346 344 344 345 345 346 347 343 347 349 348 349 349 345 341 342 349 346 344 339 343
356 356 356 356 355 355 357 356 355 355 353 353 354 352 352 352 353 350 352 350 351 352 351 349 348 348 349 343 345 348 344 343 348 348 348 345 344 341 348 346 344 342 340
356 354 355 356 355 354 356 355 349 350 348 349 347 346 345 347 348 351 350 352 352 351 353 351 350 345 347 346 347 343 343 344 345 347 347 345 345 344 341 345 344 343 342
357 356 355 354 354 353 354 353 350 350 350 347 345 344 342 340 339 342 348 351 351 351 351 351 351 349 344 344 346 345 344 345 342 345 346 345 345 345 341 345 343 345 342
357 356 356 353 353 352 348 348 348 346 345 345 346 342 344 342 341 340 339 341 347 346 349 350 349 349 347 344 347 344 344 349 343 342 343 346 343 345 344 341 338 345 346
357 356 353 353 352 350 346 347 345 344 343 343 343 342 342 341 339 340 344 347 349 344 342 344 347 348 349 349 347 343 345 346 347 342 345 346 347 342 344 342 342 343 345
357 353 352 351 350 349 348 349 349 348 348 349 347 347 345 345 344 342 341 346 348 348 343 345 344 347 347 347 348 344 344 345 346 345 346 345 346 347 345 344 342 342 340
352 348 347 350 350 351 351 350 350 350 350 349 348 347 346 345 345 347 347 344 342 347 347 345 342 342 346 346 346 346 345 345 346 347 346 345 346 346 347 347 343 343 341
347 344 345 345 344 348 349 348 348 349 348 347 345 345 342 340 337 344 345 345 344 344 345 346 346 345 346 345 345 345 347 345 345 347 349 347 346 347 347 348 347 345 342
347 343 343 337 343 339 344 346 349 351 350 347 347 346 345 344 344 344 346 344 340 340 345 346 344 345 345 346 345 344 346 345 345 349 349 346 348 348 348 347 346 347 347
341 341 336 337 339 338 340 341 346 348 347 346 345 344 343 342 342 342 342 345 341 342 341 342 344 344 344 345 343 345 347 347 347 348 349 349 349 349 349 349 349 349 349
343 343 342 341 336 337 338 339 344 348 346 346 344 342 341 338 339 339 340 341 344 341 339 338 340 342 343 344 345 344 348 345 347 348 349 349 349 350 349 350 349 346 348
341 340 336 337 337 338 336 339 346 348 346 343 340 340 340 337 338 340 340 339 341 341 340 338 339 339 344 344 344 343 343 342 350 350 347 348 349 350 350 350 349 347 350
343 343 340 338 338 340 337 344 347 345 341 339 341 341 341 340 339 340 340 342 341 341 340 338 338 340 341 343 343 344 344 344 342 342 346 346 346 347 348 349 349 349 350
341 342 335 334 336 343 347 346 340 339 339 340 341 340 341 340 341 340 339 341 342 342 340 339 339 340 340 343 344 343 342 343 344 344 346 343 343 343 344 346 347 346 347

GFSSE_925_thetae_018.txt.gz
Theta_e
354 356 350 349 348 349 349 349 349 348 349 349 347 345 346 345 348 349 348 347 351 350 347 350 351 352 349 351 350 346 351 350 351 351 351 350 348 349 346 344 345 343 346
354 356 349 350 348 348 349 349 349 349 349 349 348 346 346 346 347 349 348 346 347 349 349 347 347 348 349 352 350 352 352 350 351 351 350 350 349 348 340 345 345 343 346
354 355 353 350 348 348 347 348 349 350 349 350 349 348 347 349 350 349 351 348 347 349 347 349 348 348 347 346 347 352 350 347 349 350 348 348 347 346 345 348 343 347 347
354 354 354 348 347 347 347 348 350 350 351 351 350 350 348 349 350 350 352 353 351 351 350 347 351 350 346 344 349 351 349 347 348 346 348 345 344 346 345 348 343 346 344
353 352 356 345 344 343 343 344 347 349 349 348 348 348 346 346 347 349 351 348 352 349 349 351 354 353 348 345 348 351 350 351 348 348 345 345 344 347 349 345 347 341 345
352 352 354 344 345 343 343 343 342 342 343 344 344 343 346 352 354 355 353 348 353 351 350 346 354 354 347 348 349 348 349 351 344 348 347 346 347 344 348 347 344 344 343
354 354 355 347 346 343 343 341 341 342 340 340 341 351 352 350 349 349 348 347 347 345 348 349 353 353 348 351 350 350 349 347 349 346 347 345 348 342 349 349 344 343 343
354 354 355 355 348 344 343 343 343 341 343 344 351 353 350 348 350 348 350 349 346 346 345 346 351 353 346 350 348 348 348 345 347 346 346 345 348 343 349 348 346 346 346
355 355 356 356 355 346 343 344 345 345 346 346 347 349 349 350 349 352 347 349 346 347 346 345 350 350 349 345 350 344 348 344 347 347 345 345 345 344 349 348 346 342 345
355 355 356 355 354 355 354 346 345 345 344 346 347 346 349 350 350 346 345 346 346 346 346 348 347 348 346 343 346 343 346 345 349 348 348 345 343 343 350 348 346 343 345
355 355 355 357 356 357 357 354 347 348 346 353 354 352 348 350 352 351 348 350 345 346 346 346 346 342 341 343 343 342 349 347 349 348 347 347 339 342 349 348 341 345 345
355 355 353 355 356 357 356 356 355 355 353 354 353 355 351 350 350 350 350 346 345 347 348 345 345 344 343 343 348 346 346 348 349 349 348 347 339 341 349 347 344 340 344
355 355 354 354 354 355 355 353 354 354 353 354 355 356 353 348 349 349 347 349 348 347 349 346 347 347 349 349 348 348 347 348 349 348 348 348 344 339 348 348 344 341 341
356 355 355 355 355 355 353 353 354 354 354 351 350 347 345 349 348 346 348 349 348 350 350 350 351 350 350 350 348 349 348 347 346 347 348 348 344 344 341 345 344 344 340
357 356 355 356 356 356 356 354 352 353 353 353 350 345 342 342 340 332 333 341 347 350 350 350 350 350 350 351 350 350 349 348 346 346 344 348 345 345 344 342 342 341 344
357 357 357 358 356 355 355 355 353 353 352 350 348 348 349 344 340 338 333 334 343 348 349 350 348 349 349 349 350 350 349 350 348 349 346 345 345 344 344 342 342 339 343
357 355 354 353 355 355 354 353 350 350 349 348 349 349 348 348 347 344 341 340 341 347 350 349 350 349 349 348 348 349 349 349 349 351 347 345 346 345 343 344 342 338 339
356 355 351 347 351 351 353 352 349 351 350 350 350 350 349 347 348 347 346 343 343 347 348 347 346 348 348 348 347 348 348 349 350 351 349 347 345 346 348 342 343 341 342
359 352 345 337 348 353 352 351 351 354 353 350 350 350 351 352 351 349 348 347 348 348 347 348 347 346 346 346 346 346 347 350 348 348 350 349 348 345 346 348 343 343 342
358 352 347 347 345 350 353 354 349 352 350 351 350 349 350 350 350 349 348 348 348 348 346 345 345 344 344 347 346 345 345 348 350 347 349 349 346 348 347 348 347 345 343
353 350 350 348 345 348 349 350 348 349 350 352 352 353 352 350 349 349 348 347 348 345 345 344 345 346 346 346 347 346 344 346 351 348 349 349 349 349 349 348 347 344 348
351 348 349 344 342 343 346 350 351 352 352 351 351 352 351 349 349 350 349 347 346 345 346 345 345 346 345 345 345 342 343 343 345 350 349 349 349 349 350 350 349 350 349
350 350 348 345 339 341 341 348 350 352 353 351 348 344 344 344 344 345 346 348 347 345 344 345 344 344 345 344 344 342 344 345 346 348 349 349 350 349 350 350 351 351 351
348 347 348 345 342 342 340 347 353 351 350 345 343 343 344 344 344 343 343 344 346 345 345 345 344 342 343 345 345 343 343 345 350 351 347 349 350 351 351 349 351 351 351
345 346 344 346 345 345 346 350 352 349 343 343 343 344 344 344 343 343 344 343 343 346 346 346 344 337 338 345 345 343 344 344 345 346 349 346 349 349 348 350 350 349 350
347 345 342 344 345 349 352 352 348 345 344 342 344 343 342 341 342 344 344 344 343 345 345 345 344 338 337 343 344 344 343 344 344 345 347 344 344 344 345 347 348 349 347

GFSSE_925_thetae_021.txt.gz
Theta_e
354 354 350 349 349 350 349 350 350 350 349 347 345 346 347 349 346 346 347 348 352 353 353 352 352 351 350 352 351 351 342 346 352 351 351 350 349 348 344 346 346 345 347
356 356 350 350 349 350 349 349 349 349 349 348 345 345 346 348 347 347 347 347 349 353 352 351 350 352 349 352 352 353 350 352 352 352 351 350 350 343 344 346 343 346 345
354 355 353 349 349 349 349 349 350 349 349 349 346 347 346 347 349 348 347 346 348 353 353 354 353 353 348 352 349 351 352 352 349 347 349 347 346 343 347 347 341 348 345
353 353 355 349 348 348 348 348 349 349 349 349 348 349 347 350 350 354 350 346 350 350 352 354 353 353 350 350 351 350 352 347 341 350 350 348 343 344 349 344 344 346 347
353 353 357 349 348 347 348 348 350 350 351 351 351 351 351 353 354 355 351 346 346 350 353 354 354 353 348 346 347 350 351 348 342 348 351 346 344 344 349 343 346 343 344
352 355 354 347 345 344 344 346 348 350 351 352 352 351 351 354 354 355 355 351 348 351 348 351 353 354 348 346 348 349 349 345 343 350 344 346 349 345 346 348 344 347 345
351 359 354 346 343 342 342 343 343 344 346 347 349 353 353 353 353 351 350 349 349 348 347 351 354 353 348 350 348 350 349 342 351 349 345 346 349 341 343 346 346 347 342
351 356 354 349 347 346 344 345 346 344 344 346 351 352 354 349 351 349 353 349 349 348 344 346 348 351 347 349 350 347 348 342 349 345 345 348 348 341 348 348 343 346 344
352 355 355 354 354 348 348 348 346 346 344 346 353 351 349 351 351 349 347 348 347 348 346 344 347 350 344 348 346 346 344 340 349 348 344 348 347 340 348 346 345 345 344
353 354 355 356 355 355 355 348 346 346 349 350 352 352 347 347 347 345 343 343 344 347 348 349 346 351 350 345 345 341 343 341 348 349 346 348 344 338 350 349 346 340 345
353 352 356 356 355 356 356 354 349 348 355 354 352 352 349 350 353 351 347 348 344 345 346 346 347 344 349 346 347 341 341 346 346 348 348 347 345 339 348 348 344 344 344
352 352 354 356 357 357 356 355 354 355 354 354 354 355 354 351 351 351 352 347 342 343 349 347 346 346 342 348 348 345 347 345 348 348 350 347 346 336 345 348 342 342 343
354 353 353 355 357 357 356 355 353 353 353 352 353 355 353 353 352 350 350 352 350 348 348 347 348 348 349 346 349 349 348 347 349 350 350 349 348 339 343 347 345 339 340
353 353 353 354 355 356 356 355 354 355 355 351 352 356 356 355 354 350 351 352 352 349 350 349 350 350 350 351 350 349 346 349 347 347 347 349 348 344 339 346 344 342 342
351 352 354 355 357 357 356 355 355 354 354 354 353 347 347 349 352 345 340 340 346 348 347 347 349 350 350 352 351 351 350 349 348 348 348 347 347 343 343 342 344 341 333
351 352 354 355 357 356 355 357 355 354 354 353 352 351 351 349 348 345 342 339 340 343 348 347 350 349 348 350 352 350 351 351 351 350 348 348 346 346 344 344 341 342 334
352 353 355 357 356 357 356 355 354 351 349 350 349 351 352 352 350 345 345 346 337 338 338 336 348 349 349 348 348 351 349 349 350 350 349 348 348 346 344 343 343 341 335
353 353 355 354 355 356 356 355 352 351 349 348 349 348 350 350 351 351 349 348 346 336 333 340 348 347 349 349 348 348 350 348 349 349 349 350 346 347 347 342 342 341 337
356 356 357 354 353 354 355 353 353 352 352 349 346 347 352 352 351 350 347 348 349 345 343 345 348 348 347 348 348 347 348 348 348 349 351 351 350 349 348 348 344 342 341
357 359 355 351 353 355 355 354 351 349 352 351 350 348 349 351 351 349 349 349 349 346 348 349 348 347 345 344 343 344 346 347 349 349 351 350 349 348 350 348 348 344 342
360 359 356 355 352 347 347 348 350 350 347 348 352 351 352 352 351 349 349 348 348 348 348 349 348 346 346 345 347 346 343 343 344 350 350 350 350 352 348 349 349 346 345
359 356 354 353 346 344 343 341 351 351 353 351 352 352 351 350 349 350 350 350 349 348 347 347 348 347 349 346 346 344 344 339 341 348 350 350 352 351 350 350 348 351 345
356 353 353 349 346 343 344 348 351 353 354 352 351 347 347 347 346 345 346 346 349 348 348 346 346 347 347 346 346 344 343 341 339 349 351 350 350 349 350 349 349 352 348
354 353 351 352 348 343 340 341 351 354 351 347 345 346 346 347 345 345 345 345 346 346 349 346 346 346 345 345 345 346 344 343 347 348 347 349 350 349 349 347 347 347 349
349 349 350 349 346 348 349 351 352 353 345 345 345 345 346 346 347 345 345 345 346 345 345 348 348 346 344 344 345 344 345 342 344 346 351 345 348 349 351 349 345 348 351
350 348 348 349 348 349 349 352 353 348 347 346 346 345 342 342 345 345 346 345 344 347 346 345 346 346 345 344 341 345 344 344 343 346 350 345 343 342 344 348 349 350 350

GFSSE_925_thetae_024.txt.gz
Theta_e
355 355 349 349 349 350 349 349 349 349 348 345 345 346 345 344 344 345 346 345 348 351 353 352 351 351 351 351 349 347 340 341 344 343 345 344 343 345 346 344 345 346 346
356 355 349 349 349 349 350 350 350 349 348 345 345 347 346 345 345 345 346 348 349 352 351 351 353 353 353 350 351 349 351 346 348 351 350 350 347 347 347 346 346 344 344
356 355 353 349 349 349 349 349 350 349 348 346 346 346 347 347 347 344 344 349 353 353 352 352 351 353 348 351 347 352 351 346 348 348 348 348 340 346 348 345 341 343 347
356 353 356 349 350 349 349 350 350 350 349 347 347 347 350 351 350 348 347 348 352 352 351 354 353 350 348 347 347 349 345 347 346 346 350 345 342 347 345 345 348 346 345
352 355 355 349 349 348 348 349 350 350 350 349 350 350 353 353 352 354 353 352 349 348 349 353 354 353 348 346 347 348 341 343 348 346 348 346 341 342 340 340 340 347 346
352 359 351 349 348 347 347 348 350 350 353 353 353 352 354 353 352 352 354 348 347 349 345 352 354 353 348 345 346 344 340 342 345 351 347 347 345 341 340 347 347 346 343
359 357 350 347 344 345 346 346 348 348 351 353 352 349 349 353 355 354 354 350 346 347 347 348 353 351 348 347 345 341 342 341 349 348 347 346 346 338 344 347 345 347 346
359 356 351 346 344 344 343 342 342 344 345 347 350 352 353 350 349 349 352 351 346 345 343 346 353 350 348 351 346 344 340 339 349 347 347 347 346 340 346 343 342 343 342
356 355 354 355 352 346 346 344 341 341 343 346 355 354 353 353 351 355 352 352 348 346 345 345 347 351 351 349 348 344 339 340 348 348 348 349 344 340 339 344 338 344 342
357 355 355 355 356 355 355 348 346 346 351 354 353 352 352 356 351 348 344 344 346 344 345 346 347 348 348 348 348 344 339 339 342 348 348 349 342 336 338 344 341 343 344
356 356 356 357 355 355 355 351 351 353 353 353 352 348 340 350 350 351 347 351 345 343 346 348 350 347 348 345 346 348 341 339 345 347 347 347 343 339 340 344 340 339 344
353 355 356 357 357 356 356 356 354 354 354 352 355 354 348 351 352 350 350 347 345 340 341 346 348 348 346 349 345 346 346 346 346 349 343 341 345 339 339 344 342 342 342
355 355 356 356 357 357 355 354 354 356 355 352 351 350 353 353 351 350 349 350 349 344 348 346 348 350 348 348 348 344 348 344 347 348 349 347 346 342 337 344 343 338 343
354 352 354 355 357 357 355 353 353 352 352 352 350 347 350 354 352 350 353 351 351 350 350 350 350 350 349 347 347 351 349 349 347 348 350 348 347 345 340 342 343 341 338
354 354 356 355 355 355 354 354 353 354 349 348 349 348 350 351 350 352 348 346 342 350 350 348 348 341 343 348 348 350 349 346 349 349 349 347 348 346 342 339 342 342 339
354 355 354 355 357 353 355 357 351 351 348 336 336 352 349 346 350 352 346 342 340 342 348 344 333 334 340 343 349 348 351 351 350 346 346 349 347 346 343 342 340 341 340
351 352 356 358 359 357 356 355 357 353 352 348 350 351 350 350 350 350 349 344 347 342 347 341 339 335 332 338 348 349 350 350 351 350 350 349 349 347 346 343 342 341 341
352 352 355 354 356 356 356 355 355 352 351 350 350 350 351 351 352 351 352 351 349 348 338 337 335 334 336 341 347 349 348 350 349 348 349 349 347 349 347 345 343 342 340
356 355 356 356 356 356 354 355 353 353 353 351 350 351 350 349 351 350 350 350 350 349 347 339 337 336 346 347 347 347 347 348 346 350 348 348 349 349 349 346 346 342 341
355 357 359 356 354 354 349 348 351 352 350 350 349 351 348 350 350 349 350 350 347 348 349 348 349 344 346 346 344 345 348 348 347 346 349 350 350 349 348 349 347 344 342
359 359 359 354 353 350 344 342 344 350 350 346 340 347 333 336 348 349 349 347 345 345 348 347 347 345 342 346 347 347 347 348 348 347 350 349 348 348 346 346 349 347 346
362 360 358 357 353 345 339 340 347 350 351 352 349 350 348 348 349 349 348 345 346 346 346 346 346 346 345 346 347 346 349 345 345 348 347 351 349 351 351 351 347 348 347
360 358 356 355 349 346 341 343 344 344 350 348 348 348 349 348 346 345 344 344 344 344 345 345 343 344 345 344 346 345 349 346 346 348 349 349 350 350 350 351 350 348 347
358 356 356 351 348 344 343 343 349 349 346 348 346 347 344 346 347 346 345 345 345 344 344 345 344 343 343 344 344 344 345 347 348 346 346 347 349 348 348 348 346 346 347
355 354 356 352 349 346 346 344 349 348 349 346 346 344 345 344 347 346 345 346 344 344 345 343 344 344 343 345 342 343 344 345 345 346 349 347 347 347 348 348 346 347 345
350 351 351 351 350 351 351 352 355 351 348 348 344 347 344 346 346 344 347 345 344 344 344 344 344 345 343 343 343 343 341 344 344 344 347 347 345 342 343 344 349 346 340

GFSSE_925_thetae_027.txt.gz
Theta_e
354 350 349 349 350 348 347 348 348 347 344 345 344 343 342 342 342 343 343 342 342 343 348 349 350 348 352 347 345 348 350 342 342 339 339 345 347 348 348 349 346 347 347
350 349 349 349 350 349 349 348 349 347 345 346 346 345 344 344 344 344 343 344 345 349 350 352 352 349 350 351 346 341 344 343 343 343 347 348 348 346 345 348 343 344 345
350 349 349 349 350 350 349 349 349 347 345 346 346 345 345 344 344 344 344 346 347 349 349 349 353 354 349 348 351 344 344 347 347 348 339 343 348 349 350 345 345 344 346
351 349 350 349 348 349 349 349 348 348 346 346 346 345 346 346 344 348 349 348 352 350 352 351 350 353 350 344 349 346 346 345 345 349 344 341 349 350 349 348 342 345 345
355 350 350 348 348 348 349 349 349 349 348 348 348 349 350 349 349 347 346 347 349 349 349 351 352 352 347 345 344 347 345 343 344 347 347 344 345 343 344 347 345 346 345
355 351 349 348 347 347 348 350 350 349 349 351 351 351 351 351 352 350 350 349 348 348 350 355 353 353 347 346 343 342 343 345 346 346 347 342 338 334 343 344 348 348 341
355 350 349 347 346 347 349 351 353 351 350 351 349 347 347 349 349 350 351 350 347 347 345 353 352 353 351 345 343 337 342 346 350 346 347 343 339 337 347 348 346 346 340
353 349 348 344 343 346 347 346 347 347 347 347 346 349 352 350 350 349 348 348 347 344 345 349 350 352 353 348 343 337 341 344 349 347 348 346 343 337 345 341 342 345 343
348 349 344 340 341 342 341 341 344 345 346 345 344 350 348 348 348 349 347 344 345 344 343 345 349 351 350 350 344 342 341 344 348 346 347 346 343 340 340 335 337 337 345
353 348 342 341 342 343 342 342 342 344 346 348 351 349 347 351 350 349 344 344 342 344 344 344 345 349 347 348 347 343 342 341 346 348 347 347 342 338 337 337 333 341 339
352 346 347 344 344 346 344 344 343 344 347 346 347 346 344 348 347 344 341 343 345 342 344 346 345 348 346 345 345 343 342 339 342 349 347 348 341 339 341 335 337 340 341
356 355 354 353 350 350 353 346 347 347 346 346 345 346 343 345 351 352 349 348 347 342 342 344 346 346 342 343 343 343 338 336 347 346 346 346 343 341 342 340 336 336 340
357 357 357 355 354 355 356 356 348 350 350 352 355 355 350 351 350 350 350 348 346 343 343 345 346 347 345 346 349 345 340 336 346 348 346 338 345 344 340 340 338 337 339
356 356 357 357 356 355 355 355 353 352 354 355 349 350 345 342 343 349 349 349 350 351 349 351 349 349 349 348 346 346 344 345 345 348 348 347 342 345 340 341 340 336 337
355 355 357 356 357 355 353 353 348 346 348 352 351 349 344 344 346 350 349 349 346 350 349 349 349 348 348 343 346 347 347 349 347 349 348 349 346 346 343 340 341 340 336
354 355 355 357 356 355 353 353 348 337 347 347 346 346 345 346 346 348 347 346 342 340 343 342 344 346 343 336 345 345 346 346 346 347 349 348 346 347 345 341 339 340 338
354 355 355 354 354 355 353 352 350 350 349 347 345 335 344 348 347 348 349 348 344 342 343 341 344 337 336 334 336 338 343 345 346 345 346 347 348 347 346 343 342 339 340
355 355 354 355 356 356 352 348 348 347 349 349 348 349 347 349 350 350 349 349 347 347 346 341 342 339 334 334 334 339 343 345 346 348 346 345 347 348 348 346 345 342 341
354 356 357 357 357 355 350 342 339 350 350 350 351 351 351 349 349 349 349 349 348 348 347 343 336 337 335 334 336 339 343 345 347 347 347 348 346 346 346 348 346 344 343
353 355 355 355 355 351 346 342 345 349 350 348 347 348 347 343 341 348 349 349 348 346 347 347 342 338 335 336 343 345 345 345 336 347 346 348 348 347 348 349 348 346 344
359 357 356 354 354 349 343 339 343 345 348 348 348 342 344 343 337 344 347 346 346 346 346 344 344 345 344 343 345 340 344 345 344 346 347 349 348 349 347 348 348 349 347
359 359 356 353 351 345 339 339 339 341 347 351 351 348 347 348 347 348 347 345 345 344 343 344 344 343 342 343 339 335 339 343 345 346 347 346 348 348 348 348 347 348 348
360 358 357 354 348 344 340 342 344 341 346 345 346 347 348 348 348 346 345 343 343 343 342 342 342 343 344 343 340 343 341 340 342 345 347 346 345 347 348 351 348 348 348
358 357 355 353 346 344 342 342 346 347 348 347 348 345 344 344 347 347 345 345 345 345 344 343 343 343 343 344 343 343 343 343 340 340 346 346 345 346 349 349 347 346 346
355 357 355 352 345 343 341 339 344 348 348 348 344 345 346 346 345 343 343 345 344 344 343 343 344 342 343 343 343 342 342 342 343 341 340 342 345 347 347 346 347 347 346
356 357 355 350 347 345 350 350 353 350 347 347 345 344 346 346 345 343 343 343 343 344 343 344 344 342 342 343 342 343 342 342 341 343 340 340 341 343 344 344 344 345 346

GFSSE_925_thetae_030.txt.gz
Theta_e
352 350 349 349 348 348 350 348 345 345 346 345 344 342 342 342 341 341 340 341 340 341 350 351 347 352 351 351 350 351 351 350 350 349 349 349 348 348 348 346 346 346 347
351 350 349 349 348 348 349 348 345 343 344 344 343 343 343 344 344 345 343 343 343 348 350 352 352 353 352 350 351 350 350 349 348 350 350 348 348 348 347 346 346 346 346
350 350 349 348 348 348 348 348 346 344 345 345 344 344 343 343 345 344 346 347 348 348 350 353 353 352 351 349 350 351 350 343 343 349 346 346 348 348 346 343 342 347 344
350 349 349 349 349 349 348 348 347 345 344 344 343 344 344 344 345 345 346 347 348 351 350 351 353 353 352 352 348 348 350 349 346 346 342 347 349 349 346 347 342 347 346
350 348 348 349 349 349 348 348 347 346 345 344 344 345 346 346 347 348 351 348 346 350 351 352 354 352 352 348 348 345 343 345 348 342 344 347 348 348 347 345 344 344 343
349 348 348 348 348 348 348 348 348 347 347 346 346 349 348 351 352 351 349 345 347 349 352 351 353 353 345 346 349 341 343 345 346 346 346 343 343 345 346 346 346 345 345
350 348 348 346 346 347 348 348 347 348 350 351 353 350 346 351 349 346 345 344 345 348 349 351 351 350 345 344 346 342 343 346 346 347 344 341 336 337 344 348 348 344 343
348 348 347 344 345 346 348 351 352 352 352 352 350 346 345 348 348 348 347 347 346 346 346 349 347 349 346 343 344 342 342 345 346 347 347 342 338 344 347 348 347 344 344
349 348 347 345 344 346 347 348 350 350 347 344 345 351 348 347 346 346 345 345 346 344 343 346 348 347 348 344 343 341 342 346 349 347 347 343 342 342 348 346 345 342 345
350 348 344 342 343 343 345 343 343 343 340 340 345 347 346 348 348 348 347 346 345 345 343 344 346 347 347 347 342 341 341 343 346 347 346 346 343 342 348 345 338 342 344
351 347 342 341 343 341 340 343 343 343 340 346 353 346 347 349 348 348 347 342 344 345 347 346 345 347 344 345 344 341 339 340 344 348 347 345 343 340 346 342 336 337 337
352 345 341 341 341 342 341 342 343 347 348 348 348 350 344 344 348 351 348 345 348 348 347 349 348 346 346 343 342 345 343 338 340 346 347 346 345 341 343 338 336 338 340
349 347 345 344 344 345 344 343 344 345 346 347 347 349 348 349 351 351 349 348 346 347 347 346 346 348 344 342 342 342 341 339 341 346 346 346 344 342 344 342 336 336 340
353 351 352 352 351 350 352 353 346 347 349 350 350 353 350 349 345 348 348 348 349 347 345 348 346 345 345 342 347 347 345 341 339 344 348 344 341 344 345 343 341 336 335
355 354 355 354 354 354 353 353 353 352 350 345 348 348 340 343 341 345 349 347 345 346 349 347 349 349 348 347 346 345 343 345 345 345 348 348 342 344 344 342 343 341 336
355 356 357 356 355 355 354 352 349 349 347 348 345 347 346 344 344 343 346 344 345 345 346 347 348 347 348 347 341 345 345 345 345 346 347 347 348 347 346 344 341 345 341
354 355 356 355 354 354 352 351 343 347 341 346 349 347 346 344 345 345 345 344 346 343 340 340 341 342 342 344 340 341 345 343 345 345 346 347 348 347 346 345 343 341 341
353 354 355 356 353 353 353 347 338 345 344 345 346 346 345 337 347 349 347 348 347 347 346 344 344 342 340 335 334 334 337 338 342 343 347 345 346 346 347 346 345 343 341
353 354 355 354 352 352 351 345 339 347 349 348 347 347 347 348 348 348 347 349 347 347 346 344 344 342 339 337 334 335 335 338 342 345 345 346 346 345 344 345 347 346 344
354 355 354 354 352 350 346 339 338 347 346 349 348 348 348 346 345 349 348 347 346 346 346 345 345 343 338 337 336 341 343 342 342 344 346 347 346 347 345 346 346 347 347
356 355 355 353 350 346 340 340 339 341 347 347 346 346 343 346 340 341 344 346 347 346 345 345 345 343 341 338 336 340 343 343 343 343 344 340 347 345 345 347 346 347 347
356 355 353 351 347 345 342 339 341 343 345 347 346 347 347 347 346 347 346 344 342 342 343 343 343 344 344 344 341 337 335 337 338 342 345 344 346 346 346 347 348 348 348
357 354 352 351 349 343 338 341 340 340 342 346 347 346 346 346 347 347 346 345 343 344 344 344 343 342 343 342 343 339 338 340 338 341 343 344 345 346 345 345 346 347 347
358 356 354 351 346 341 340 339 343 347 347 347 345 346 345 346 345 343 342 343 344 344 344 343 343 344 343 343 341 339 339 340 340 340 342 345 346 346 344 344 345 345 346
357 356 353 348 345 344 342 343 341 347 348 344 345 344 346 345 344 342 343 343 343 343 343 343 343 344 343 343 342 342 341 342 342 340 341 340 344 343 344 345 346 346 346
356 354 353 347 344 343 341 344 351 348 347 347 344 345 345 344 342 341 343 343 344 344 345 344 343 343 342 342 342 342 341 341 341 341 340 339 338 342 344 343 343 344 344

GFSSE_925_thetae_033.txt.gz
Theta_e
350 349 349 348 347 349 349 345 344 343 344 346 347 347 347 346 345 342 340 341 341 345 351 352 352 351 350 351 352 351 350 349 349 348 347 348 347 346 347 348 347 345 347
348 349 350 348 347 347 347 349 346 343 342 342 342 342 342 343 344 343 343 344 344 351 352 347 352 352 351 350 350 350 349 350 348 349 348 348 349 348 346 347 347 346 347
350 350 350 348 347 348 347 346 347 345 343 342 342 343 343 343 342 342 343 345 346 347 351 352 353 352 351 350 351 350 350 349 350 350 349 347 347 346 345 346 347 346 346
350 350 349 347 347 349 347 344 345 348 347 344 343 343 343 344 345 345 347 348 348 349 349 350 349 352 349 351 350 351 348 349 350 348 346 347 348 347 344 343 347 344 344
350 349 347 347 348 348 347 346 345 344 347 346 347 346 345 346 348 352 353 352 350 352 350 350 349 348 348 351 348 350 349 347 348 344 347 347 346 347 347 341 347 346 346
350 350 349 348 348 348 347 347 346 345 344 345 348 349 347 347 349 348 348 346 348 351 351 351 349 346 345 350 348 344 344 344 344 343 347 347 346 347 346 343 343 344 344
350 350 349 348 348 348 347 347 346 345 345 347 348 351 350 353 349 347 346 345 347 346 349 350 353 345 344 348 346 342 344 345 346 344 345 344 342 346 346 346 345 346 345
349 349 349 348 348 348 348 348 348 348 350 353 352 351 351 352 351 349 346 345 345 344 346 346 350 345 344 346 342 342 344 345 346 347 345 341 335 342 347 348 346 344 343
349 349 348 347 346 350 352 352 353 352 352 354 349 345 347 348 348 348 346 345 345 344 344 345 345 344 345 344 343 342 343 346 347 347 347 342 338 345 347 350 346 345 344
351 351 349 348 347 348 354 354 354 353 352 351 351 349 345 345 344 346 344 345 345 346 344 344 345 344 343 344 344 340 342 344 347 346 347 345 341 342 348 348 347 343 344
354 351 348 347 347 345 348 351 352 351 350 352 353 353 351 349 348 348 344 343 343 345 346 347 345 344 342 344 344 341 341 343 345 346 347 345 344 342 349 347 346 344 344
353 351 347 346 345 343 342 345 343 347 348 352 352 351 348 347 346 347 344 343 346 347 346 348 346 345 344 342 343 342 340 339 341 344 347 346 344 342 347 345 343 344 345
350 350 345 344 342 343 342 344 343 345 346 346 345 345 343 343 346 350 350 350 348 349 345 344 346 347 345 342 341 342 342 338 337 343 346 346 345 344 342 344 342 345 344
351 347 344 344 343 344 343 342 342 345 346 345 345 347 349 347 350 349 349 348 348 346 346 342 343 344 344 344 341 342 343 343 339 340 345 346 345 345 343 345 342 343 345
350 346 344 344 345 347 347 347 345 344 346 345 346 349 347 345 346 342 347 348 347 347 348 348 347 347 347 346 344 343 344 343 343 340 343 347 345 342 343 344 347 346 345
352 349 349 350 350 350 351 352 352 350 349 347 345 342 348 347 343 342 346 346 345 344 344 345 346 345 345 348 347 346 345 344 345 346 345 347 346 345 344 344 344 347 346
354 353 353 354 353 353 353 351 351 350 348 346 344 345 345 347 347 345 346 345 343 344 344 344 346 344 345 345 346 344 343 344 345 344 345 345 347 347 347 346 345 343 343
355 354 355 355 354 352 349 349 344 346 347 345 346 346 346 345 346 338 346 347 345 346 345 343 341 342 343 342 340 342 343 341 342 340 344 344 346 346 347 347 345 345 343
353 354 355 354 351 347 346 348 341 338 345 346 348 346 346 345 345 342 347 346 346 346 345 345 345 344 343 341 338 335 333 334 336 338 343 343 345 345 345 345 345 345 345
353 353 355 353 351 347 349 345 341 340 345 346 347 346 345 346 346 347 347 348 347 346 345 346 345 344 343 341 337 336 338 339 337 338 343 345 345 346 346 345 345 345 345
353 354 355 352 350 349 346 339 340 343 346 346 346 346 343 343 343 338 343 345 346 345 345 345 345 345 343 340 336 337 336 336 342 343 343 343 344 344 346 345 346 346 347
354 355 354 351 349 346 340 339 340 340 345 345 346 346 346 347 346 347 347 346 343 343 342 343 343 343 343 341 339 337 338 337 338 339 341 341 342 343 342 344 345 346 347
354 354 351 349 346 342 339 340 341 341 341 345 346 347 345 346 346 346 345 344 343 343 344 344 343 343 342 342 342 339 336 339 337 339 339 341 343 343 344 345 344 344 344
354 353 351 349 345 341 340 342 342 345 346 346 345 345 345 344 343 342 341 342 343 343 343 343 343 343 343 342 341 342 338 338 339 339 339 339 342 344 345 345 345 343 345
355 353 351 348 342 339 341 341 342 347 345 344 344 345 345 343 341 341 342 342 342 343 344 344 343 343 344 343 341 340 340 341 341 339 340 338 338 342 344 344 344 345 345
354 352 349 347 344 343 342 342 349 347 346 344 344 344 342 341 339 340 342 342 343 343 344 343 342 343 344 342 342 341 341 340 340 339 338 339 338 340 342 342 343 343 344

GFSSE_925_thetae_036.txt.gz
Theta_e
347 346 348 350 348 345 347 348 349 348 348 348 347 348 348 348 343 340 341 343 344 346 351 352 350 351 349 351 351 351 350 349 348 346 347 348 348 345 345 347 345 344 346
344 347 348 348 348 345 348 346 345 347 348 348 347 347 348 347 343 340 340 341 342 346 351 351 351 351 350 351 349 349 349 348 346 346 347 347 345 348 348 346 346 346 346
346 348 348 347 349 348 345 346 344 344 343 343 343 344 345 344 343 343 343 343 343 346 346 350 352 352 351 350 349 348 350 347 348 349 348 346 346 346 345 347 346 347 346
348 349 348 347 349 348 344 344 345 345 345 344 344 344 344 344 347 347 347 344 346 346 348 347 351 352 351 351 350 350 349 350 350 349 346 346 346 345 346 347 345 345 345
349 349 348 347 347 347 346 346 347 347 345 345 345 346 351 351 351 352 352 350 346 348 348 348 343 351 350 348 351 347 348 350 349 345 346 346 347 345 343 348 344 343 339
350 350 349 347 348 347 347 349 350 351 348 346 344 344 348 352 352 352 351 347 346 347 350 349 347 344 348 349 349 348 349 349 347 345 346 346 344 348 343 347 347 346 341
350 350 353 348 348 347 346 348 349 353 352 352 352 350 348 346 347 351 350 346 346 346 348 348 345 349 348 350 345 343 343 348 339 344 346 346 344 345 345 344 344 345 339
350 351 349 349 349 348 347 347 350 353 353 352 353 352 352 352 348 348 346 345 346 343 348 348 346 346 346 350 344 342 343 344 345 345 346 343 344 344 346 346 345 346 341
349 350 351 349 350 353 351 353 352 352 353 352 351 350 350 350 348 350 348 345 345 343 344 344 344 346 344 350 341 342 344 344 346 346 346 342 337 340 347 347 344 340 342
350 350 351 353 352 353 354 352 350 352 352 351 350 351 351 351 351 351 346 345 344 342 341 344 344 344 343 344 343 341 342 345 346 346 346 345 339 342 347 346 347 345 342
354 353 352 351 353 353 353 354 353 352 353 352 352 352 351 350 349 349 343 344 343 344 344 343 343 344 345 344 342 339 341 344 346 345 346 346 342 341 347 344 344 344 343
355 354 349 349 349 350 352 352 352 352 351 351 350 351 348 350 348 347 344 341 345 346 343 343 344 344 342 345 347 343 341 340 343 345 345 346 344 343 345 344 342 343 342
351 352 350 348 348 345 348 347 347 347 349 350 351 348 347 347 347 348 349 348 346 348 348 346 345 344 343 342 343 343 343 340 339 340 345 346 346 344 342 345 344 340 343
351 350 349 347 345 344 345 343 342 343 345 345 345 344 344 342 342 349 349 349 347 347 347 343 343 343 343 343 341 341 342 342 339 337 342 346 345 345 344 343 342 341 343
350 350 349 345 344 344 345 343 343 343 343 344 344 345 344 345 345 345 343 347 348 348 347 346 345 344 344 345 344 342 343 343 342 340 337 344 345 344 345 343 344 342 345
349 348 348 344 344 345 344 344 345 344 344 344 344 344 346 345 346 343 342 344 347 347 345 346 348 347 346 346 346 346 343 344 344 344 342 340 345 346 344 342 343 344 347
351 349 347 343 344 347 347 347 345 346 347 345 346 346 342 345 347 345 344 345 344 344 344 344 345 346 346 345 345 346 344 344 344 344 345 345 345 346 345 345 345 344 344
352 351 349 349 346 343 348 347 345 345 344 344 343 344 345 346 346 346 345 340 346 346 344 342 342 342 342 341 342 342 342 343 341 341 342 343 344 345 346 347 346 345 344
354 353 352 351 349 345 346 342 343 340 342 344 344 344 345 346 345 344 341 343 346 345 346 346 344 343 343 343 342 340 338 335 337 338 340 339 341 344 345 345 346 346 345
353 354 353 351 350 348 344 345 344 341 340 342 344 345 346 344 345 346 345 344 347 347 346 345 345 345 344 343 341 340 338 336 334 335 334 336 343 343 345 345 345 345 344
352 353 353 352 350 347 347 343 340 341 341 338 343 344 345 343 344 341 340 344 344 345 345 344 344 344 344 343 340 337 338 337 337 338 339 338 342 344 345 346 345 345 346
353 353 354 351 349 346 341 339 339 339 340 342 344 346 346 346 345 346 346 346 346 343 342 342 343 342 342 342 338 337 343 338 337 338 342 342 342 342 342 342 342 343 344
353 353 353 350 347 342 339 340 341 341 341 344 345 345 344 344 345 344 343 342 342 343 343 343 343 342 344 341 339 340 340 343 338 338 338 339 340 342 343 343 343 344 344
351 352 350 347 344 339 340 340 341 344 345 344 345 344 344 343 342 341 341 342 342 342 342 343 343 343 342 341 339 340 337 337 339 338 338 338 342 343 344 343 344 345 343
336 346 350 346 342 338 341 343 344 346 344 344 344 344 343 341 339 339 340 342 342 343 343 344 343 343 343 342 341 340 341 340 340 340 342 338 338 342 343 344 344 343 345
338 338 349 345 340 340 340 342 345 345 343 343 344 343 340 339 339 340 342 342 342 343 344 342 342 343 343 343 343 341 340 340 340 340 339 338 338 340 341 341 342 343 345

GFSSE_925_thetae_039.txt.gz
Theta_e
351 354 351 348 346 349 348 347 348 349 349 349 347 345 344 344 341 342 342 342 340 346 350 351 351 349 352 351 351 351 351 349 348 347 349 349 347 347 347 344 345 344 347
350 354 349 347 346 347 350 349 348 348 348 347 348 348 348 344 340 340 341 343 344 344 349 352 352 351 351 351 351 351 350 348 345 347 350 348 346 347 348 346 343 346 347
350 353 354 348 347 348 348 349 348 347 347 347 347 348 348 344 341 339 341 343 344 343 345 352 352 352 351 350 350 349 350 346 348 349 348 344 345 349 347 347 347 347 347
351 353 354 350 350 349 346 345 346 347 347 346 346 346 346 345 343 346 347 344 344 344 343 347 351 351 351 350 348 349 350 350 350 349 347 344 342 346 348 347 347 346 341
354 354 355 352 353 349 347 345 346 347 345 344 345 347 349 350 350 351 349 345 346 346 348 344 347 351 352 351 350 347 349 350 349 347 348 348 344 344 347 346 345 344 339
355 354 355 353 352 350 346 347 350 350 349 349 350 352 352 348 348 348 349 346 348 346 347 352 343 348 350 348 349 342 349 349 346 347 347 347 345 342 347 346 342 345 337
355 355 356 353 354 352 348 349 352 351 350 351 352 351 351 351 350 351 349 346 344 346 347 349 352 345 344 347 347 349 348 349 346 347 347 345 344 346 345 348 347 346 337
354 355 357 354 354 353 353 352 352 352 351 353 352 352 351 350 350 351 349 345 345 345 346 347 348 346 349 349 345 345 344 346 344 346 347 347 344 341 345 345 344 343 338
356 356 356 357 356 352 354 356 355 353 354 352 353 350 349 350 348 347 348 347 346 343 344 345 347 345 346 348 344 342 343 343 347 348 349 347 341 342 346 346 344 345 339
356 356 357 357 356 355 356 353 353 354 352 352 351 351 351 351 349 348 346 345 346 344 343 344 346 344 344 346 341 342 345 344 349 349 349 347 339 338 348 345 346 340 342
356 356 357 357 357 357 356 354 352 351 352 352 352 352 350 352 351 351 348 344 346 347 345 344 345 345 344 343 341 342 343 348 348 348 349 347 344 340 346 346 345 345 342
354 355 356 356 355 356 354 356 356 355 352 351 351 355 353 353 353 351 348 342 344 344 346 346 345 345 345 349 347 341 345 347 348 348 349 346 345 342 342 344 344 342 340
353 354 354 354 354 355 354 355 355 353 352 353 353 354 353 353 348 348 345 345 348 347 351 347 349 349 350 348 348 349 348 345 344 346 346 346 345 344 343 344 343 342 341
353 354 354 354 353 351 353 350 350 353 350 344 346 348 346 345 342 346 346 348 348 347 347 350 348 349 351 350 348 348 349 347 345 343 344 344 345 345 345 344 343 342 339
353 354 354 354 352 351 342 341 341 341 341 341 343 345 344 343 342 344 344 344 348 351 350 346 346 347 349 348 346 348 346 347 347 345 344 339 345 345 344 344 343 342 340
353 353 354 354 352 343 341 342 343 340 341 342 343 343 342 342 343 342 343 344 345 349 350 349 346 345 345 345 350 350 349 347 348 349 346 343 339 344 345 343 343 343 343
354 353 353 351 346 344 344 345 345 340 345 344 344 344 344 345 344 345 343 345 347 346 345 345 347 349 348 345 348 348 347 347 347 346 346 348 346 343 345 345 344 344 344
354 353 350 342 337 343 346 345 345 345 345 343 344 344 345 345 344 345 348 349 343 344 345 344 346 348 348 348 347 346 346 345 345 345 346 344 347 347 346 345 345 345 345
355 355 349 344 341 344 346 345 345 344 342 343 342 343 344 344 346 346 345 346 341 346 345 345 346 344 344 346 345 345 344 342 342 343 344 344 343 345 347 347 346 346 345
356 353 352 347 341 345 348 348 344 342 339 341 342 343 345 345 345 345 344 345 346 347 350 349 348 347 347 347 345 343 343 342 340 339 339 340 342 344 346 348 348 347 345
351 353 353 352 351 349 346 345 343 340 339 339 341 343 343 341 343 341 343 342 345 346 349 348 347 347 346 344 345 345 343 343 343 342 342 342 340 345 348 348 344 343 348
344 343 353 352 349 347 344 340 341 339 342 339 341 345 346 346 345 345 345 345 347 348 347 347 346 344 343 344 344 344 345 344 342 342 341 344 345 345 347 348 349 345 343
344 343 347 349 348 342 339 340 340 341 339 342 344 344 345 344 343 343 342 342 342 343 345 346 346 344 344 341 343 345 347 347 343 338 340 340 341 345 345 346 348 347 349
344 344 347 346 344 339 340 342 341 343 346 345 344 345 344 342 341 340 340 343 344 345 345 345 345 343 342 344 341 341 343 342 346 345 342 341 342 343 345 347 348 349 350
341 340 347 345 343 339 343 345 348 348 345 344 346 346 342 340 340 342 342 343 344 346 345 344 344 343 343 342 341 343 340 344 344 345 346 341 340 341 343 347 348 348 346
335 340 343 346 343 340 342 342 345 344 344 344 345 344 341 341 342 341 342 342 342 343 344 344 343 343 342 341 340 343 344 344 344 345 346 342 341 340 341 342 342 343 343

GFSSE_925_thetae_042.txt.gz
Theta_e
351 353 350 351 350 348 349 349 350 347 347 343 342 341 342 341 341 343 344 340 343 349 352 352 351 351 352 352 349 351 351 350 349 349 349 347 348 348 346 340 343 341 343
352 353 349 350 351 349 348 348 349 349 348 346 344 343 344 342 342 344 344 342 343 345 348 352 352 352 351 351 352 351 350 347 348 350 350 345 347 348 344 344 347 343 344
352 353 353 352 351 351 348 348 349 348 348 348 346 346 346 342 342 343 345 344 340 340 349 352 350 351 348 351 349 351 349 348 348 350 345 346 345 350 348 347 344 347 347
352 353 354 351 352 349 349 349 348 348 347 348 348 348 346 343 342 346 350 343 343 348 343 350 352 352 351 351 350 352 349 350 349 345 346 340 342 348 348 348 348 347 342
352 353 357 352 353 351 346 347 348 348 347 347 348 348 347 346 345 349 346 344 344 349 343 346 353 352 351 350 351 347 349 350 346 347 348 343 340 344 348 348 346 340 339
352 353 354 354 354 354 349 346 346 345 345 345 346 348 349 348 348 347 351 348 346 346 350 345 348 347 350 351 345 349 349 348 344 343 347 344 344 334 346 345 343 337 343
354 354 355 353 354 353 352 352 351 347 347 348 352 353 352 348 348 346 347 347 347 346 346 351 344 344 350 346 347 345 347 344 346 343 343 342 345 337 346 347 345 338 343
353 354 356 354 354 353 353 351 350 351 351 351 352 352 351 349 348 350 349 346 347 347 347 349 353 346 347 351 349 343 348 342 345 344 345 343 344 343 341 348 343 345 342
354 355 356 355 356 353 355 351 350 351 353 350 350 350 348 347 349 350 349 347 345 345 347 347 349 347 346 350 344 342 342 343 347 346 347 345 340 340 345 337 345 344 335
355 355 355 356 356 355 354 354 353 353 353 349 351 349 350 352 351 350 347 344 346 345 345 348 349 346 346 348 345 341 342 343 348 348 347 348 344 337 348 346 343 344 337
356 355 356 356 356 355 354 354 351 351 350 350 349 351 352 351 350 351 350 348 344 346 346 348 347 346 344 344 344 343 345 348 348 348 349 348 344 339 345 347 345 344 335
355 355 355 355 354 356 352 354 352 353 354 350 349 351 350 350 350 349 349 343 348 349 347 347 346 346 344 348 347 346 347 347 348 349 349 348 345 343 343 347 345 346 343
354 355 356 355 354 353 352 352 350 351 350 353 351 350 350 351 351 349 349 350 351 349 350 346 348 348 347 349 347 346 344 346 345 347 347 346 345 345 343 344 345 345 343
354 355 356 355 354 354 353 351 352 350 350 352 350 349 351 351 350 345 345 349 349 351 350 350 347 348 350 349 348 348 348 346 344 343 346 345 345 345 345 344 343 343 344
355 356 356 356 355 354 354 352 348 348 348 345 343 342 342 343 343 343 346 342 345 350 352 351 349 350 349 350 349 349 348 347 347 345 344 343 342 345 345 345 344 343 342
355 355 355 357 356 355 348 344 345 342 339 339 340 341 342 343 341 343 343 344 347 349 346 349 351 350 348 349 350 349 349 348 348 347 347 346 342 341 345 345 344 343 343
356 356 356 351 350 355 351 350 349 342 342 340 340 341 342 343 341 342 345 349 347 349 351 351 351 351 349 349 348 349 349 348 348 348 349 347 348 344 339 344 345 343 343
358 358 352 341 341 344 350 351 347 344 342 341 342 340 343 346 349 349 347 349 349 350 349 348 350 349 349 349 349 349 348 347 347 347 347 348 347 347 346 343 344 344 344
359 357 350 345 342 346 347 352 348 344 343 342 343 342 343 346 348 347 346 348 350 349 351 349 348 348 349 349 348 348 347 347 346 345 345 347 348 347 348 348 347 346 344
356 348 340 339 346 344 351 353 347 343 343 340 342 342 343 351 352 352 350 348 349 349 349 350 350 348 348 347 348 346 346 347 345 343 343 345 347 347 346 347 349 348 345
345 337 334 332 346 350 350 350 345 341 339 340 340 341 344 348 348 352 352 350 350 350 349 349 349 348 347 347 347 345 344 346 347 344 343 341 341 342 344 347 349 349 349
343 346 347 348 354 355 353 349 347 340 339 338 341 342 345 346 350 350 349 349 349 349 350 349 349 348 347 348 346 345 349 346 345 346 345 344 345 343 345 349 351 350 344
347 349 350 352 356 354 347 346 344 344 343 341 344 349 350 348 348 348 348 348 349 348 345 348 348 348 346 346 346 345 351 346 347 346 346 345 347 346 347 347 349 349 350
350 348 338 347 354 349 348 347 346 345 346 350 349 349 349 348 347 347 347 347 347 346 347 347 347 348 348 346 345 345 345 347 351 352 345 347 347 346 347 349 349 349 350
347 352 352 353 350 348 349 348 350 349 350 349 349 349 348 346 345 345 346 347 347 348 348 348 348 348 347 347 346 345 345 345 347 348 351 345 344 342 344 345 349 349 349
346 352 353 352 349 349 349 351 351 351 350 348 348 346 343 342 342 344 346 344 345 347 348 348 348 347 346 346 345 343 345 346 345 348 350 347 345 341 342 343 343 345 345

GFSSE_925_thetae_045.txt.gz
Theta_e
352 353 349 349 349 350 350 349 348 346 343 340 341 342 345 351 351 340 346 342 345 352 353 352 352 352 351 350 352 352 351 350 347 349 348 347 349 347 344 345 343 337 346
352 352 350 350 349 350 350 350 349 346 345 342 341 343 342 344 345 343 340 343 351 351 352 352 352 353 351 350 350 352 351 349 351 350 346 349 348 342 346 347 340 345 347
352 352 353 351 350 349 349 348 348 348 346 344 343 344 342 345 351 346 342 339 339 345 350 350 351 353 347 350 350 350 349 348 345 342 344 345 347 346 347 348 342 346 343
352 352 352 348 351 351 350 349 349 348 348 347 346 346 344 344 349 348 344 341 340 341 346 352 352 353 352 349 351 350 350 350 341 345 348 346 345 346 349 348 345 343 341
351 354 354 350 348 351 351 350 349 348 348 349 348 348 346 346 349 350 351 348 345 345 340 347 351 352 351 350 350 351 351 345 341 349 347 342 341 346 348 345 345 335 341
354 358 348 349 349 346 347 350 350 349 348 350 351 351 350 350 349 345 346 348 347 350 345 344 346 352 352 352 349 346 348 340 347 345 344 343 345 342 345 346 344 341 342
357 358 355 349 350 348 345 345 347 348 347 347 348 349 347 348 347 348 347 346 348 349 350 349 345 346 352 350 346 350 344 340 350 341 345 342 346 330 342 344 345 332 345
354 354 357 354 350 350 350 348 347 347 348 353 353 351 352 347 346 346 346 349 349 349 349 350 346 344 351 350 347 348 340 345 345 342 342 342 343 335 345 348 346 336 343
353 356 356 356 357 354 354 351 350 350 350 349 350 349 350 348 347 347 345 351 351 346 349 350 352 347 345 352 351 346 343 343 348 345 344 348 335 332 340 347 344 342 339
352 354 355 356 357 354 354 351 350 350 351 350 350 348 348 348 347 345 344 342 348 347 346 351 352 350 346 351 349 345 342 341 349 347 343 347 345 336 344 338 345 346 337
353 353 357 358 357 356 355 353 351 352 350 352 353 348 348 350 352 351 349 348 343 346 345 351 352 351 350 349 350 345 344 348 347 349 348 348 343 339 341 347 344 342 339
353 352 355 355 357 355 353 352 352 352 351 351 351 353 350 349 349 350 351 345 343 346 347 349 348 350 346 349 349 347 348 347 347 348 349 349 348 343 341 347 345 345 344
352 352 353 353 354 353 353 352 351 351 350 350 351 352 351 350 351 348 350 349 349 348 349 347 349 348 348 349 349 347 345 346 348 348 349 349 344 344 343 343 346 345 345
352 352 355 354 354 352 353 350 352 352 352 351 351 355 351 348 348 346 346 349 347 349 350 343 349 347 349 349 348 348 347 346 345 344 349 347 345 345 344 344 344 344 344
353 354 356 356 356 355 353 353 352 350 350 350 349 349 346 346 343 344 344 344 344 349 346 351 351 349 350 351 348 349 348 347 347 345 346 346 344 342 345 345 345 345 344
354 356 358 357 357 356 354 350 349 349 349 345 341 343 342 340 340 342 342 343 342 344 345 348 350 351 349 349 348 348 348 348 347 346 346 347 345 341 341 344 345 345 344
355 356 357 359 358 353 357 353 350 350 344 341 342 345 343 341 340 342 342 344 346 350 349 349 351 350 350 349 349 348 349 349 347 348 346 347 348 346 342 337 344 344 343
357 340 336 356 349 352 352 352 351 349 349 344 342 339 340 341 341 342 344 346 349 351 352 351 350 351 350 349 349 349 349 347 347 346 347 346 347 348 348 343 338 342 344
352 345 347 351 344 348 352 351 352 349 345 342 342 342 339 341 347 347 348 349 349 350 349 351 351 350 350 348 350 347 349 348 347 346 346 345 346 347 348 348 347 344 344
341 350 346 340 337 339 348 352 349 346 344 342 341 342 342 341 344 349 350 350 352 350 350 350 349 350 349 350 349 345 347 348 347 346 345 344 344 347 347 347 349 349 347
343 343 335 333 336 347 353 353 350 343 341 341 341 341 342 343 350 351 351 351 351 349 351 351 351 350 348 348 350 347 346 346 346 346 345 343 343 346 347 347 348 349 350
347 343 343 336 348 353 355 353 350 344 340 340 340 340 343 345 350 351 351 350 351 351 351 351 350 349 350 350 350 349 351 347 346 345 345 344 343 343 344 345 346 351 351
349 348 356 343 356 357 352 349 347 345 345 338 341 345 346 348 349 349 350 349 350 350 345 349 350 350 349 348 348 347 352 355 346 346 346 345 346 346 345 349 347 343 347
350 355 356 358 358 353 350 347 346 345 347 349 350 349 348 349 348 347 347 347 347 347 348 348 348 349 350 348 348 346 346 347 353 353 346 347 349 349 348 349 344 346 346
353 352 350 358 356 352 352 350 350 350 351 351 350 350 345 348 346 345 347 348 350 350 351 351 350 350 350 348 348 348 346 346 346 351 350 347 345 343 344 347 346 348 346
351 353 355 357 354 352 351 352 352 351 351 349 346 346 344 342 344 346 346 347 347 349 350 351 350 349 349 348 347 346 346 348 347 347 352 346 346 341 341 343 344 344 345

GFSSE_925_thetae_048.txt.gz
Theta_e
352 354 349 349 349 350 349 348 348 344 340 339 340 344 346 342 340 343 345 350 348 349 353 351 351 351 351 352 351 351 350 343 344 344 347 343 349 348 345 345 342 346 341
352 354 348 349 350 351 349 348 347 345 341 342 342 343 345 343 341 340 343 350 349 352 353 352 353 352 348 348 350 351 348 348 351 343 350 345 344 348 346 345 346 347 344
352 355 354 348 349 349 350 350 346 346 343 343 343 343 342 342 342 342 345 340 342 347 352 351 353 352 348 348 349 349 339 346 350 347 348 344 338 346 345 344 337 334 343
351 353 355 348 348 348 348 349 348 347 344 344 344 345 344 344 344 350 348 338 340 344 347 349 352 353 352 347 350 350 340 345 345 345 347 347 344 346 349 344 343 339 343
352 352 349 348 348 348 348 349 348 348 348 346 346 347 345 345 345 348 351 348 344 344 343 346 347 351 352 350 352 346 343 340 345 349 348 346 345 338 343 343 333 337 344
354 352 341 345 347 348 348 348 348 348 349 348 348 349 348 349 344 348 348 347 346 346 345 346 347 351 350 352 346 345 339 340 346 346 343 344 345 340 341 348 345 342 340
357 353 344 345 347 349 349 348 349 348 349 350 351 349 348 347 344 346 348 350 350 347 348 346 345 348 352 351 345 343 338 340 348 346 342 342 341 330 333 345 340 336 343
358 356 354 347 346 348 347 348 348 348 348 349 354 352 347 345 345 345 346 347 349 350 349 348 346 347 350 350 343 341 337 343 350 348 345 345 340 329 341 338 343 334 344
357 357 357 356 353 350 348 346 349 351 353 352 352 351 350 348 346 346 342 343 346 349 351 348 347 345 345 350 347 342 335 343 347 348 344 344 338 329 340 343 344 340 341
358 357 355 357 356 355 353 351 349 349 349 350 351 350 348 348 350 350 343 342 344 349 348 351 353 352 346 350 348 344 338 336 345 346 347 349 340 332 328 336 340 343 336
356 357 356 356 356 356 354 351 350 350 351 354 352 354 352 352 349 351 347 349 342 344 345 348 351 352 347 347 349 346 341 338 346 347 348 347 343 338 332 334 340 344 340
356 358 358 356 356 356 355 355 352 351 352 353 352 351 345 350 348 347 349 347 344 343 346 346 346 348 347 350 348 346 342 346 348 347 348 349 346 343 339 337 343 343 343
352 357 354 355 356 355 355 352 352 353 352 349 350 349 351 348 337 338 347 348 347 347 349 348 348 346 349 349 350 343 345 347 348 349 349 349 348 345 342 341 343 343 344
351 354 355 354 354 353 354 351 353 353 349 336 347 350 349 346 339 348 347 349 346 346 347 348 345 349 350 349 350 349 347 346 346 346 348 348 347 344 343 343 343 345 346
353 354 355 355 354 355 353 353 351 347 348 344 347 353 351 348 345 345 343 343 342 347 347 346 341 336 348 349 349 348 348 347 347 348 347 348 346 344 343 343 344 344 344
339 341 344 357 358 353 353 352 350 349 349 349 344 343 348 347 340 339 340 341 343 343 344 344 345 348 348 351 349 350 349 349 347 346 348 347 346 345 343 341 343 345 345
338 335 344 340 353 350 352 350 353 350 350 345 340 342 348 344 340 339 339 339 341 346 341 341 346 346 349 350 350 348 348 346 348 348 347 347 347 348 347 344 339 343 343
335 338 334 337 352 353 354 351 350 349 350 343 341 347 343 342 341 340 340 342 344 341 334 336 348 347 346 349 350 349 349 349 348 347 348 346 347 347 347 347 345 338 342
342 336 333 338 353 352 353 352 350 348 349 347 344 341 340 340 340 343 345 346 345 347 349 345 351 351 350 349 346 346 347 347 349 348 346 346 346 347 346 348 348 343 340
340 338 340 347 350 342 348 351 349 347 345 344 342 341 342 341 340 343 345 347 348 348 349 348 349 348 349 349 349 349 349 346 347 348 348 347 346 346 344 345 348 345 346
347 351 342 340 336 350 355 355 347 344 341 341 341 341 341 342 343 348 348 349 349 349 349 349 351 349 350 349 349 347 348 348 349 347 347 346 345 344 343 342 349 348 349
349 346 348 342 353 354 355 351 348 341 340 338 339 340 342 342 346 349 349 348 348 349 349 347 348 349 349 349 348 348 351 349 348 347 348 346 346 345 343 346 348 349 348
351 350 348 348 356 357 353 348 346 345 339 338 341 344 345 347 347 347 347 347 347 347 349 348 347 350 350 348 347 348 352 353 347 347 346 341 346 345 349 348 346 345 343
354 351 357 356 354 355 349 347 348 348 348 347 348 347 347 346 347 347 347 345 346 346 347 346 347 349 348 349 348 347 346 346 351 349 346 347 345 346 345 346 344 343 340
351 355 354 356 357 352 353 349 349 350 351 351 350 350 343 342 346 344 344 347 348 348 349 349 350 349 348 348 349 347 346 344 346 348 349 347 342 342 344 346 346 346 345
353 354 352 356 356 354 352 353 352 353 352 351 348 346 343 345 343 344 345 346 347 347 347 348 346 348 348 348 347 346 345 347 347 347 348 345 342 339 340 342 343 342 341

GFSSE_925_thetae_051.txt.gz
Theta_e
352 350 349 349 348 348 347 347 341 337 336 337 339 338 338 340 342 344 345 348 350 353 351 351 350 348 352 352 349 347 341 344 346 337 347 346 346 347 346 349 343 341 346
349 350 349 348 349 348 347 347 343 338 338 339 340 339 339 340 345 341 346 352 353 352 352 352 352 350 351 351 350 344 345 349 349 349 346 347 346 346 347 347 343 347 346
348 350 349 349 349 348 348 346 344 340 340 340 342 342 342 344 341 341 341 343 346 352 353 351 352 347 351 346 342 344 349 346 345 350 337 343 346 346 345 344 342 342 345
347 350 349 349 349 349 348 346 346 343 342 342 342 341 344 344 345 345 338 340 344 347 352 349 351 352 348 347 341 340 344 344 347 349 347 340 346 343 345 343 342 347 341
353 348 348 348 348 347 347 347 346 345 344 343 344 343 344 349 346 345 346 343 343 341 346 348 353 352 344 346 343 340 340 342 345 347 346 345 342 338 340 335 337 347 337
352 347 347 347 347 348 348 347 346 347 346 346 346 345 345 347 350 352 352 349 345 345 343 346 351 350 350 347 341 342 340 344 346 348 347 345 338 338 345 344 343 339 338
350 344 343 345 347 348 348 348 347 346 347 348 348 349 348 349 351 350 352 351 348 348 347 345 348 352 348 347 341 340 340 344 349 350 346 345 338 332 342 345 342 342 345
345 346 345 344 347 349 350 348 348 347 346 348 348 349 350 349 348 350 351 350 347 347 347 348 345 349 352 347 340 339 338 343 349 349 349 341 343 330 335 335 335 341 335
351 345 345 343 346 347 351 351 348 347 348 348 349 346 345 344 344 345 344 349 348 346 348 347 347 345 347 347 339 337 340 342 347 349 348 345 339 332 339 336 340 336 343
354 349 347 343 344 347 349 349 347 348 350 347 348 353 347 345 346 348 344 341 347 344 344 346 346 347 345 348 342 337 337 340 345 346 348 344 336 330 339 338 339 337 340
357 354 352 349 349 347 347 349 349 350 351 351 348 348 347 349 349 352 350 347 344 346 345 348 349 349 346 344 347 340 337 336 344 346 348 348 343 334 329 330 336 341 334
357 356 355 353 353 355 354 349 349 350 349 352 347 346 348 347 349 348 348 347 347 343 346 345 346 346 346 344 346 340 337 337 340 347 348 347 345 342 335 331 335 340 339
357 356 355 354 352 353 356 354 348 347 348 350 351 349 347 349 348 337 343 346 343 346 346 350 347 346 348 347 346 344 337 339 347 348 348 348 347 346 341 338 337 341 343
345 339 345 356 354 352 351 350 340 348 350 349 346 349 349 348 346 336 344 348 349 348 347 349 348 348 348 348 349 348 348 344 345 348 347 348 348 347 343 341 340 339 341
343 336 341 349 351 354 351 347 344 342 347 341 338 348 349 346 340 346 347 349 346 347 345 343 345 343 338 347 348 349 348 348 348 349 348 348 346 347 343 343 342 342 342
338 338 338 337 336 351 351 350 349 349 347 340 341 345 349 347 346 345 344 342 343 342 343 342 340 343 336 341 346 348 348 348 347 347 347 346 346 345 344 343 343 343 342
340 337 336 335 350 348 347 349 348 348 348 347 347 347 345 341 343 340 339 340 341 341 343 342 342 341 344 345 348 348 349 349 349 350 349 347 346 346 345 346 344 342 343
336 338 336 335 350 349 351 351 350 349 349 345 341 341 342 342 343 340 340 341 345 345 343 337 339 343 346 346 346 347 349 348 347 346 348 348 346 346 346 347 346 345 340
335 339 338 335 350 351 351 352 351 349 347 346 343 343 342 342 340 340 341 342 345 346 346 344 346 343 346 347 347 347 347 348 347 349 348 348 348 347 348 347 347 347 345
339 338 338 342 351 349 349 350 346 344 345 345 343 342 341 341 340 340 340 342 344 347 348 347 347 347 348 348 348 348 348 348 346 346 347 347 347 346 346 347 346 346 346
342 343 349 349 344 340 354 350 341 341 343 343 342 341 340 341 342 345 346 347 347 347 347 348 348 347 346 349 349 348 348 346 347 347 345 347 347 347 346 346 346 344 345
348 351 340 338 345 353 355 352 339 338 339 340 340 340 342 342 346 346 347 347 347 348 347 347 346 348 349 349 348 347 343 344 345 346 346 347 346 346 346 346 346 345 346
348 348 348 351 351 356 353 347 342 340 338 340 342 344 346 347 346 346 347 347 347 346 347 348 348 347 348 348 347 345 344 343 343 346 347 346 345 344 345 346 343 344 346
351 349 355 345 353 356 348 337 345 345 342 347 347 346 347 347 347 346 345 344 344 346 345 347 347 345 347 348 347 346 346 345 342 341 344 345 345 345 343 344 342 343 340
351 355 357 354 354 353 351 346 350 350 350 351 349 345 343 345 345 344 344 344 344 346 347 347 347 347 348 348 347 347 346 344 345 342 340 342 341 342 342 344 343 343 343
352 354 354 356 355 351 352 352 349 352 351 346 345 344 344 344 343 344 344 344 345 345 347 346 346 346 346 345 346 347 346 345 344 344 340 341 339 338 340 339 340 340 339

GFSSE_925_thetae_057.txt.gz
Theta_e
352 350 350 352 354 350 345 344 346 346 348 342 337 336 337 341 348 348 348 351 351 351 351 351 351 351 351 351 350 349 347 347 349 347 349 349 348 346 344 347 346 345 342
349 349 349 349 348 350 345 341 340 343 345 346 345 345 348 350 352 351 352 351 351 351 350 351 352 351 351 350 349 347 348 347 347 347 346 348 349 344 341 345 346 340 346
349 349 349 348 348 351 345 340 339 343 346 342 342 342 346 349 352 352 352 352 351 349 352 352 351 351 350 348 348 348 349 350 349 349 348 347 347 347 346 345 347 342 345
348 349 348 348 349 350 345 340 342 346 349 345 342 341 346 342 344 346 349 353 352 352 352 351 351 351 349 349 349 349 350 346 347 348 345 347 348 346 343 346 347 345 342
349 348 348 348 348 349 345 342 344 348 351 349 344 346 346 343 341 344 344 348 351 351 352 351 352 351 349 348 348 343 348 348 345 341 347 346 344 344 344 345 339 344 345
348 348 348 348 347 348 345 344 344 348 347 344 346 344 343 347 348 345 344 344 349 350 350 352 352 348 350 348 345 343 343 344 347 346 344 344 343 346 346 347 344 337 338
347 348 348 348 347 347 345 346 346 346 346 346 345 350 351 352 352 352 350 345 346 345 348 352 349 344 348 342 341 342 344 346 349 348 345 342 344 343 344 347 343 345 340
347 348 347 347 347 347 347 347 347 347 350 352 352 347 347 348 345 345 350 349 349 348 345 350 352 341 342 341 341 341 344 345 348 345 345 342 343 346 346 344 343 339 333
346 346 347 349 348 350 348 347 349 351 350 352 352 352 347 346 346 350 350 350 350 349 348 346 349 346 343 340 340 340 343 345 348 348 347 344 341 342 348 343 343 345 335
354 352 347 352 355 355 351 351 349 353 353 353 353 352 350 348 349 351 347 347 348 351 351 347 346 344 345 340 338 338 341 342 345 347 347 346 341 340 347 341 336 337 333
348 345 344 348 349 353 354 352 352 353 353 352 352 351 351 351 350 350 343 345 347 347 351 348 348 345 343 343 338 336 338 342 343 347 347 346 341 337 347 338 341 335 338
348 346 344 342 343 348 352 350 351 351 352 352 350 352 351 351 350 349 344 344 352 350 348 350 348 346 346 344 342 339 337 340 339 345 346 347 344 342 341 343 341 339 337
347 347 347 341 340 344 348 348 351 350 351 350 349 350 350 347 348 348 348 347 350 351 349 346 345 346 345 344 343 342 340 337 337 339 345 347 346 344 342 339 336 339 337
348 347 343 340 345 343 346 346 349 345 348 349 351 348 348 347 347 349 348 347 345 346 345 348 346 346 344 343 344 344 343 340 339 340 346 346 346 344 344 343 338 334 339
344 336 336 336 340 344 344 344 346 345 340 344 351 349 347 346 348 343 346 345 343 347 347 347 348 346 345 347 347 346 346 347 348 343 345 346 344 346 345 347 343 340 339
346 336 336 336 340 341 343 344 339 347 345 346 348 347 346 348 347 345 342 338 347 346 345 345 343 342 342 340 340 344 346 347 348 347 347 346 346 346 344 346 344 342 342
344 342 336 337 340 345 341 346 343 346 347 343 347 344 347 347 347 343 344 347 347 344 345 342 341 342 340 341 338 343 346 346 347 347 347 347 347 346 344 345 344 343 342
339 337 337 338 337 343 346 348 347 347 346 339 342 343 341 346 346 344 345 344 342 341 341 342 343 342 340 338 339 342 345 345 347 345 346 346 345 347 345 344 344 344 343
339 337 336 337 348 348 350 350 350 349 348 346 343 341 341 345 345 345 342 340 339 341 342 343 344 342 340 342 341 344 344 344 345 345 346 345 346 346 347 346 344 344 344
336 336 335 344 351 349 348 349 348 348 347 346 345 344 344 343 344 343 341 339 340 340 343 345 345 345 345 342 343 347 347 346 346 346 345 345 346 345 345 346 346 346 345
338 336 336 349 349 347 346 341 341 343 345 345 343 341 341 342 341 340 339 339 339 341 341 345 346 347 346 346 346 347 347 346 345 346 346 346 346 346 345 344 344 345 345
338 341 337 348 347 347 345 339 340 343 343 344 342 341 341 340 340 340 340 340 340 344 346 347 347 347 346 346 346 344 340 340 343 344 344 345 346 346 344 345 344 344 344
343 342 344 345 339 350 353 338 338 339 339 340 340 340 341 342 342 344 346 346 347 347 346 347 346 346 346 345 347 344 339 341 338 340 341 343 345 344 344 344 344 344 344
346 342 338 340 347 352 351 336 338 340 340 341 343 344 344 343 344 344 345 345 346 346 346 346 346 346 347 346 345 346 344 343 337 338 341 341 342 342 341 340 341 342 342
346 346 348 350 354 352 347 338 344 344 345 346 345 345 344 345 344 343 343 343 344 344 344 344 344 344 345 345 346 345 345 345 344 338 342 340 340 341 340 339 338 341 340
349 346 348 349 354 350 343 340 347 346 347 346 343 343 345 343 342 343 344 344 344 344 345 345 345 345 345 345 345 346 345 343 341 339 340 339 338 337 339 339 340 339 339

GFSSE_925_thetae_060.txt.gz
Theta_e
350 350 348 352 353 352 352 349 349 346 348 347 346 346 341 341 342 346 349 351 351 351 350 350 351 351 351 350 349 348 348 348 350 347 348 349 347 347 347 348 346 340 340
349 350 348 352 353 352 352 351 351 343 342 342 345 344 340 341 351 352 352 351 352 351 351 350 351 351 349 350 348 346 346 350 346 347 349 348 345 343 346 344 342 343 339
348 349 350 352 352 352 351 351 351 351 349 344 343 347 351 349 352 352 351 351 352 350 351 352 351 351 349 348 347 349 347 348 346 346 348 348 342 343 346 347 341 347 343
348 349 348 350 353 353 351 351 350 351 350 351 351 351 350 351 350 352 352 351 350 352 351 351 351 349 347 348 348 349 350 350 350 347 347 346 345 348 346 347 341 344 345
348 347 348 348 352 353 350 347 350 350 350 349 347 352 349 350 351 352 350 349 351 352 351 351 351 348 348 351 350 350 346 348 349 343 347 348 344 343 346 346 346 342 345
348 348 348 349 353 354 351 345 346 348 343 343 343 350 350 347 349 349 350 351 351 352 352 352 350 350 348 349 345 345 347 348 343 344 346 345 342 345 346 344 342 346 344
347 348 349 348 352 353 353 350 350 346 343 343 346 348 351 350 349 349 349 347 352 347 351 352 349 350 349 349 346 343 344 344 346 344 343 343 344 345 346 347 339 338 344
348 349 351 352 350 351 352 352 352 349 344 344 346 346 350 351 352 351 351 349 349 347 347 351 350 351 347 342 342 343 344 346 347 346 343 340 343 342 347 346 344 345 334
350 350 352 352 352 353 352 352 352 352 352 349 349 351 351 349 349 350 351 351 350 349 347 348 349 351 348 339 340 342 344 344 347 345 345 341 341 345 347 346 345 338 332
350 351 350 351 351 353 353 351 350 351 352 352 352 351 348 351 350 351 346 346 349 350 350 345 345 348 349 345 339 341 343 344 347 346 347 344 340 340 347 346 345 345 333
352 351 349 349 351 351 350 350 350 350 352 351 352 352 351 350 350 350 348 346 350 349 350 346 344 344 347 348 341 339 341 342 344 346 346 345 342 339 347 346 345 343 336
352 351 347 347 344 346 347 349 349 348 351 350 349 350 350 346 347 348 347 344 351 351 350 350 348 344 344 346 348 344 340 341 343 346 346 346 343 339 342 341 341 342 340
349 347 346 344 343 345 343 346 348 349 350 352 350 349 351 347 347 347 347 345 350 351 349 349 348 348 345 344 345 343 338 339 340 341 344 346 346 342 343 342 340 338 342
347 345 345 346 342 342 344 345 345 348 348 347 349 350 351 351 347 346 346 345 348 348 347 346 344 345 345 345 345 343 341 337 336 336 339 346 346 344 343 344 342 337 336
347 347 346 336 338 341 342 344 343 343 346 349 344 346 347 349 347 346 347 347 346 346 343 345 347 347 345 345 344 345 345 344 342 339 340 345 345 345 344 344 345 341 338
346 342 336 336 338 340 343 342 338 340 346 348 342 346 344 344 343 346 347 347 344 343 347 347 345 345 340 340 343 346 346 346 347 347 342 344 345 345 345 345 344 344 342
346 339 336 337 339 341 343 339 340 338 342 345 344 344 344 343 344 345 343 342 339 345 345 345 343 341 341 341 340 338 341 342 346 347 346 346 346 346 346 345 344 343 342
340 343 339 337 340 341 342 343 345 344 339 342 346 345 344 343 343 344 343 339 343 345 345 345 342 341 342 341 338 340 340 344 346 346 346 346 346 345 346 344 344 343 343
339 338 337 336 337 340 341 345 348 348 347 347 345 339 343 342 341 345 344 344 345 343 341 341 341 342 342 339 340 340 341 343 344 345 345 346 345 345 345 346 345 343 343
336 339 336 336 347 349 350 349 349 349 348 347 345 343 342 342 343 344 343 343 341 340 340 342 342 343 344 342 343 341 344 345 345 345 345 345 345 346 345 345 346 346 344
336 337 335 337 350 348 346 341 340 342 344 345 344 344 343 343 343 343 343 342 340 339 339 340 344 345 345 344 343 345 345 345 345 346 346 345 345 345 346 346 344 344 344
337 336 335 342 349 347 341 339 340 343 344 344 343 342 342 341 341 341 340 339 339 339 340 341 343 346 346 345 345 343 345 341 343 342 343 344 345 345 346 345 344 344 344
338 340 335 343 348 346 344 338 339 339 340 341 342 341 341 340 340 340 341 343 343 340 341 344 346 347 346 345 346 343 343 343 340 340 341 342 344 345 344 344 344 344 344
342 342 342 344 342 345 351 336 338 339 339 340 340 342 343 343 344 344 344 344 345 345 346 346 346 346 346 344 345 346 343 341 341 343 340 341 341 342 342 342 342 342 341
343 345 339 339 340 347 351 337 338 341 343 344 344 345 345 344 344 343 344 344 344 346 346 346 345 345 345 346 345 344 345 344 341 340 343 340 340 340 340 338 339 340 338
347 345 343 346 350 352 349 341 343 342 344 342 343 342 343 343 342 343 343 344 343 343 344 344 344 345 345 345 345 345 344 343 342 341 342 340 338 336 338 339 340 338 338

GFSSE_925_thetae_063.txt.gz
Theta_e
352 352 350 347 345 345 346 346 351 350 347 342 338 344 340 343 347 349 350 349 349 352 350 347 352 351 350 350 348 348 347 348 346 347 347 349 345 347 346 346 343 338 341
352 352 349 351 349 345 345 345 348 349 348 344 344 344 340 347 348 349 350 350 352 351 352 352 351 351 351 348 348 348 350 349 348 349 348 345 348 347 348 346 337 336 347
353 352 352 351 351 348 339 342 345 348 349 346 345 344 342 346 352 352 349 350 350 351 352 351 351 351 351 348 347 347 349 346 347 346 349 340 340 345 343 340 347 340 345
354 353 354 351 350 350 346 342 344 347 349 342 342 344 348 351 349 352 351 350 351 350 351 352 352 350 349 348 350 348 348 349 348 348 345 339 342 347 348 342 347 345 347
354 354 354 352 350 352 348 346 348 351 352 350 351 349 350 350 350 352 352 352 348 349 347 351 350 348 349 349 350 350 350 350 347 347 346 345 341 345 348 341 345 346 346
354 354 353 351 353 350 351 349 349 344 348 347 352 351 348 349 348 350 347 348 347 349 352 351 349 348 351 350 350 342 348 349 344 346 346 346 341 344 343 347 345 346 339
354 354 355 352 352 351 346 350 350 346 345 347 347 350 347 350 348 346 346 345 345 348 350 351 352 348 350 348 345 346 347 346 344 344 346 345 344 345 348 341 345 346 344
353 354 356 353 352 351 351 346 348 342 344 345 346 349 352 350 347 347 346 346 344 345 350 351 350 349 350 349 344 344 344 344 347 347 345 345 344 343 346 345 340 342 346
354 355 357 355 354 352 352 353 348 342 343 345 347 348 347 352 350 347 349 348 346 345 345 350 350 350 349 349 344 343 344 345 348 347 346 345 342 341 347 345 345 344 338
354 355 356 355 356 355 353 352 352 349 344 345 346 346 345 351 351 350 348 347 349 348 344 345 350 349 349 348 342 342 344 344 350 348 347 346 340 344 347 346 345 341 337
355 355 354 350 350 352 352 354 352 352 352 347 347 352 350 351 349 350 350 347 348 348 345 344 344 344 346 346 344 342 343 347 347 348 348 346 341 338 348 346 346 345 338
354 353 350 351 350 349 347 351 354 353 353 353 353 353 352 352 351 351 349 343 349 349 350 346 344 344 344 347 346 343 345 346 346 348 348 345 344 341 345 345 341 341 339
352 351 345 348 345 347 345 343 351 351 350 352 352 352 352 351 350 351 350 348 350 350 348 349 348 348 346 349 347 347 347 346 345 346 347 346 345 343 341 343 339 340 340
352 349 346 345 343 342 341 342 342 345 347 350 351 351 349 350 350 350 350 349 349 350 351 350 349 350 349 348 349 349 347 346 345 345 346 343 346 345 342 344 343 339 339
350 349 346 345 343 339 340 343 342 344 345 349 348 348 349 351 350 349 347 349 350 351 350 350 349 348 348 347 347 347 347 345 346 344 344 341 344 344 345 343 344 344 341
350 349 346 340 337 338 341 344 344 345 345 345 348 348 347 346 345 344 343 345 349 350 349 348 350 350 348 346 346 346 347 348 348 348 346 345 345 344 345 344 345 344 343
348 346 340 336 340 338 341 342 342 338 339 343 345 345 346 347 342 342 343 344 348 348 345 347 347 345 346 345 345 345 344 346 347 350 350 348 347 345 345 345 345 344 343
349 345 339 337 339 342 341 342 345 341 339 338 340 343 343 345 339 341 340 344 345 345 348 348 347 345 344 344 344 344 344 345 346 349 350 350 349 349 347 346 345 343 343
343 343 342 338 337 337 340 343 344 346 346 346 343 342 344 344 342 342 342 343 342 345 348 347 346 345 344 345 345 343 343 344 346 347 349 350 350 349 349 348 346 344 343
340 339 338 337 337 343 346 345 347 347 347 347 346 346 340 342 342 342 343 343 344 345 343 344 344 345 344 345 346 345 346 346 349 348 348 349 349 350 349 350 346 347 346
339 340 337 336 342 348 347 346 341 343 342 345 344 344 343 343 343 342 343 343 343 342 344 345 345 345 346 345 343 346 347 347 348 348 346 346 349 349 349 350 350 348 348
341 340 336 336 347 348 347 340 341 343 342 344 343 343 342 342 343 344 343 342 342 344 344 344 345 347 347 344 343 344 350 346 346 345 344 344 348 349 349 350 350 347 349
342 340 338 335 348 347 347 339 340 340 342 343 343 342 342 342 341 341 342 343 344 343 343 344 345 346 347 344 343 346 351 347 346 344 342 342 343 345 345 345 345 344 344
343 343 345 336 347 347 348 341 341 342 342 342 344 344 341 340 341 342 343 343 345 345 345 344 345 348 347 345 347 348 346 345 347 347 343 341 341 342 342 343 343 342 343
345 345 344 344 344 342 348 349 339 342 344 341 345 347 345 344 343 340 335 342 344 345 345 344 345 344 344 345 346 346 347 344 344 345 345 342 340 340 341 340 340 342 342
346 347 346 343 342 341 349 348 337 347 344 345 344 345 346 346 345 342 341 343 343 343 344 345 345 347 348 347 347 347 346 346 346 346 346 343 340 336 338 339 339 339 340

GFSSE_925_thetae_066.txt.gz
Theta_e
351 353 350 343 346 347 349 348 348 348 345 340 335 339 343 346 350 348 349 350 350 350 344 351 350 346 352 351 351 348 347 345 346 350 350 349 349 348 349 343 340 341 345
352 353 351 343 344 349 348 349 349 348 345 337 341 344 344 349 352 350 349 351 352 352 350 352 352 352 348 348 350 349 350 347 350 351 349 348 348 347 345 339 335 338 341
352 353 353 342 348 352 350 351 348 348 347 339 346 345 348 350 352 352 350 350 350 346 349 349 351 352 350 348 348 351 349 349 348 348 342 341 347 348 345 343 334 349 347
352 352 354 343 346 348 350 350 351 349 350 347 348 346 346 352 351 350 350 350 346 351 346 350 352 352 349 348 348 350 349 349 347 342 338 338 340 348 341 348 341 344 344
353 352 355 347 344 348 345 344 345 348 351 352 348 347 353 351 351 352 351 350 351 349 348 352 351 348 348 349 349 349 349 350 341 347 342 341 340 347 340 347 345 346 345
352 353 355 351 347 348 347 343 346 349 348 352 352 351 353 352 354 354 351 351 348 350 349 351 349 349 351 351 351 350 350 345 345 342 342 340 343 344 343 343 348 348 342
352 353 354 352 351 348 349 347 344 345 352 353 352 348 350 350 353 349 347 346 345 353 347 351 350 350 351 350 347 345 346 340 345 343 343 342 343 336 343 346 347 340 338
351 352 354 353 353 349 347 351 349 343 347 352 353 352 347 351 347 349 346 346 345 346 350 350 351 349 350 346 345 344 345 344 345 343 343 343 345 340 349 339 343 346 346
352 352 355 354 355 354 352 350 345 343 343 348 351 348 349 348 349 351 347 345 345 345 351 351 350 350 350 350 345 344 344 344 348 345 343 342 339 337 348 341 336 338 347
352 352 355 354 354 354 354 350 343 343 344 344 345 345 348 352 352 348 348 345 347 346 346 351 350 352 345 349 345 344 343 344 347 344 346 347 343 337 346 347 344 344 338
353 353 354 354 351 352 353 353 349 347 345 347 345 345 346 349 349 350 350 349 346 347 345 347 349 351 350 347 346 343 343 347 346 345 345 346 342 338 347 346 342 345 338
354 354 353 353 353 350 352 352 353 352 351 349 350 351 351 350 350 350 351 344 347 351 347 346 349 346 345 345 344 341 345 345 345 345 345 348 344 341 344 347 344 342 345
355 354 353 353 347 345 343 349 351 353 352 353 352 352 353 351 351 348 349 346 347 346 347 346 346 347 347 346 346 344 343 346 345 346 346 346 344 344 343 345 344 340 343
355 354 353 352 344 343 347 344 348 349 350 351 351 352 352 352 350 350 349 348 350 351 349 350 349 350 349 349 347 346 345 345 345 345 347 347 345 345 345 343 344 342 339
357 354 354 352 350 345 341 345 346 347 348 349 351 352 351 351 350 350 349 348 349 350 350 350 350 349 349 349 350 348 346 344 345 346 345 346 344 344 344 345 344 344 344
356 355 354 352 348 344 344 346 347 347 349 350 349 349 350 349 350 349 349 348 350 350 349 348 349 350 350 349 348 349 348 346 344 345 344 344 344 342 343 344 344 344 344
356 355 354 348 346 346 346 347 348 347 347 347 346 351 351 351 351 349 348 348 348 350 350 349 351 351 349 347 348 349 348 348 346 347 348 347 346 345 344 344 344 345 344
355 352 349 344 347 348 348 347 347 347 345 345 346 350 346 343 345 344 342 345 347 349 349 349 351 348 347 346 347 347 346 347 347 349 350 350 348 347 349 347 344 345 344
352 352 349 346 346 346 347 348 349 350 348 348 347 346 343 342 342 344 339 338 348 348 348 348 349 349 347 347 346 346 346 346 346 347 348 349 350 350 349 350 348 346 344
347 348 349 346 345 345 350 349 350 350 347 348 348 348 348 343 343 343 346 342 342 347 347 348 348 347 346 345 345 345 347 347 346 346 348 350 350 350 351 350 350 350 346
346 347 347 345 345 351 352 350 347 345 347 346 345 346 349 349 347 341 342 343 343 344 345 345 344 346 345 345 348 346 343 349 349 350 351 351 349 347 349 350 350 350 348
346 347 347 346 351 353 351 347 346 347 347 349 346 347 348 348 347 342 341 342 343 344 346 346 347 345 345 348 347 344 348 348 347 349 349 349 349 350 350 350 351 351 349
347 346 345 345 352 353 350 346 347 346 347 347 348 346 344 343 346 345 343 343 342 341 345 348 347 347 346 349 344 343 347 352 348 348 347 346 346 347 348 350 350 351 352
348 345 345 345 351 352 351 345 347 347 345 346 348 347 345 344 343 341 341 345 348 348 348 346 346 347 347 348 346 343 342 345 351 350 346 345 344 345 348 346 346 348 348
349 347 348 346 349 352 351 348 346 348 347 345 347 348 348 347 342 343 342 344 343 346 349 349 348 346 346 346 344 347 348 347 346 348 351 346 341 341 342 343 346 346 346
349 350 349 349 350 351 350 353 350 347 345 343 346 345 345 347 346 344 338 335 338 342 345 347 344 344 344 342 345 348 347 347 347 347 350 346 345 336 339 340 340 342 344

GFSSE_925_thetae_069.txt.gz
Theta_e
352 351 342 347 350 351 351 349 350 348 345 340 338 342 348 351 349 351 348 350 351 349 352 351 347 348 352 351 351 348 346 348 351 351 351 349 349 348 340 346 347 343 342
353 351 340 346 349 350 351 349 350 349 345 341 343 348 348 352 351 352 349 352 347 350 350 353 351 347 352 350 350 350 348 349 350 350 342 347 346 345 339 343 338 338 344
353 353 347 343 348 350 352 351 351 349 348 339 345 349 351 352 351 349 352 352 352 351 351 352 352 352 349 350 350 352 350 348 342 339 348 348 347 346 340 338 344 344 348
352 353 350 342 345 347 349 350 354 352 345 346 347 347 351 352 353 353 354 352 353 350 351 352 350 352 349 348 352 349 350 343 338 341 345 339 343 341 348 337 346 348 348
350 351 354 340 344 348 347 348 351 354 353 352 350 350 351 348 351 352 352 352 352 352 352 352 351 350 349 350 351 350 349 340 344 348 340 343 342 341 346 346 341 342 346
349 353 354 340 351 353 345 344 349 352 351 352 351 351 351 351 350 352 353 352 352 349 353 352 349 349 349 351 350 348 343 342 347 344 343 343 347 342 335 347 348 346 344
354 357 355 346 351 353 350 352 351 347 351 348 349 348 347 349 349 350 351 353 353 352 349 351 349 351 351 351 348 349 336 343 349 341 341 341 348 333 345 346 347 343 337
349 355 356 352 348 351 353 352 352 351 353 347 346 347 349 350 348 352 352 351 352 352 349 352 349 352 352 351 347 343 335 344 345 341 342 345 342 335 344 337 347 344 341
350 355 355 355 355 353 353 353 353 351 353 350 346 346 351 351 347 347 345 349 350 347 351 350 351 351 350 346 345 343 343 344 349 346 341 345 332 333 348 341 331 340 348
351 355 355 354 353 354 352 352 354 353 353 354 349 345 351 352 353 352 347 348 350 349 352 351 352 351 351 348 344 344 342 340 349 347 342 345 344 331 346 343 338 344 337
354 355 355 354 346 348 353 352 347 352 351 351 351 350 346 350 351 351 348 347 347 349 351 352 351 352 350 347 344 343 341 346 346 346 345 345 340 337 336 346 338 342 334
355 354 355 353 349 345 349 353 352 351 349 349 349 350 349 350 350 350 350 347 346 352 351 351 352 352 349 345 346 342 345 346 347 346 350 347 343 341 339 347 343 340 344
356 356 356 356 348 344 347 348 350 351 351 350 350 350 351 351 351 350 350 350 347 348 350 348 349 348 346 346 346 347 342 344 345 344 349 345 342 343 342 344 345 342 340
356 357 355 357 349 344 341 346 348 351 353 352 353 354 353 353 350 350 350 350 348 352 349 351 350 348 348 348 349 348 345 345 345 345 347 347 345 345 345 344 344 344 340
356 356 356 355 352 350 347 345 348 349 350 351 351 353 353 351 352 350 349 348 349 350 351 350 350 352 350 349 349 349 346 346 345 346 346 347 346 344 344 344 345 344 343
357 356 357 354 354 351 348 348 348 351 349 347 349 351 352 352 351 349 349 347 348 350 350 350 350 351 351 350 349 349 349 348 345 345 345 348 346 343 343 343 344 345 344
357 356 355 355 351 350 349 348 349 347 350 351 347 348 351 350 350 349 348 347 347 349 352 350 349 352 351 350 348 350 347 347 347 347 346 345 348 345 345 342 343 344 344
357 356 355 350 351 350 350 350 350 348 348 347 347 346 350 350 351 350 349 347 347 350 350 350 350 351 350 349 347 347 348 347 348 347 347 348 349 350 348 346 346 343 343
358 355 353 349 351 352 351 350 350 351 350 347 347 348 350 351 349 351 347 346 347 349 350 350 350 350 350 348 346 346 346 346 346 346 347 349 348 350 350 349 349 348 346
353 354 353 351 351 348 350 352 351 352 352 352 351 351 349 349 346 342 343 345 338 345 346 349 350 348 349 347 346 346 347 347 347 348 347 348 348 353 348 343 350 350 349
351 351 354 350 350 351 352 351 349 346 349 349 349 350 351 349 347 346 343 348 349 345 347 351 352 351 348 346 346 346 346 347 345 347 349 351 352 353 352 349 349 350 353
351 351 352 351 351 354 352 348 347 349 348 350 351 350 349 350 350 350 349 344 346 344 343 346 345 346 346 346 348 350 347 347 345 349 349 350 351 351 349 351 351 352 353
352 351 351 351 354 354 351 348 349 350 349 349 351 350 349 349 349 348 346 343 341 343 343 344 348 349 349 348 351 348 349 352 345 347 350 349 348 348 349 350 351 351 353
353 352 350 350 354 354 353 345 350 350 349 350 349 349 348 347 348 349 349 344 343 342 346 343 344 349 349 349 351 348 346 343 346 348 348 348 347 348 348 348 348 349 349
353 352 350 350 351 354 353 348 348 350 349 346 346 350 350 348 347 343 341 341 342 344 349 349 350 348 349 349 350 346 343 343 342 347 348 348 345 343 343 345 346 346 347
353 353 352 351 351 354 354 352 351 351 349 347 347 348 348 348 347 344 339 332 336 336 341 344 345 346 347 346 344 344 342 349 349 348 352 349 346 338 340 339 341 343 344

GFSSE_925_thetae_072.txt.gz
Theta_e
350 352 347 350 350 348 346 349 350 348 347 342 343 343 346 347 349 353 347 350 350 351 351 350 346 352 351 351 348 346 350 345 345 346 350 347 346 348 347 346 342 341 346
350 352 346 351 352 351 348 349 349 347 345 340 339 342 348 348 352 350 349 348 351 351 353 351 350 352 350 349 349 347 347 349 345 350 347 346 347 343 346 341 343 336 340
350 351 352 350 351 350 348 349 348 349 344 342 345 345 351 350 352 351 352 353 353 352 353 353 351 351 350 350 351 349 346 340 348 346 349 345 339 342 346 343 336 349 347
352 347 351 349 353 350 348 350 349 349 346 347 352 351 351 350 351 352 353 352 351 352 352 352 352 350 348 350 350 346 341 338 342 344 348 344 337 344 340 345 347 347 338
353 349 349 342 351 354 353 351 349 351 348 352 353 351 346 348 352 354 353 352 353 352 353 353 352 348 348 351 349 342 339 341 344 348 346 345 338 340 339 338 339 345 348
352 354 343 336 346 354 354 354 353 352 349 347 352 350 348 347 352 354 350 352 352 353 353 351 349 349 350 350 348 339 336 341 346 346 343 345 339 333 348 350 350 346 338
341 356 344 335 339 349 352 353 354 352 352 349 346 349 350 349 350 347 351 353 351 352 352 350 349 351 351 351 343 338 339 345 347 344 344 344 341 327 345 346 347 340 337
357 356 353 340 342 345 349 353 353 353 351 352 346 346 347 349 351 349 351 352 351 350 352 351 351 351 351 347 344 334 340 343 349 344 343 346 333 329 333 345 343 333 331
356 357 355 352 354 353 354 350 350 352 354 353 349 344 343 351 352 352 350 351 347 348 352 352 350 353 351 346 335 334 337 341 345 349 344 346 333 328 338 330 344 345 346
355 357 354 354 355 352 352 351 349 349 351 353 350 351 349 346 350 349 345 347 347 347 352 351 351 351 349 344 343 342 341 341 344 348 347 345 340 330 341 337 330 335 347
355 351 335 333 350 351 351 350 348 351 352 353 352 352 352 351 349 350 346 348 349 350 353 351 353 350 350 350 344 342 339 342 347 347 346 344 339 333 331 337 337 343 334
356 349 338 340 342 341 348 350 351 350 350 350 350 350 349 351 349 349 350 348 348 350 351 352 351 351 347 348 342 342 340 344 346 348 347 344 339 338 335 339 338 336 338
355 355 349 347 345 343 342 349 350 349 350 349 349 349 350 351 350 349 350 347 347 350 349 347 351 351 349 348 347 345 343 344 345 347 348 346 341 340 342 341 340 338 336
357 357 357 351 346 342 349 346 347 347 348 349 349 350 350 349 350 350 349 350 346 349 350 349 351 349 348 347 348 347 347 345 344 345 349 346 345 343 343 344 343 343 340
355 357 357 356 352 348 343 345 348 348 348 350 347 351 350 349 349 350 349 351 349 351 349 349 349 350 349 349 350 350 350 349 346 346 347 346 346 345 343 343 343 344 343
354 359 357 356 353 351 348 347 345 348 349 349 351 351 349 349 350 350 349 349 347 348 350 349 349 350 349 348 348 348 347 347 347 345 347 347 347 346 343 342 342 343 344
356 359 358 353 353 351 349 349 347 351 350 351 351 348 348 348 350 350 347 349 349 350 351 350 350 349 348 351 349 350 350 348 347 348 346 349 348 347 344 344 342 342 343
356 356 358 355 352 351 349 349 350 346 345 348 349 349 349 351 350 348 351 350 347 350 348 351 349 350 351 350 349 348 348 347 348 347 347 346 347 349 348 348 344 342 343
358 356 355 352 353 352 351 351 351 351 349 349 348 346 346 344 347 349 349 349 348 350 350 349 349 350 346 347 349 346 346 347 346 346 347 347 346 347 348 349 347 345 345
359 356 354 352 353 353 352 351 350 350 350 350 350 350 347 349 351 348 350 347 346 346 348 349 348 350 349 350 349 347 346 346 347 346 346 347 349 351 350 350 348 345 343
355 357 355 353 352 350 352 353 353 352 351 351 350 348 347 347 350 346 343 345 342 338 337 344 348 347 348 349 346 346 348 349 347 347 345 350 348 348 339 351 348 347 349
354 355 356 354 353 351 353 351 349 348 348 349 351 350 350 347 347 348 347 343 347 349 345 343 346 350 349 346 346 347 351 346 347 345 348 349 348 349 348 350 348 350 350
354 356 355 353 353 354 355 350 347 347 349 351 351 352 349 349 347 347 348 349 346 347 343 341 342 343 343 343 347 346 350 349 348 344 345 348 348 346 348 348 349 348 348
356 354 355 354 353 355 354 349 349 351 349 348 349 349 349 348 348 346 347 346 344 341 342 342 342 343 344 346 346 346 347 343 348 346 343 338 347 347 347 347 347 346 346
355 354 353 353 355 356 354 350 349 349 348 346 347 348 350 349 348 348 346 347 344 343 344 345 346 346 345 346 347 347 348 347 342 344 345 343 344 343 342 343 344 344 345
355 355 353 353 352 356 355 350 351 351 350 348 348 346 348 349 348 345 342 341 342 342 342 340 341 343 345 347 346 347 344 344 345 344 346 347 346 340 338 339 340 343 345

GFSSE_925_thetae_075.txt.gz
Theta_e
351 349 348 346 344 345 346 347 344 342 341 341 340 340 339 344 347 344 347 347 350 351 351 352 352 351 351 347 343 349 347 347 349 344 344 346 349 347 348 346 343 347 343
346 350 349 347 345 345 348 348 347 341 342 340 344 344 343 347 349 349 351 351 350 352 351 350 351 350 349 347 339 341 346 349 349 351 346 346 345 345 345 344 337 345 348
349 349 350 350 347 346 348 349 348 344 340 342 345 348 345 346 351 350 351 351 352 352 352 351 352 350 350 346 337 345 347 344 348 345 337 335 341 347 343 344 347 342 347
345 348 348 351 351 350 349 350 349 345 339 344 345 347 346 348 349 352 352 350 351 350 352 352 351 349 349 344 340 340 341 346 348 349 341 335 341 345 348 348 346 343 343
349 344 345 348 348 349 350 351 349 346 340 346 345 347 348 348 349 352 352 352 351 350 352 352 350 347 351 340 339 339 342 343 344 346 348 336 331 331 342 347 347 345 343
349 339 339 345 346 347 352 352 351 347 342 347 347 346 348 350 353 352 350 350 351 352 352 351 348 349 349 341 338 339 342 344 348 348 345 336 329 333 346 349 348 341 340
351 342 341 339 344 348 351 351 351 349 348 350 348 343 346 347 352 351 350 352 348 351 353 349 348 351 347 340 338 337 340 344 348 347 343 338 330 343 347 349 344 340 337
340 344 347 347 342 345 349 350 351 352 353 352 353 346 344 345 348 349 351 353 348 350 349 349 352 351 350 340 337 337 340 344 349 347 343 344 332 331 340 344 339 334 342
349 343 350 352 349 350 350 344 346 351 353 351 349 347 345 346 350 350 349 348 347 345 351 350 348 352 350 334 332 333 339 342 346 349 346 342 332 328 328 338 336 340 332
341 333 345 347 347 347 349 348 348 349 351 351 350 347 349 344 348 350 347 347 348 347 352 352 349 350 344 331 332 333 337 339 345 348 349 343 328 334 332 325 335 344 345
336 332 337 347 348 349 347 347 347 346 350 353 350 352 351 346 347 348 343 344 346 347 352 351 350 346 342 339 342 341 340 340 346 346 347 341 338 332 336 330 329 332 344
332 334 336 342 350 352 352 350 346 345 349 350 349 348 347 345 350 350 347 349 346 349 352 351 351 349 340 341 341 340 339 339 346 347 346 342 337 332 331 330 331 336 332
343 338 338 338 341 343 348 351 350 347 348 346 348 350 348 349 350 349 349 348 350 349 349 348 347 347 345 341 344 341 339 337 345 347 348 345 342 338 338 336 331 332 334
347 347 345 346 342 342 342 348 350 350 350 350 350 350 349 350 350 350 348 348 347 344 346 347 345 344 342 346 348 348 346 345 345 347 348 345 343 341 342 342 342 338 333
353 351 352 349 345 343 346 345 349 347 348 349 349 348 349 349 349 350 350 348 348 347 348 351 349 349 349 348 348 348 347 347 349 346 346 347 346 345 344 343 343 342 341
358 356 355 353 350 345 344 345 345 348 346 346 348 347 349 348 347 349 348 349 350 349 350 348 349 348 350 348 348 347 348 349 347 347 348 346 346 346 346 343 342 342 342
358 357 355 353 351 349 349 347 345 347 348 348 350 350 348 347 349 349 350 348 349 348 349 349 349 349 349 347 347 348 348 348 346 346 347 347 347 347 347 344 344 343 342
358 357 356 353 352 351 347 349 348 347 349 348 350 349 343 347 348 349 349 350 349 349 349 349 349 350 348 348 349 348 349 346 346 346 348 347 347 348 348 347 346 345 342
359 358 355 353 352 348 348 349 348 347 346 347 347 345 345 348 349 349 348 349 345 348 348 347 349 349 349 348 349 347 348 348 348 346 346 347 347 348 347 347 348 345 344
358 358 356 352 352 350 348 350 350 352 350 350 351 349 348 346 346 349 347 348 345 347 348 348 348 348 348 346 347 348 348 345 345 347 347 346 347 348 347 348 348 347 345
356 355 351 352 353 353 351 351 351 350 349 348 348 348 348 347 347 345 342 345 346 343 344 347 347 347 349 349 348 347 346 347 345 345 346 346 346 347 346 343 343 347 346
357 355 353 352 352 352 348 350 352 353 351 351 351 349 349 348 347 347 345 345 342 340 339 338 340 347 347 346 345 345 343 343 345 346 345 346 347 348 347 346 348 348 347
357 356 354 354 352 347 351 351 350 346 348 348 347 349 349 348 348 346 344 345 343 343 344 343 341 342 342 342 345 344 342 341 342 345 344 345 346 346 347 347 348 348 347
353 356 355 354 352 350 354 354 347 342 346 347 349 349 348 347 347 346 346 344 345 345 345 342 341 341 343 344 343 344 344 343 339 340 342 336 343 342 342 345 345 345 345
354 355 354 353 352 350 355 349 347 349 346 346 348 348 350 348 347 346 346 345 345 346 344 342 342 342 344 344 342 343 343 346 343 340 339 339 342 342 342 343 343 343 344
355 355 355 353 352 355 354 353 351 349 348 347 347 346 348 348 346 347 344 344 344 343 342 343 343 342 344 346 346 346 346 344 342 341 342 341 341 340 340 339 340 343 344

GFSSE_925_thetae_078.txt.gz
Theta_e
352 350 347 347 347 352 346 337 335 334 337 338 339 341 349 349 349 349 349 351 350 352 351 351 351 351 349 349 352 348 348 349 349 349 350 347 348 350 347 346 345 346 348
348 348 347 344 347 353 347 339 336 336 337 339 339 342 351 350 347 347 349 352 351 352 350 352 351 349 346 348 351 350 348 348 348 350 348 349 347 347 344 344 347 342 347
348 348 346 344 347 354 350 345 338 335 337 340 342 340 352 348 349 346 348 352 352 351 351 352 349 348 347 345 351 350 350 349 347 346 341 343 346 348 343 341 347 348 347
349 348 347 345 345 352 352 349 343 337 340 345 347 343 346 347 349 352 352 350 352 352 351 353 350 349 349 349 350 344 346 347 346 342 335 341 345 345 347 348 345 347 348
351 349 347 346 346 347 350 351 347 339 343 347 351 348 351 351 351 352 352 351 351 352 352 352 348 348 347 350 345 344 345 345 346 340 337 337 343 348 348 344 341 347 346
350 351 348 347 347 348 348 349 350 342 347 350 351 348 349 347 350 352 353 351 351 352 351 350 347 350 349 345 342 340 343 344 346 348 348 333 331 341 347 347 348 347 347
347 352 352 348 346 348 350 349 351 345 348 351 351 349 346 348 352 351 352 351 351 351 350 348 348 349 344 343 342 342 344 347 349 346 342 331 332 342 349 348 345 338 339
345 344 348 351 350 350 350 349 347 351 351 351 350 350 346 345 349 348 352 351 350 353 346 348 350 342 342 340 339 341 343 348 348 344 336 337 337 345 349 344 338 339 345
344 342 342 345 350 354 354 353 350 349 350 351 351 348 348 347 345 346 349 350 349 350 349 349 352 344 341 338 338 338 340 344 347 346 340 336 333 339 345 341 329 334 344
346 346 344 344 348 348 352 350 348 347 349 352 351 350 348 352 351 349 345 345 347 346 351 347 351 349 342 333 334 334 337 343 344 348 347 338 332 339 346 337 332 334 335
336 338 347 345 348 344 347 350 351 352 352 349 351 351 351 350 350 350 344 345 346 348 351 352 346 348 339 331 333 335 339 340 346 346 347 342 333 335 339 332 332 342 341
337 335 348 347 347 344 345 348 348 350 349 348 347 350 348 346 345 346 344 347 350 349 350 350 348 340 338 336 340 341 339 340 345 346 347 342 338 334 334 328 327 329 340
333 332 347 349 351 351 350 348 347 349 349 349 345 344 345 346 350 350 349 350 352 351 351 349 346 350 340 338 339 339 339 338 341 345 346 342 338 336 331 331 330 330 329
333 337 335 346 349 352 352 351 348 345 346 346 344 348 349 347 349 350 349 348 348 348 348 345 345 343 343 339 340 346 347 346 342 348 347 344 343 339 339 337 334 331 330
334 339 338 338 342 341 344 349 351 348 349 349 348 349 349 348 350 349 349 348 347 346 345 346 345 346 344 343 346 347 348 347 346 348 347 346 345 343 344 342 342 340 336
345 344 343 346 342 342 342 345 347 349 349 349 349 349 348 348 348 349 349 349 347 347 345 347 347 348 348 348 348 349 348 347 348 348 347 347 345 345 345 345 343 343 343
350 350 351 350 346 344 343 345 345 347 346 347 347 347 348 348 348 348 348 348 348 348 348 348 348 348 348 347 348 347 346 347 348 347 347 347 346 346 346 346 344 344 343
355 354 353 352 350 347 348 344 346 345 347 347 347 349 348 348 348 347 349 349 348 347 349 349 349 348 348 349 347 347 348 348 348 348 348 346 346 346 347 347 346 345 345
356 356 354 353 351 350 348 349 349 345 347 348 349 349 348 348 347 348 348 348 348 347 348 348 347 349 347 347 347 347 347 348 348 347 347 347 348 347 348 347 347 346 346
357 356 355 352 351 348 346 347 348 347 345 347 348 347 347 344 347 346 346 347 347 343 347 348 346 348 348 346 347 346 347 347 347 346 346 347 346 347 347 347 347 347 347
357 357 354 352 351 348 347 350 349 351 350 348 349 350 349 348 347 347 347 347 347 342 339 346 346 347 347 347 346 346 345 345 346 345 345 346 346 345 346 347 347 346 341
357 356 355 352 351 349 347 348 348 349 349 349 348 348 349 348 348 347 346 343 342 344 344 343 344 345 346 345 345 343 341 342 344 345 344 345 344 344 347 346 343 344 345
354 354 352 352 351 350 351 350 351 352 350 350 351 350 348 347 347 348 347 346 343 344 343 339 338 341 344 345 345 343 341 340 339 344 341 344 345 346 346 345 346 346 347
355 353 352 352 351 351 350 349 351 348 347 347 346 346 345 346 347 346 346 346 342 343 341 342 343 341 341 341 342 343 344 342 338 339 341 340 344 341 339 340 340 344 345
356 355 353 352 352 351 347 353 352 347 342 346 346 347 346 347 347 346 345 345 344 343 344 343 343 341 342 342 342 343 344 344 342 340 340 337 342 342 340 340 342 343 343
356 355 354 353 352 351 349 354 353 345 347 346 347 346 345 347 347 346 345 345 344 342 341 345 342 343 344 344 345 344 342 343 343 341 340 339 340 339 339 340 339 342 343

GFSSE_925_thetae_081.txt.gz
Theta_e
350 351 352 354 353 352 351 349 350 351 351 351 350 351 352 352 351 351 351 351 351 351 351 351 351 350 350 351 351 351 348 349 348 348 350 347 348 348 348 347 347 347 348
348 351 350 351 353 353 351 347 343 344 344 348 351 351 351 352 352 352 352 352 352 351 351 352 350 349 350 351 348 347 349 349 349 346 345 348 348 345 345 345 346 348 348
349 350 349 347 353 354 351 341 339 340 343 342 345 352 351 351 351 352 352 352 353 351 352 350 349 346 349 351 348 348 347 350 349 349 348 347 346 344 345 348 343 347 348
350 352 348 346 348 352 350 344 341 339 342 344 346 351 350 351 351 352 352 352 351 351 351 349 348 346 347 350 348 349 350 348 347 346 343 347 347 342 343 348 348 346 344
351 353 347 347 351 352 347 345 344 346 349 349 349 350 349 350 351 351 352 352 351 352 352 349 349 349 349 349 346 349 346 347 343 336 343 342 343 348 347 345 347 348 346
350 349 349 347 354 355 349 348 345 346 350 349 350 351 352 349 351 352 351 351 351 351 352 348 347 350 350 344 344 344 343 345 346 340 336 343 345 348 345 342 348 347 338
349 350 353 347 350 355 353 353 349 346 351 352 351 352 350 350 350 351 351 351 351 351 351 346 348 350 349 343 342 342 344 347 347 348 348 337 344 346 345 346 347 346 343
348 349 351 353 349 350 353 352 352 350 351 352 352 351 350 352 351 351 351 351 350 351 348 347 349 349 350 344 342 343 346 348 345 346 343 331 344 347 349 346 336 337 334
348 350 349 351 354 354 354 354 352 352 353 352 352 349 347 349 349 350 351 349 349 351 347 348 350 347 347 342 340 342 343 346 345 343 335 337 342 348 351 341 336 343 345
346 348 346 345 352 354 352 353 352 352 353 352 352 351 347 349 347 351 348 348 350 350 348 350 350 347 341 340 339 339 341 345 346 343 341 337 339 346 351 347 341 337 345
350 347 344 342 348 350 352 352 351 353 352 352 352 352 351 351 348 350 346 345 350 348 351 347 349 349 344 337 335 335 340 342 346 347 347 343 335 336 347 343 337 331 341
348 347 345 344 342 347 349 349 347 350 352 352 349 348 347 348 349 348 345 344 351 351 352 350 343 347 343 335 334 337 338 341 344 345 346 346 336 333 346 341 340 342 338
336 347 346 345 345 345 347 348 350 350 352 352 350 348 343 344 344 347 346 349 351 351 351 348 349 342 336 336 339 340 340 339 342 344 347 346 339 339 336 337 334 339 346
337 338 347 346 348 347 346 347 351 349 351 349 348 346 347 344 343 349 348 348 349 350 348 350 342 347 344 338 338 339 342 344 339 344 347 346 340 340 337 332 331 333 335
336 335 343 347 348 350 350 348 349 348 348 347 347 345 345 346 347 349 348 348 348 348 346 345 345 343 342 341 338 342 347 346 345 345 347 345 342 342 342 341 338 335 334
338 335 338 344 349 351 351 351 350 350 344 345 345 346 348 348 347 349 348 348 348 347 345 344 344 346 346 343 341 346 347 348 347 346 347 346 345 344 343 344 344 342 341
338 338 338 337 339 346 343 343 347 349 349 349 349 348 349 348 348 348 349 349 348 347 347 344 346 348 348 348 347 347 345 346 346 348 348 347 345 346 345 345 345 344 343
339 341 342 341 341 341 341 342 344 346 347 348 349 348 348 348 348 348 348 347 348 348 348 348 347 347 347 347 347 347 346 347 347 347 347 347 346 346 346 345 346 346 344
347 346 345 347 348 345 343 344 344 344 346 347 346 346 348 348 347 348 347 347 348 347 348 348 348 349 348 347 347 347 346 347 348 347 348 347 347 347 346 346 346 346 345
351 349 351 351 350 347 347 349 347 347 344 346 348 348 349 348 349 348 347 347 346 346 346 347 348 348 348 347 346 346 346 346 347 347 348 348 348 347 347 347 347 347 347
354 353 353 352 351 350 348 347 347 348 347 347 348 348 348 346 346 345 346 346 347 346 344 345 345 346 346 347 347 345 345 344 344 345 344 345 345 345 346 345 346 346 347
355 355 354 353 351 350 344 347 347 348 348 345 345 346 348 348 348 347 347 346 346 346 342 342 346 345 346 344 344 342 339 341 343 344 344 344 345 345 344 344 346 346 346
355 354 354 353 351 350 344 346 348 349 349 350 349 349 348 349 348 348 347 347 346 344 343 342 343 344 344 344 345 342 338 340 337 344 342 344 344 344 344 345 345 346 344
355 354 354 353 351 350 347 346 348 350 350 350 349 347 348 346 347 346 346 348 347 345 342 343 341 339 341 343 343 344 342 340 338 339 342 342 345 344 343 340 340 341 344
354 353 353 353 351 350 349 348 349 350 349 347 346 346 346 345 346 345 346 345 347 346 343 340 342 343 342 341 341 341 342 343 341 336 337 337 341 342 340 339 341 343 343
353 351 352 351 351 350 350 349 347 349 348 343 346 346 345 345 346 346 346 345 346 344 342 342 341 343 341 341 341 341 342 342 342 340 338 338 338 338 339 337 339 340 342

GFSSE_925_thetae_084.txt.gz
Theta_e
350 351 351 354 354 352 352 352 349 349 349 342 342 344 345 351 351 349 349 352 351 351 351 351 351 350 350 351 350 350 350 350 349 348 349 349 349 349 347 347 345 342 344
349 352 350 353 353 352 352 351 352 348 351 349 347 348 349 350 351 351 350 351 351 351 352 351 350 351 351 351 350 348 350 348 349 349 346 347 347 347 347 348 347 348 347
350 352 351 352 352 352 352 352 351 351 351 351 348 351 350 349 352 352 351 352 352 352 352 349 348 350 350 348 347 349 349 350 346 347 349 346 344 345 344 347 348 348 347
351 350 351 352 352 352 350 350 351 351 350 351 352 350 349 349 352 351 352 353 351 350 349 348 346 349 350 347 349 347 351 350 350 348 346 343 343 345 350 341 347 347 339
352 349 350 353 353 352 349 349 350 351 351 350 351 351 351 351 352 352 351 352 351 350 351 347 346 348 350 349 350 348 348 347 346 343 346 345 341 342 348 348 346 344 343
352 349 352 352 355 355 350 347 348 351 352 350 350 350 350 351 352 352 352 351 352 351 350 348 349 349 348 349 349 349 347 344 337 336 342 344 346 349 345 348 347 347 346
351 347 350 353 354 356 354 350 348 350 351 351 351 352 351 351 351 351 351 350 351 348 349 347 350 350 345 343 343 342 344 349 345 343 337 342 346 344 344 345 348 343 338
349 350 351 352 353 354 355 352 348 350 352 352 351 352 350 352 351 348 350 350 350 350 348 348 351 349 348 341 341 344 347 347 347 347 346 340 347 344 344 346 346 346 340
349 351 352 353 354 356 355 356 350 351 353 352 351 351 351 352 346 351 351 350 351 346 348 350 350 350 346 341 342 345 346 345 343 344 337 331 340 346 348 347 344 341 337
349 348 347 349 353 353 353 353 352 351 353 353 352 351 352 353 351 352 347 348 349 348 346 349 350 349 343 341 341 341 344 344 344 342 336 336 340 345 348 347 343 345 345
352 350 345 347 348 351 353 353 351 353 353 353 352 352 351 351 351 351 345 348 350 350 347 350 347 347 341 339 340 339 342 344 345 344 343 340 339 341 348 349 345 344 347
349 349 347 342 344 348 351 352 351 352 352 351 351 351 348 348 350 349 344 345 351 350 351 348 349 348 341 337 336 337 340 341 345 345 345 346 341 337 347 345 341 340 343
344 347 347 344 346 346 349 353 353 352 351 351 350 350 346 345 346 346 345 347 350 351 351 348 345 347 342 335 334 338 338 339 341 344 346 346 345 336 341 344 338 340 343
344 344 347 345 344 347 346 349 347 349 352 351 349 347 346 344 343 343 344 343 348 349 348 348 347 344 340 338 338 339 339 340 339 340 346 346 345 339 340 338 336 335 344
341 341 346 344 344 343 343 344 349 349 349 348 348 348 347 345 343 344 347 347 347 349 348 349 348 343 347 344 339 338 339 344 345 341 345 346 345 341 341 342 336 333 333
340 335 346 344 345 345 345 345 345 348 346 348 346 347 345 345 344 345 349 348 348 347 347 345 345 345 343 342 341 338 342 346 346 346 345 346 345 343 342 343 343 341 339
341 336 339 345 345 346 347 348 347 347 347 347 346 345 344 347 348 347 348 348 348 347 347 346 344 345 346 347 346 341 344 346 346 346 346 347 346 344 343 343 344 344 343
341 335 337 339 344 347 349 350 350 350 350 348 345 346 346 347 348 348 347 348 348 348 348 347 345 345 346 347 347 346 346 346 346 346 347 346 346 346 345 345 344 345 345
347 339 338 339 339 344 347 346 342 345 347 348 348 349 348 348 348 348 347 347 347 347 348 347 347 347 347 346 346 346 345 346 346 347 347 347 346 346 346 346 346 345 345
347 343 340 340 339 339 342 341 342 343 345 345 347 346 346 347 347 348 347 348 347 346 346 347 347 347 347 347 347 346 346 346 345 346 347 347 347 347 347 347 347 346 346
347 344 342 342 342 346 343 343 345 344 344 344 345 347 347 348 347 348 347 347 346 347 345 345 345 345 346 345 346 345 346 345 344 344 344 345 346 346 346 346 346 346 346
350 348 347 346 348 348 346 345 348 347 347 347 343 347 347 348 347 346 346 346 345 346 346 344 344 345 345 345 345 341 344 341 343 343 343 344 343 344 344 345 345 344 344
353 351 350 350 351 350 348 347 346 346 348 347 344 344 345 346 348 348 347 346 346 346 345 342 341 343 345 344 343 342 342 346 338 341 342 343 344 344 344 343 343 344 345
354 353 352 352 352 350 349 345 347 347 348 348 348 347 347 347 347 348 346 347 347 347 345 344 341 340 343 343 342 343 341 340 344 344 342 341 343 344 344 344 344 342 342
354 354 353 353 352 350 349 344 347 347 348 348 348 348 347 345 344 344 346 345 345 346 346 345 343 342 341 341 341 341 343 342 340 338 343 340 339 343 343 342 338 340 342
354 353 353 352 352 351 349 346 345 346 348 347 344 344 345 345 343 345 345 344 345 345 346 344 342 340 341 341 341 340 340 341 341 340 340 339 339 339 341 341 339 337 338

GFSSE_925_thetae_087.txt.gz
Theta_e
350 352 351 352 353 351 346 351 349 345 346 347 346 344 343 341 344 348 347 351 350 352 351 351 345 350 351 351 351 351 351 351 350 349 349 349 350 347 343 344 341 342 345
351 352 351 351 352 352 352 351 348 345 344 345 345 344 344 347 350 347 348 350 352 351 352 351 351 351 351 351 350 351 350 350 349 350 350 350 350 348 349 348 346 342 344
352 352 352 351 351 351 351 350 350 350 350 346 344 347 349 350 348 350 348 351 351 353 351 350 351 351 350 350 348 350 349 349 348 348 346 343 345 347 349 348 349 348 348
353 352 351 351 350 349 350 351 350 350 352 351 351 350 348 351 352 352 350 350 350 351 349 347 350 351 348 348 350 350 350 349 349 350 343 339 340 344 346 349 349 345 343
354 351 352 351 350 351 349 349 349 350 351 352 351 349 351 352 352 352 352 352 351 350 347 346 350 351 349 350 348 351 350 348 345 345 345 341 337 349 344 348 343 340 336
353 352 353 351 352 352 351 350 350 350 349 352 351 352 352 352 352 352 352 352 351 350 347 346 348 351 349 351 350 348 347 346 340 345 346 343 341 341 348 348 346 346 343
354 352 355 352 351 351 350 350 348 350 351 350 350 349 351 352 352 352 352 352 351 351 348 350 349 349 349 349 348 347 346 345 340 340 344 345 347 343 348 347 347 346 346
354 352 355 354 353 353 351 351 350 351 353 351 351 350 351 352 349 351 352 352 349 351 347 350 351 349 348 344 342 343 345 349 345 344 341 345 347 344 345 348 347 343 337
354 353 356 356 355 354 354 351 351 353 353 352 353 347 348 351 351 351 351 350 350 350 346 349 351 349 347 343 343 345 345 345 348 346 345 341 343 344 344 348 345 347 339
355 354 354 356 354 354 354 353 349 351 353 352 352 348 349 351 351 352 347 348 351 347 347 351 349 350 346 342 343 344 345 344 344 345 343 339 336 344 346 347 342 339 337
354 354 351 355 352 353 356 356 352 353 354 353 352 352 348 351 351 351 348 347 349 348 348 350 349 349 342 340 341 341 344 347 344 345 344 340 337 341 347 347 345 342 345
352 354 353 349 353 350 353 353 354 353 353 352 351 352 351 352 350 351 350 349 351 351 348 350 348 348 340 345 344 340 347 346 348 348 347 345 344 338 344 345 346 341 344
350 351 352 351 349 353 353 353 353 353 353 353 353 353 352 351 352 351 350 349 351 350 348 347 348 348 346 345 344 345 345 346 346 348 346 346 346 344 338 344 344 339 340
348 350 351 350 349 352 352 352 352 353 353 351 352 351 351 350 352 351 349 350 351 351 351 348 347 349 349 347 343 344 345 344 345 346 345 346 346 345 339 340 342 339 337
346 348 350 351 350 351 352 352 353 352 352 351 351 350 350 349 349 349 349 348 350 350 351 351 349 349 348 346 344 344 344 344 345 347 346 345 346 345 341 341 341 339 338
346 344 348 349 350 350 351 351 352 350 348 350 351 350 346 349 349 347 350 350 350 351 351 350 351 349 348 348 347 347 346 345 347 349 347 347 346 345 343 341 343 343 339
346 342 346 348 349 349 349 349 349 350 351 349 348 346 344 344 345 348 347 347 350 350 351 351 350 350 349 349 348 346 345 346 349 350 350 349 349 347 345 342 342 344 344
345 342 342 347 348 349 349 349 348 348 349 349 348 346 347 345 344 347 349 350 347 347 346 351 349 348 349 350 350 349 346 346 349 350 350 349 350 349 349 345 344 344 344
347 342 337 345 346 348 349 349 350 351 350 351 349 349 346 345 346 348 350 349 346 347 349 347 348 350 349 348 348 350 350 349 349 349 350 350 348 349 349 349 346 345 345
347 344 339 337 343 347 348 349 350 350 350 350 350 349 348 348 348 347 347 348 346 350 347 350 350 348 349 349 349 348 345 347 349 349 349 349 350 350 350 351 351 349 347
347 345 341 339 343 344 346 347 347 345 345 347 348 348 346 347 347 347 340 343 346 347 346 345 347 346 348 348 346 349 349 349 348 348 348 348 349 350 351 349 351 351 351
350 347 345 342 346 344 344 345 345 346 346 346 347 348 348 346 345 346 345 345 346 346 346 344 345 345 345 345 348 348 348 345 346 346 347 348 348 348 348 349 350 350 350
353 350 348 346 347 347 348 347 348 348 349 348 348 347 348 348 347 347 346 346 346 346 348 346 345 343 343 346 347 345 350 346 345 346 347 346 348 348 349 350 350 349 349
354 354 352 351 350 350 349 349 348 348 349 349 349 348 348 346 347 346 347 347 346 346 347 349 346 343 339 341 343 344 343 345 344 344 346 346 345 347 348 349 348 347 346
355 355 354 354 353 352 350 350 349 348 348 350 349 350 350 348 346 344 345 345 345 345 345 346 346 343 339 340 341 344 346 346 345 344 345 342 344 345 346 346 345 344 340
356 356 355 355 354 353 351 350 349 349 349 349 350 350 350 349 348 345 343 345 344 344 345 345 345 343 341 341 341 341 343 344 345 345 345 344 344 343 345 345 343 341 338

GFSSE_925_thetae_090.txt.gz
Theta_e
348 352 354 351 350 346 349 349 347 346 345 343 343 343 346 351 351 351 348 352 352 349 346 347 352 352 350 345 347 351 352 352 350 351 350 350 350 348 348 345 343 341 349
348 352 353 351 349 349 353 351 350 349 346 346 345 344 343 349 350 350 350 350 351 352 352 349 349 353 352 353 352 352 351 350 350 350 350 350 350 346 335 340 342 339 346
349 351 354 351 349 351 349 348 348 347 352 350 345 344 344 350 352 347 347 350 352 353 352 352 352 352 352 351 352 351 351 350 351 351 349 345 344 350 349 350 339 347 347
349 350 351 350 351 351 349 349 347 349 352 350 348 348 351 353 349 347 348 352 352 352 351 352 352 351 351 349 350 350 349 349 350 340 341 338 338 349 350 351 349 348 347
350 349 351 350 350 351 347 346 349 350 351 352 352 352 352 352 352 351 351 351 349 350 348 351 352 349 348 351 351 351 351 351 345 346 338 338 340 339 348 348 346 337 345
349 348 352 350 349 352 350 348 349 350 350 351 353 352 353 353 351 352 347 352 352 348 347 350 351 351 351 348 351 350 347 342 344 344 343 337 342 346 349 346 344 336 336
350 349 352 350 350 350 349 349 349 352 352 352 352 352 352 353 353 353 352 351 351 348 348 349 352 350 352 350 349 339 344 336 341 344 345 344 346 343 349 349 347 347 347
350 351 351 351 350 350 349 352 351 351 352 352 351 352 353 352 353 351 353 352 352 349 351 350 351 349 350 350 347 345 347 344 342 341 343 345 345 340 345 350 345 341 346
351 351 354 354 353 353 352 351 352 352 351 351 350 350 351 351 351 352 350 352 351 349 350 352 351 349 348 347 343 344 346 345 349 343 341 343 338 338 340 342 345 348 338
353 352 354 355 353 352 350 350 350 351 351 353 353 349 350 351 352 351 348 347 352 348 349 353 351 350 346 345 344 345 344 343 345 343 342 342 334 342 348 346 342 347 341
354 353 355 355 356 355 354 352 349 351 353 352 352 348 349 350 347 351 347 346 350 348 350 351 351 348 343 343 343 343 343 344 342 343 344 343 336 341 345 346 344 340 342
353 352 354 354 355 355 353 354 351 352 352 351 350 352 350 349 351 350 347 348 352 347 349 351 350 349 342 344 344 343 345 343 343 344 346 346 344 338 340 343 345 341 336
351 352 352 353 354 354 351 351 352 352 351 349 351 351 350 350 351 349 350 347 349 349 343 346 349 344 343 343 344 344 346 345 344 344 348 346 346 345 339 342 343 342 338
351 352 353 352 352 352 350 351 351 351 350 351 352 353 350 350 350 349 350 349 348 346 345 345 343 344 344 346 345 345 347 346 343 346 347 345 346 345 345 339 341 341 335
351 352 353 352 352 351 351 350 350 350 350 350 350 354 351 350 350 350 350 350 350 349 349 346 345 345 347 346 345 344 345 346 345 345 347 347 345 345 345 341 341 342 339
348 351 353 352 353 352 351 351 350 351 351 350 349 351 352 350 350 349 349 348 348 349 350 349 345 346 346 345 343 343 344 344 345 345 346 348 347 345 345 344 341 343 343
349 348 352 352 352 352 351 352 352 350 349 350 349 350 352 352 351 349 348 350 348 349 350 350 350 349 345 344 345 345 345 345 344 346 348 348 349 349 347 344 343 342 344
351 349 350 351 351 352 351 351 350 348 348 348 347 350 351 350 351 351 349 348 351 352 353 350 349 349 348 345 345 344 344 344 344 347 349 349 348 348 350 348 345 344 343
352 351 348 351 351 351 351 350 349 349 349 348 347 348 349 349 350 349 349 349 352 351 352 350 350 348 348 350 350 349 346 344 344 345 348 349 349 349 347 350 349 347 344
352 352 348 351 352 352 351 351 349 350 350 349 349 348 349 350 349 349 349 351 352 349 350 351 351 351 350 350 350 348 350 348 345 345 348 349 349 349 351 350 352 351 348
353 353 351 349 353 352 351 350 349 351 351 350 349 349 352 351 351 350 349 345 349 345 346 351 351 351 350 349 350 349 349 349 348 349 349 348 349 349 351 351 352 350 350
354 354 352 349 349 352 351 350 349 348 347 347 348 349 352 352 352 352 351 350 342 348 347 345 349 349 349 351 347 347 350 347 346 348 347 346 347 348 349 351 351 351 352
354 354 353 351 349 351 350 351 350 349 348 348 348 349 351 351 352 352 351 351 351 345 348 350 348 349 347 347 347 348 351 349 343 346 348 347 346 348 348 348 350 351 352
355 355 355 353 351 353 352 351 350 349 348 347 348 348 348 349 351 352 352 350 351 348 348 348 350 350 349 348 347 347 349 347 351 349 346 347 348 350 349 349 349 350 351
356 356 356 356 354 354 354 354 353 350 347 348 348 349 350 350 352 351 351 351 352 350 349 350 350 350 350 349 343 344 344 348 347 346 346 347 347 346 346 348 348 349 349
357 357 357 358 356 356 356 356 354 351 348 347 349 349 349 349 349 351 350 348 350 350 349 349 348 349 350 348 344 341 342 346 347 347 349 345 344 345 345 346 346 347 347

GFSSE_925_thetae_093.txt.gz
Theta_e
350 352 352 350 352 353 351 347 345 345 345 340 343 346 350 351 352 353 352 353 350 350 351 351 351 349 351 351 351 352 352 352 352 351 351 351 351 349 345 346 344 342 350
350 353 352 349 349 352 354 349 347 346 346 341 346 345 344 350 351 351 352 352 353 352 347 351 352 351 348 350 353 353 352 351 350 351 351 350 347 344 341 346 341 348 350
351 353 353 349 350 353 350 348 347 346 348 347 346 343 347 351 348 352 350 353 353 353 352 349 353 353 353 353 352 351 351 352 351 349 347 344 347 348 349 342 331 341 349
350 352 353 349 350 352 352 348 349 353 354 350 346 347 352 353 350 351 353 353 352 353 353 353 353 353 352 352 351 353 351 345 338 346 349 340 343 349 351 349 349 347 340
349 350 353 349 349 352 352 352 350 353 354 351 350 352 353 353 352 351 353 352 350 352 352 353 352 351 350 351 351 349 349 347 343 348 340 338 338 347 349 345 339 345 349
349 348 353 350 351 351 349 350 351 352 352 352 353 353 353 353 352 347 348 350 352 349 349 352 350 348 352 351 348 352 344 339 346 342 340 344 342 338 348 347 343 342 345
348 355 352 350 351 351 345 350 353 353 353 354 352 354 353 353 352 353 349 352 351 349 349 352 352 352 350 352 350 341 332 343 349 344 340 346 349 345 350 346 343 340 342
348 354 351 350 350 351 351 351 353 353 353 353 353 353 354 353 352 352 353 352 352 349 348 351 351 352 351 349 345 342 337 343 342 342 343 350 334 348 350 349 344 346 347
349 351 351 353 352 353 354 354 353 353 353 354 352 353 353 353 353 352 352 352 351 350 352 352 351 351 351 347 345 346 342 344 351 342 342 348 332 333 343 349 348 343 336
350 351 352 352 351 351 350 353 353 354 351 352 351 352 353 353 353 352 349 351 351 348 351 353 351 350 348 346 345 345 340 342 350 342 342 346 334 334 342 344 345 348 342
351 353 354 353 353 352 351 351 349 350 353 353 353 353 353 346 349 350 348 347 352 348 351 351 351 350 346 343 344 344 341 346 346 342 343 339 334 340 349 348 343 337 336
352 351 355 355 355 354 352 353 350 351 352 351 351 351 350 349 347 349 347 348 350 348 351 352 352 351 343 345 345 343 345 347 342 341 346 344 344 338 342 349 345 339 334
352 350 354 355 353 355 353 353 351 350 351 352 350 351 349 346 348 350 349 349 351 348 345 349 348 347 344 346 345 343 343 342 343 342 348 345 345 345 339 341 343 341 338
350 351 353 354 355 354 353 353 350 351 350 352 351 350 351 349 345 350 347 347 349 348 342 345 344 343 343 343 346 344 347 343 341 344 348 344 344 345 345 340 341 341 339
351 351 352 353 355 352 352 351 350 348 351 350 350 352 352 351 350 351 348 348 350 348 348 346 344 343 344 346 345 346 345 346 345 345 349 348 345 345 345 343 340 342 341
350 350 354 353 353 353 352 353 351 350 349 350 351 353 353 352 352 352 348 350 350 349 349 349 345 346 345 346 346 345 344 345 346 346 345 351 348 345 344 344 342 342 344
349 351 351 353 353 354 353 353 352 350 349 349 349 350 354 350 349 350 348 348 349 351 349 349 348 345 346 345 345 345 344 344 344 345 345 346 349 348 347 345 343 343 343
348 351 352 351 353 355 353 351 351 350 348 350 347 350 349 352 353 352 349 347 351 352 352 351 351 349 350 346 345 344 345 345 346 346 346 347 348 349 348 350 346 344 344
350 352 353 352 352 354 353 352 351 350 350 347 347 346 353 352 351 352 351 349 352 353 353 352 350 350 348 348 349 349 347 345 345 344 345 346 348 347 350 350 349 349 346
351 353 353 354 352 353 353 352 351 350 349 349 350 348 350 349 350 351 349 349 350 352 350 352 351 351 352 349 350 348 348 349 348 346 345 347 349 348 348 350 350 350 350
352 355 354 356 354 353 353 352 350 348 350 350 349 351 351 352 349 351 350 350 354 349 351 352 352 354 353 352 351 350 350 351 350 348 347 347 346 348 348 349 351 351 352
353 356 355 356 358 355 352 351 349 349 348 351 351 350 352 351 351 351 351 352 352 350 346 347 353 352 352 350 351 350 358 348 348 348 348 348 349 348 350 349 349 351 350
354 357 358 356 359 357 353 352 351 350 349 348 348 352 352 352 351 351 352 351 350 351 344 352 348 350 350 349 350 349 356 350 349 347 349 348 346 346 346 347 349 350 350
353 357 359 357 358 359 357 353 352 350 349 347 348 348 350 350 351 351 351 351 351 350 349 349 351 350 349 348 348 348 348 347 356 355 348 348 348 349 349 350 349 349 353
352 355 358 359 357 356 358 354 354 352 348 348 348 349 350 352 351 352 353 352 353 351 349 349 349 349 350 350 349 349 348 349 349 349 355 347 349 349 347 348 347 349 351
355 354 356 361 359 358 358 358 356 354 351 348 348 349 350 350 351 352 352 350 351 352 352 351 348 348 350 350 349 349 347 347 347 350 350 347 346 348 346 347 348 347 347

GFSSE_925_thetae_096.txt.gz
Theta_e
353 354 349 348 348 345 346 345 344 344 344 345 341 342 341 349 350 352 352 352 352 352 352 349 347 348 347 346 346 343 344 342 346 347 348 349 347 350 347 347 340 349 343
353 355 347 347 348 346 346 346 346 346 342 344 344 343 343 348 350 352 352 352 349 349 352 352 350 351 347 352 352 350 345 349 345 351 350 349 349 345 346 348 347 350 347
353 354 352 346 349 348 346 346 346 346 347 345 347 345 344 347 352 351 350 353 353 352 348 352 353 353 351 353 353 350 346 347 349 347 347 345 344 350 342 332 344 350 347
353 353 353 347 349 349 346 346 348 347 348 346 345 344 346 351 351 348 354 353 354 353 352 349 353 353 352 351 351 348 346 347 347 347 348 345 345 350 342 345 339 343 347
352 351 353 347 347 348 347 346 349 352 351 352 349 348 349 347 352 353 353 349 354 353 353 352 353 352 353 351 350 344 333 337 343 347 349 341 347 351 345 341 346 347 346
350 352 350 347 345 349 348 346 349 351 352 350 352 353 353 351 353 352 353 346 351 351 353 352 351 350 350 352 343 340 336 343 346 347 342 342 344 347 350 343 349 348 336
350 356 347 346 345 347 347 345 350 350 349 350 353 353 352 353 351 352 351 350 351 348 353 351 348 350 349 348 349 337 336 344 348 342 348 342 331 343 347 341 334 337 338
357 355 352 348 348 346 352 351 348 350 351 353 352 354 351 352 349 350 348 353 350 347 351 351 352 351 352 351 332 330 342 342 348 345 348 346 341 345 349 344 348 346 346
355 353 354 354 354 353 352 353 352 354 353 351 348 349 350 353 350 352 352 351 351 349 349 350 352 352 350 347 341 333 339 342 348 345 350 340 329 341 349 344 339 343 342
354 352 352 353 353 353 354 351 352 352 354 352 350 350 352 353 353 353 348 349 351 351 351 352 351 351 348 344 344 339 338 341 348 347 349 337 329 328 341 340 346 345 335
354 353 352 353 352 352 351 352 350 353 352 353 351 349 353 351 351 352 349 347 350 348 352 353 351 348 345 344 342 338 340 342 348 348 343 335 329 333 341 343 341 344 339
354 354 353 352 353 352 351 350 352 351 353 351 352 352 352 347 349 351 348 348 352 348 351 350 350 345 343 344 340 339 337 345 350 344 342 340 340 336 341 345 343 337 333
356 355 356 355 353 353 353 352 350 351 352 350 351 351 350 347 349 348 347 351 350 347 349 351 351 349 346 348 345 341 342 344 345 345 345 343 343 341 337 341 341 340 337
355 356 357 356 354 354 353 353 352 351 351 349 351 349 350 347 348 350 348 351 350 345 345 347 348 345 346 344 345 347 344 344 344 348 346 343 342 343 343 338 341 340 338
354 356 356 357 354 354 352 353 352 351 352 350 352 349 348 348 344 349 349 348 349 348 343 346 348 344 343 345 345 347 345 345 346 349 347 346 343 343 343 343 340 339 339
353 357 355 357 356 352 353 352 350 351 352 351 353 351 348 349 348 348 348 347 348 350 348 346 348 345 346 344 345 344 345 345 346 346 349 347 347 346 343 343 343 342 343
352 355 357 358 358 351 354 351 351 352 348 353 351 350 348 350 350 347 349 348 349 350 349 350 350 349 344 345 347 346 344 344 345 345 345 350 348 346 347 346 344 343 343
353 357 357 356 357 353 352 353 353 352 350 348 352 350 349 348 349 349 349 349 350 350 349 349 349 347 345 347 345 345 346 344 344 344 344 345 349 349 348 347 349 345 343
353 354 357 355 356 356 354 356 352 351 349 351 349 350 350 347 348 349 350 348 347 351 352 351 350 350 350 348 347 346 346 347 346 347 347 344 347 349 348 348 349 348 348
354 355 355 357 356 357 357 355 352 352 351 349 349 347 350 348 349 350 349 350 349 348 349 351 352 351 348 347 348 349 347 348 346 345 348 345 346 346 348 350 350 349 349
355 356 356 356 359 358 357 355 355 351 354 349 348 349 348 349 349 351 349 349 349 348 349 350 351 350 350 351 349 349 350 349 350 351 350 346 347 347 348 348 349 349 351
357 356 358 357 357 358 356 354 353 355 351 348 349 349 352 349 349 351 352 352 350 353 349 352 351 350 350 350 349 348 352 349 351 350 346 350 348 348 347 347 348 349 350
356 358 357 360 358 357 357 355 353 351 352 350 349 350 351 351 351 350 351 349 352 353 351 348 349 350 352 349 349 348 350 352 349 350 351 348 347 350 349 349 350 349 349
356 360 359 360 361 357 355 355 355 353 352 353 355 353 353 353 353 351 349 351 352 353 350 349 346 351 348 350 348 348 348 349 351 352 350 351 347 349 348 349 352 350 349
356 359 361 359 363 359 358 355 354 353 353 350 350 350 354 351 353 352 349 349 349 351 349 348 349 351 350 350 348 349 349 349 347 350 351 347 348 346 348 347 347 348 350
356 358 360 361 361 362 360 359 356 355 352 352 349 352 352 354 350 352 353 350 350 351 351 348 348 348 347 348 348 345 348 348 349 349 349 348 349 346 348 348 346 349 349

GFSSE_925_thetae_102.txt.gz
Theta_e
347 344 345 346 342 345 352 347 339 346 350 351 349 348 345 347 345 345 342 342 343 349 347 344 345 342 343 342 346 349 349 341 344 348 350 350 349 347 346 346 346 346 347
344 346 346 345 347 353 350 345 345 341 339 346 345 347 346 345 346 350 349 351 350 350 351 350 346 344 339 339 343 341 342 341 347 351 350 349 350 350 345 342 346 345 345
342 346 346 346 349 349 345 343 342 339 339 338 347 347 352 351 351 351 351 351 350 349 350 349 343 341 341 340 345 351 348 342 345 350 348 349 348 350 350 346 350 349 345
341 345 346 345 347 343 342 342 341 344 345 344 349 350 348 352 353 353 352 349 352 351 351 351 352 351 345 346 350 349 349 342 342 346 342 344 350 351 350 347 347 348 348
345 344 345 345 346 344 344 345 345 347 349 351 352 352 352 352 352 352 353 352 351 351 353 352 352 350 348 345 345 344 343 346 346 345 343 345 345 347 349 349 348 344 340
345 345 347 347 347 345 344 345 347 346 349 350 352 354 353 352 353 353 352 352 353 351 351 352 352 351 347 345 345 344 344 344 346 349 345 342 344 348 348 347 348 347 331
346 347 349 353 352 352 350 350 351 350 350 350 353 353 353 353 354 353 352 352 352 352 351 352 352 351 340 343 338 338 343 347 345 346 343 342 336 341 350 350 347 347 341
345 346 348 353 352 352 352 351 351 352 352 351 354 353 353 353 351 351 351 350 351 351 353 350 350 348 347 340 337 340 343 347 348 345 344 341 341 338 343 344 341 340 337
345 344 348 352 351 352 352 353 352 354 354 353 352 351 353 351 351 352 351 350 347 350 351 346 351 343 343 337 336 336 340 345 349 344 342 339 334 334 335 335 340 336 347
349 344 345 346 348 348 352 351 351 351 352 353 353 352 352 352 352 351 349 349 346 351 351 352 349 346 341 330 330 338 340 343 349 348 343 338 337 336 340 340 345 337 339
352 349 348 345 344 341 343 349 348 352 354 353 353 353 352 350 351 352 347 350 348 349 351 352 350 336 333 333 334 336 338 340 345 348 348 339 340 343 342 336 338 334 333
352 351 348 345 343 343 347 349 351 352 352 352 352 352 350 349 347 350 346 351 349 350 351 352 345 341 335 338 341 339 338 339 346 347 348 334 337 343 340 335 343 338 333
351 351 349 346 342 341 346 352 350 352 351 351 349 350 347 347 347 347 346 350 351 350 351 351 342 337 337 341 339 339 338 339 340 344 347 339 332 339 334 331 337 335 332
352 349 347 347 344 341 342 348 347 349 350 351 345 346 346 350 351 350 347 349 349 344 345 345 342 337 337 340 343 347 346 346 345 345 347 340 332 334 338 333 331 331 329
351 351 349 348 345 345 344 346 344 344 345 342 344 343 345 349 349 349 349 347 346 343 335 345 345 341 337 338 344 345 345 345 348 346 344 339 339 339 338 336 333 331 330
351 350 348 347 345 347 347 345 344 344 345 348 348 349 348 348 347 349 348 348 347 343 333 341 342 339 336 337 344 344 345 345 345 347 343 345 342 342 342 341 338 337 336
351 351 350 347 346 348 350 349 347 344 348 348 348 349 349 349 347 347 348 347 348 346 342 340 346 345 344 341 343 343 345 345 343 345 347 346 344 343 344 343 342 341 341
353 352 351 350 349 348 351 352 350 346 348 348 349 348 349 348 348 347 348 348 349 349 347 342 343 345 346 348 346 344 344 345 345 342 343 346 347 345 345 345 346 345 344
354 353 353 352 351 350 350 352 352 349 352 350 349 349 351 349 347 347 345 346 348 348 348 349 349 348 347 348 347 346 346 346 343 344 343 341 344 346 347 346 346 346 346
354 355 354 354 353 352 351 352 352 350 353 353 351 350 351 350 347 347 347 345 346 347 347 348 350 349 348 348 346 348 348 347 346 345 344 344 344 344 345 346 348 348 347
353 355 356 356 354 353 353 352 351 351 351 351 352 351 351 349 347 348 349 347 348 349 349 349 349 348 349 348 347 346 346 345 348 348 347 347 345 346 346 344 346 347 348
353 354 356 356 355 353 352 352 351 350 352 353 352 352 351 350 348 346 348 348 349 350 349 349 349 348 348 349 348 345 342 344 345 347 349 349 348 347 348 348 345 347 346
354 354 355 356 356 354 353 352 352 351 351 352 351 350 349 350 348 347 346 346 347 348 349 350 349 348 348 348 349 345 343 343 342 344 344 346 347 348 348 348 348 348 347
354 354 354 355 355 354 353 351 353 351 350 351 350 350 350 349 349 349 347 346 347 348 349 348 348 348 348 349 349 349 345 345 345 343 346 348 348 347 348 348 349 348 347
354 354 354 354 354 354 354 352 352 352 350 349 349 348 350 350 350 349 347 347 347 348 349 348 347 348 349 349 347 345 347 347 347 344 345 345 345 345 347 348 348 347 346
352 355 355 354 354 354 354 353 352 352 350 351 349 351 350 351 350 350 349 348 346 347 348 349 350 350 349 348 346 344 344 345 345 345 345 343 344 344 344 346 346 345 342

GFSSE_925_thetae_105.txt.gz
Theta_e
345 343 347 354 354 353 352 352 352 351 350 348 349 350 349 347 346 345 345 343 348 348 350 350 351 351 351 352 345 342 342 345 348 350 350 350 350 349 348 349 348 347 349
342 343 344 352 354 354 353 350 350 350 350 349 349 349 349 349 345 342 343 348 351 349 350 348 349 349 350 351 346 342 347 347 350 350 349 348 347 346 345 345 344 345 345
342 344 344 345 351 353 347 349 349 350 351 352 348 349 350 350 348 350 348 348 351 350 351 349 346 347 349 351 350 349 348 349 350 350 349 349 349 344 347 348 345 344 343
343 344 346 345 346 350 350 343 349 350 352 351 352 353 349 351 352 352 351 350 351 351 350 350 350 348 350 351 350 350 349 350 350 348 348 347 350 349 347 349 349 345 347
345 345 346 346 347 352 347 344 346 350 351 349 351 352 353 353 353 352 352 352 350 350 351 352 352 349 350 349 350 350 345 348 349 342 344 349 349 349 348 347 348 348 347
346 345 346 346 350 351 347 343 346 345 349 347 352 351 353 353 352 354 352 352 353 353 352 353 352 351 349 349 348 343 347 348 348 344 342 341 340 349 349 348 343 343 346
347 345 346 347 349 351 351 346 346 349 351 349 352 353 353 353 353 353 352 353 351 352 353 352 352 351 350 346 343 343 344 347 347 348 343 341 341 340 343 348 348 338 336
343 347 347 347 347 350 352 351 349 352 352 353 354 353 353 353 352 353 353 353 352 351 351 353 352 349 347 343 342 342 346 349 343 347 343 342 336 347 350 349 344 341 338
345 348 351 351 350 349 352 352 352 353 353 352 353 350 351 353 352 352 351 351 352 352 352 350 349 350 349 341 338 343 343 348 344 344 344 341 341 345 349 345 335 337 334
350 350 352 353 353 351 352 351 351 351 353 354 354 353 353 352 353 352 350 343 350 351 349 348 350 351 347 341 339 337 342 346 348 344 344 342 342 343 344 333 334 333 347
352 353 352 352 351 351 351 351 350 353 354 353 352 352 353 351 352 351 349 347 350 352 352 352 349 350 340 334 336 340 341 344 346 347 343 339 338 343 347 345 344 333 336
351 353 353 350 350 351 351 351 349 350 351 353 351 353 350 350 351 350 348 351 347 352 351 352 351 343 340 336 339 339 338 340 344 347 347 347 338 343 350 347 344 336 332
350 351 352 348 347 347 350 351 349 351 353 351 351 350 350 348 350 351 346 351 348 348 352 351 348 344 339 338 341 339 338 339 343 345 345 347 337 337 351 347 346 340 332
350 350 350 348 347 346 344 349 349 351 350 349 350 351 348 349 347 348 345 349 349 352 347 348 341 339 338 339 341 342 342 342 344 345 345 346 337 333 345 348 345 346 335
350 350 350 348 347 346 343 347 349 352 352 351 349 349 346 347 348 348 344 346 350 344 347 344 342 337 337 339 340 346 345 345 346 346 345 346 342 333 333 337 343 346 336
351 349 349 348 346 344 344 345 347 349 350 351 348 345 346 346 350 349 347 347 346 347 340 341 344 341 338 337 339 344 344 346 345 347 346 344 339 338 339 339 338 338 338
351 349 348 348 346 344 342 344 345 343 344 344 344 341 341 345 349 348 349 348 347 345 343 335 344 343 342 340 338 343 344 345 344 344 346 341 344 343 342 343 341 341 339
350 349 348 346 347 345 343 342 344 342 342 344 346 346 348 347 347 347 348 348 347 346 344 337 339 345 345 345 343 343 343 344 345 343 345 346 346 344 344 344 344 343 343
351 349 349 348 347 346 345 345 343 342 341 343 347 347 349 349 348 348 347 347 347 348 349 346 340 343 345 345 347 346 346 346 345 344 343 343 345 347 346 345 345 345 345
351 350 349 348 347 345 345 347 348 348 346 344 347 348 348 347 349 348 347 346 347 348 348 349 347 345 346 347 346 348 346 346 345 345 344 344 342 342 344 345 346 346 346
351 351 350 349 349 348 348 350 350 350 349 346 348 349 348 348 349 348 347 346 345 346 347 347 348 349 348 347 347 347 347 347 347 347 347 347 346 344 344 344 345 346 346
352 352 352 351 351 350 349 349 350 350 350 349 350 351 350 349 350 349 347 347 346 344 347 347 347 347 349 348 347 344 342 344 345 344 344 346 347 348 346 346 346 346 345
352 353 353 352 352 351 351 350 349 350 350 350 351 352 351 350 350 349 347 346 348 347 347 348 348 348 348 348 348 346 341 342 340 343 344 344 346 348 348 347 348 347 347
351 352 353 354 353 352 352 351 350 348 349 350 349 350 351 351 350 350 348 346 347 348 348 348 348 348 348 347 346 347 345 343 341 341 343 346 346 345 345 345 345 347 347
352 352 353 355 355 353 351 351 350 349 348 349 350 352 351 350 350 349 349 347 346 346 346 347 348 349 349 348 347 347 347 346 344 342 343 344 344 344 344 344 346 348 348
352 353 353 354 354 355 353 351 350 350 348 348 350 350 350 349 349 349 349 348 348 347 346 347 348 348 348 348 347 347 346 344 345 343 342 343 344 344 343 343 343 345 346

GFSSE_925_thetae_108.txt.gz
Theta_e
343 351 353 354 353 353 354 348 348 345 344 343 347 347 347 347 343 343 343 348 350 351 350 352 352 352 352 351 349 350 350 346 351 351 350 350 349 349 349 349 348 349 345
342 350 353 350 351 352 352 350 347 345 345 345 349 348 346 347 345 342 343 346 351 351 352 352 351 351 353 348 346 350 349 350 351 351 350 348 347 347 348 348 347 347 346
341 345 351 351 351 352 350 349 348 350 351 350 347 347 348 348 348 346 343 349 350 351 350 350 351 351 352 351 349 349 349 348 348 350 349 344 342 342 343 344 345 342 343
340 343 350 350 350 351 345 347 348 351 352 351 350 348 346 348 348 350 350 351 351 351 350 350 350 351 351 351 350 349 350 348 349 349 347 347 346 347 349 346 343 345 347
342 343 348 350 350 351 347 340 349 349 350 349 350 350 351 349 350 349 350 351 352 350 350 351 351 350 350 350 351 349 350 349 344 345 345 346 348 347 349 349 345 347 346
343 343 344 348 351 351 349 350 349 349 349 350 350 351 352 352 350 350 351 350 351 351 351 352 351 351 349 349 350 348 348 349 339 340 345 346 346 348 344 344 348 347 344
344 344 345 344 350 350 349 350 350 350 347 349 351 352 351 352 351 350 353 352 351 351 352 352 351 349 350 349 349 347 348 350 345 343 341 341 345 347 349 341 335 337 341
344 346 348 347 348 348 349 352 351 352 352 352 350 352 351 352 350 351 350 352 352 352 349 350 351 349 350 349 345 343 346 348 346 347 342 340 340 342 346 348 344 329 333
347 348 350 351 351 353 352 352 353 353 352 352 351 352 351 351 349 351 350 350 351 352 352 352 351 349 350 348 343 344 347 346 342 345 344 341 339 347 349 347 341 335 334
349 351 350 352 353 352 353 352 351 353 353 354 353 353 353 353 353 351 348 350 352 352 352 351 350 349 349 344 342 344 345 346 342 343 342 341 339 344 348 346 339 336 334
352 352 352 352 352 352 352 352 352 353 354 354 354 353 353 352 351 352 346 348 352 352 349 350 349 349 348 342 340 339 343 346 346 343 343 342 340 339 347 345 339 335 347
351 353 353 351 349 349 349 350 351 352 353 353 352 352 351 350 351 351 349 346 350 352 351 349 350 348 348 341 338 340 341 343 345 345 345 344 340 336 344 345 346 339 340
350 351 351 352 351 348 349 349 349 351 352 352 349 350 352 349 349 349 349 350 347 352 350 349 347 349 343 338 338 341 339 339 341 345 346 346 346 338 342 347 344 343 341
350 350 350 352 351 350 349 350 348 350 351 348 348 350 349 349 349 349 347 351 345 348 349 349 347 346 342 340 339 339 338 339 341 340 342 342 346 342 339 345 343 343 345
348 350 350 353 351 351 350 350 349 348 348 347 350 348 348 349 349 350 346 350 348 347 347 349 348 343 342 340 340 339 345 344 344 345 345 345 345 341 336 340 346 342 345
347 349 350 351 350 350 350 350 348 348 348 350 349 350 350 347 346 345 344 347 351 346 350 346 347 341 338 339 339 343 345 344 345 346 345 345 346 342 336 335 337 337 341
347 348 349 349 348 347 347 346 348 347 346 346 345 348 348 346 345 344 345 344 344 345 343 342 345 346 343 339 338 340 343 344 345 344 345 345 343 341 341 340 341 341 340
348 347 348 348 348 346 346 346 347 348 349 351 349 345 344 344 345 349 348 346 346 345 344 343 338 346 345 342 340 338 341 343 344 345 343 345 340 344 343 343 344 343 342
350 348 348 348 347 346 345 345 345 347 348 347 346 346 341 339 343 348 348 348 348 348 346 344 338 337 344 344 343 342 344 344 344 344 344 343 345 345 345 345 344 344 344
350 349 348 347 347 346 345 345 345 346 346 344 341 342 340 344 343 345 347 347 347 348 347 347 345 339 342 343 344 345 346 346 346 345 344 344 343 343 344 346 346 344 345
350 349 348 348 347 346 346 346 346 345 345 345 343 343 345 346 348 348 348 347 346 347 347 348 348 347 345 344 347 346 346 346 346 346 345 345 344 344 343 341 342 345 345
350 349 349 348 347 346 346 346 346 345 345 343 344 343 346 347 347 347 348 348 347 346 347 347 347 348 347 347 346 344 347 346 345 345 345 345 345 345 346 346 345 344 345
351 350 349 348 348 347 346 346 347 347 348 348 348 346 346 347 347 347 348 349 347 346 346 344 346 346 346 346 346 346 344 349 340 343 343 344 343 343 344 346 347 347 346
351 350 350 350 349 348 347 347 347 348 348 349 349 348 348 350 349 349 349 349 347 346 347 344 345 346 346 346 346 347 346 342 346 347 342 343 343 343 343 344 346 347 347
351 351 351 351 351 350 349 349 348 348 348 348 349 349 349 350 350 350 349 349 347 345 346 347 346 346 346 347 346 346 346 345 342 343 348 344 343 343 344 344 343 343 344
350 351 352 352 352 352 351 350 350 349 348 347 348 348 348 348 349 349 350 350 349 347 345 346 347 347 347 347 347 346 346 345 345 344 345 344 344 343 341 341 342 342 341

GFSSE_925_thetae_111.txt.gz
Theta_e
347 352 351 349 351 351 350 349 345 344 348 350 349 347 349 347 348 346 346 344 342 343 349 350 350 349 345 348 350 352 349 351 351 351 351 348 347 351 350 349 345 342 346
349 353 352 350 352 352 350 346 345 343 347 348 349 348 349 347 343 345 346 341 346 348 352 352 352 352 349 351 351 352 352 350 351 352 351 347 350 350 349 348 346 349 347
351 352 354 348 351 353 348 347 344 343 349 346 347 348 348 348 347 348 348 350 352 352 353 352 352 353 351 349 351 351 352 349 349 347 344 340 342 347 346 346 343 342 342
351 353 352 348 351 352 348 345 345 346 347 347 348 347 346 346 346 349 350 351 352 352 352 352 352 352 352 351 351 352 352 352 352 346 345 339 343 346 344 343 338 347 348
350 352 352 349 347 351 348 345 345 346 349 347 347 350 349 347 344 349 351 352 352 352 351 351 351 351 351 351 351 350 351 350 343 347 347 346 343 349 349 340 346 347 345
348 350 352 350 349 346 349 347 350 349 349 348 347 349 349 350 350 350 352 352 352 351 351 350 349 351 351 351 350 348 349 347 344 346 348 347 347 344 348 349 347 345 344
348 349 353 349 350 348 349 349 348 348 348 347 347 348 349 349 348 348 351 352 352 351 352 352 350 350 349 350 349 345 348 342 343 343 347 346 348 343 344 347 347 342 343
348 348 352 352 351 350 349 348 349 347 352 352 351 351 349 349 349 350 349 348 351 349 349 350 349 350 350 350 350 347 349 350 348 346 344 344 346 347 348 343 333 333 343
349 349 351 353 352 351 351 351 350 350 349 348 350 350 351 349 352 349 348 350 352 351 347 349 350 351 350 350 346 345 347 347 348 347 345 345 339 344 346 346 346 332 333
350 352 351 353 353 352 352 350 349 350 350 352 349 351 353 353 353 353 349 348 352 346 347 352 351 351 350 347 344 345 346 344 346 348 347 345 336 346 348 346 341 339 335
351 353 353 352 354 353 353 353 351 351 353 353 354 354 352 352 351 351 351 350 353 350 351 351 350 348 347 344 342 343 345 349 347 347 347 342 339 340 346 344 338 337 338
350 353 354 353 352 354 352 354 353 354 354 353 353 354 353 352 351 352 349 351 352 350 351 349 347 347 345 346 345 342 348 348 348 348 347 344 342 337 340 342 339 336 341
349 351 353 354 354 354 352 353 353 352 354 354 354 352 353 351 348 348 350 344 348 351 345 348 348 347 346 345 346 347 348 347 347 348 348 346 345 343 337 341 344 343 340
350 350 351 353 354 354 353 352 351 350 353 353 354 349 352 351 349 347 349 349 348 350 351 349 348 349 346 345 345 346 345 344 345 347 346 343 342 346 340 339 346 344 342
350 349 350 351 352 353 353 350 350 350 352 352 353 351 352 351 351 351 350 351 345 350 351 350 350 349 346 344 344 346 344 345 346 346 347 346 344 345 342 336 340 340 337
350 350 350 350 351 353 350 351 352 350 351 353 351 351 352 350 350 351 351 349 351 345 348 350 349 347 346 344 345 346 346 348 348 348 349 348 345 345 342 337 336 338 338
350 350 349 349 349 351 350 351 351 350 349 349 351 352 347 348 350 350 349 348 349 349 349 349 349 349 346 345 345 345 346 347 348 348 349 349 349 345 342 338 339 339 340
350 349 350 348 349 350 350 349 349 349 349 349 350 350 351 350 350 350 348 347 347 350 349 346 347 347 346 344 344 344 345 346 347 346 348 348 349 349 345 340 341 342 342
350 349 350 349 350 350 351 349 348 349 349 348 348 348 350 350 349 349 348 349 349 348 348 347 345 344 346 346 345 344 345 346 347 347 347 348 347 347 347 347 343 343 344
351 350 349 350 349 350 349 349 349 348 349 351 351 350 349 349 349 347 349 351 350 349 351 350 347 344 341 345 344 343 345 347 348 348 348 347 347 348 347 349 349 348 345
353 351 350 350 350 349 349 348 348 347 347 349 349 351 351 349 348 348 348 350 349 350 351 351 349 348 342 345 346 345 347 349 348 347 348 347 347 347 347 348 348 347 347
353 353 351 350 350 349 348 347 346 346 345 345 347 348 348 348 348 348 348 349 350 350 351 351 351 350 348 349 347 348 348 346 348 347 347 348 348 347 347 348 348 346 347
353 353 352 351 350 349 348 347 347 347 346 346 346 346 347 348 349 350 351 351 351 350 349 350 350 351 350 349 349 347 352 350 347 346 348 348 348 348 348 348 350 350 350
353 353 352 352 351 351 348 348 348 347 346 345 345 345 347 348 349 350 350 351 351 350 349 350 349 349 349 348 347 347 347 348 352 348 346 347 348 349 349 348 348 349 351
351 353 352 352 351 350 349 348 349 348 347 347 347 347 349 350 350 351 351 351 350 351 350 350 350 350 349 349 346 348 348 347 348 348 350 346 346 347 348 349 347 348 349
352 352 353 353 353 352 350 349 349 349 348 349 350 350 350 350 350 351 352 352 351 351 351 350 350 349 346 348 346 345 347 347 348 349 350 348 346 346 345 345 344 345 345

GFSSE_925_thetae_117.txt.gz
Theta_e
348 348 349 350 347 350 351 355 354 354 354 351 350 349 349 350 350 348 344 344 347 349 350 353 354 355 355 354 354 354 352 353 352 352 348 345 345 346 349 348 347 347 347
351 351 347 347 347 348 352 352 353 352 353 351 350 349 349 350 351 347 341 345 350 351 351 352 354 354 355 354 354 353 352 352 346 346 352 353 351 350 351 345 346 349 349
351 352 352 349 350 349 349 352 352 353 352 352 350 351 349 351 350 338 341 348 352 353 353 353 353 353 353 354 354 353 352 351 335 350 348 344 349 350 350 343 348 348 348
351 351 353 351 353 350 346 349 352 353 353 353 352 350 349 349 348 341 348 350 352 353 354 354 353 351 353 353 354 349 349 333 340 342 348 340 340 346 344 346 344 342 342
350 351 355 352 353 348 345 345 349 353 351 353 353 350 348 348 349 347 350 353 354 354 353 353 353 352 352 353 349 349 345 345 345 348 343 341 340 340 347 348 345 347 348
349 350 354 352 353 347 345 344 345 349 351 350 353 350 352 352 350 352 352 354 354 353 353 354 353 353 352 349 347 347 341 346 349 346 345 348 343 339 350 350 348 343 334
350 354 352 353 352 348 345 345 344 346 351 350 349 353 350 352 352 353 353 354 353 353 351 352 353 353 352 346 347 341 338 345 349 345 345 346 350 347 351 347 348 341 339
350 352 351 353 352 351 348 351 350 347 353 352 353 353 350 346 349 351 352 353 350 350 351 350 350 352 352 351 348 340 341 345 346 344 344 348 336 345 349 349 343 348 348
350 350 350 351 354 355 353 352 352 352 353 352 352 352 351 347 349 350 350 348 349 353 348 348 352 351 351 350 348 345 344 347 351 342 343 348 343 347 344 336 335 345 344
350 351 350 349 351 351 352 354 353 352 354 354 353 353 353 352 352 352 347 345 350 353 348 350 352 351 351 351 347 345 340 343 349 342 345 343 335 344 350 346 339 334 338
349 352 351 350 349 349 349 351 351 354 355 354 353 354 353 351 352 352 349 348 349 348 352 352 352 349 350 349 345 342 340 350 344 341 346 330 333 346 351 348 341 337 335
349 351 352 351 349 348 348 352 351 350 350 352 353 353 351 350 350 351 350 349 344 343 349 352 352 349 344 347 347 340 346 350 343 342 346 340 335 338 349 344 338 336 334
349 350 351 352 351 349 349 352 351 352 351 351 346 351 349 351 351 349 351 350 349 350 348 348 350 345 343 346 343 341 344 344 345 346 347 343 344 343 335 340 338 337 334
350 350 350 352 354 350 353 353 351 349 351 351 351 350 351 353 353 350 348 350 350 350 350 350 344 343 341 346 343 342 346 344 344 346 350 346 344 343 345 338 338 342 340
351 350 350 352 355 354 353 353 350 350 348 354 351 352 350 352 349 350 350 349 345 352 346 346 345 345 345 345 344 345 345 344 345 344 351 349 348 346 344 345 339 340 341
352 351 351 353 354 354 353 354 350 349 347 349 352 352 350 351 350 351 351 350 347 350 343 344 347 348 347 343 344 345 345 345 344 347 349 348 350 345 344 344 340 340 342
353 353 353 353 354 355 355 354 351 349 347 344 350 352 353 349 349 350 350 350 350 346 348 344 349 351 348 343 342 343 346 346 345 348 349 350 352 345 343 344 341 339 340
353 354 354 354 354 356 355 353 351 348 346 345 344 351 353 351 351 349 348 348 349 348 344 349 350 347 346 343 341 342 345 346 347 348 349 349 349 351 349 344 343 342 342
356 356 355 355 355 356 355 354 351 348 349 345 345 345 350 350 348 348 347 348 346 349 346 343 345 346 345 342 342 342 344 345 345 345 347 348 348 347 350 353 347 347 345
357 358 358 356 355 355 354 354 351 349 349 348 345 345 351 352 351 347 346 347 346 344 344 343 342 343 344 343 342 342 343 344 343 343 345 345 346 349 349 349 350 351 350
357 357 359 357 356 354 354 353 350 348 348 348 347 347 349 351 350 350 346 348 349 346 343 345 345 344 343 342 343 343 344 344 344 343 343 344 346 348 348 348 349 347 347
357 359 358 357 357 355 354 352 349 348 347 347 347 348 350 350 350 350 350 348 351 348 348 350 346 344 344 343 342 342 344 343 342 343 343 343 345 346 345 346 348 348 348
353 359 359 358 358 356 353 352 352 351 349 349 348 349 350 351 351 350 351 349 350 351 349 350 347 346 346 343 341 341 342 342 342 343 344 344 344 345 346 345 348 348 352
352 355 358 357 358 357 356 354 353 352 352 351 350 349 350 351 352 352 351 351 349 352 352 351 350 348 350 349 346 344 343 348 349 348 345 349 349 351 351 351 350 349 351
353 357 360 359 358 357 355 355 354 354 352 352 351 350 349 351 352 351 352 351 352 351 351 353 352 353 353 351 350 350 351 349 351 348 350 349 346 349 350 352 350 349 349
350 353 358 358 359 357 355 355 354 356 355 353 354 352 351 350 352 351 351 352 353 353 353 354 354 353 353 353 353 351 352 353 351 351 352 350 349 347 347 346 348 348 347

GFSSE_925_thetae_120.txt.gz
Theta_e
346 344 341 353 353 354 352 353 352 352 351 346 346 347 344 348 347 344 343 348 348 351 354 355 354 350 348 350 349 354 348 349 344 344 346 347 349 348 345 342 340 346 347
346 349 349 353 350 351 351 350 352 352 353 352 347 347 345 344 344 345 343 347 348 350 353 354 354 353 350 350 351 351 340 341 342 351 348 350 351 350 349 348 349 349 349
349 351 353 348 350 349 351 350 352 351 352 352 350 344 348 345 339 344 345 348 349 351 353 354 354 353 354 352 354 350 345 342 347 344 348 349 350 350 345 341 347 348 348
351 351 353 348 350 348 351 352 350 350 352 351 350 350 348 343 341 344 351 348 350 352 352 352 352 353 354 352 348 342 340 342 348 347 344 343 343 348 342 340 342 347 344
351 352 354 348 347 348 350 352 351 351 350 351 350 352 348 345 343 350 351 354 352 352 354 354 352 353 353 351 342 334 335 339 342 347 345 339 338 340 347 347 346 349 348
350 355 352 350 352 348 350 352 352 351 350 350 350 352 347 344 342 349 351 353 354 354 354 354 353 353 353 345 345 339 344 346 348 347 344 338 337 348 349 350 348 346 335
354 356 357 355 354 347 348 351 352 351 351 352 349 349 350 344 348 352 350 352 351 353 353 354 353 351 353 350 342 334 344 346 348 347 348 344 342 349 350 345 338 342 347
356 354 356 355 352 351 349 351 350 350 351 351 349 347 349 349 349 348 350 350 348 348 351 353 351 349 349 351 340 335 343 345 350 348 347 342 343 349 349 345 339 340 337
353 354 355 356 355 353 351 350 349 351 351 350 349 347 348 348 347 350 348 350 347 351 350 347 351 351 347 348 335 334 341 346 347 346 349 335 331 339 339 337 347 349 349
350 352 353 354 355 354 354 352 350 351 351 350 350 353 352 351 347 353 349 347 348 342 348 348 351 351 346 341 340 337 341 345 347 347 348 335 336 336 342 339 332 339 337
352 351 352 353 352 353 354 353 350 352 354 353 354 354 352 350 351 351 347 348 343 348 351 351 352 349 348 343 342 340 338 342 350 346 345 334 332 341 347 341 335 333 337
354 352 351 351 352 352 350 351 353 353 353 352 350 351 352 351 350 352 350 349 342 347 353 350 350 348 341 345 338 338 338 347 350 345 338 330 329 341 350 345 338 332 332
354 352 352 350 350 350 349 347 351 352 353 352 351 352 350 352 350 351 351 350 347 346 347 350 350 347 346 349 346 335 343 345 347 348 345 341 341 337 333 337 338 335 331
351 353 353 352 349 348 354 350 352 351 351 350 345 350 352 350 349 350 350 351 349 348 345 347 350 346 343 342 346 342 341 345 344 349 345 343 342 343 342 335 334 338 337
350 352 354 354 351 348 354 353 351 352 353 349 346 351 351 351 352 352 347 349 348 350 347 349 350 343 342 343 345 346 345 345 345 351 349 346 347 345 343 343 336 335 340
352 352 352 357 353 349 353 353 351 352 351 352 350 351 346 347 350 352 347 346 349 348 348 347 346 347 346 344 343 344 344 345 345 347 348 349 347 349 345 343 340 336 336
353 353 354 356 356 350 354 353 349 348 353 353 350 354 348 346 351 348 346 347 350 346 349 341 342 347 347 346 342 341 345 346 347 346 343 350 349 349 345 344 342 339 339
354 354 354 355 358 357 354 353 352 350 346 350 351 355 351 347 351 349 351 351 350 349 346 342 342 347 348 347 344 343 343 344 347 344 348 349 351 350 349 345 344 342 341
356 355 356 354 357 357 353 357 355 349 350 345 349 354 352 350 349 349 347 345 349 348 348 346 346 347 348 344 344 341 342 345 346 347 348 344 349 350 349 350 347 345 343
357 357 356 358 355 358 356 355 354 354 350 347 346 351 351 350 351 350 352 350 348 350 348 344 347 348 346 346 344 343 342 342 345 345 345 347 347 346 349 349 350 348 348
358 358 358 357 358 355 355 357 356 352 352 351 348 347 353 350 347 346 348 350 350 347 346 347 342 344 347 344 345 342 345 343 345 344 343 342 345 347 347 350 350 350 351
359 360 359 358 358 358 356 357 356 354 351 351 350 348 352 350 350 348 347 348 348 347 346 346 348 344 343 344 343 345 351 347 346 344 344 344 345 347 347 347 350 349 348
354 362 363 359 356 360 357 355 356 354 351 350 349 350 351 352 352 349 348 346 352 347 349 347 347 347 347 344 344 344 349 348 346 344 345 344 343 344 347 348 347 347 349
352 353 364 360 355 356 356 356 356 354 354 352 351 350 352 353 353 352 352 349 348 351 350 348 347 346 345 348 346 342 341 345 351 353 346 348 348 345 344 349 351 352 351
349 363 363 360 357 357 357 355 355 355 352 354 352 352 352 351 351 354 352 355 348 353 351 352 348 347 345 344 350 347 342 347 346 352 352 349 347 345 343 352 349 350 348
345 351 362 362 359 355 355 356 354 354 354 353 355 354 353 354 352 353 354 353 354 352 352 354 352 352 349 350 351 350 349 351 352 352 351 351 350 350 349 351 351 345 344

GFSSE_925_thetae_123.txt.gz
Theta_e
346 346 347 352 354 355 354 349 348 350 351 347 345 346 346 342 338 343 344 347 348 349 349 344 342 342 345 353 352 353 351 350 344 346 349 348 345 348 349 347 348 348 349
342 342 348 351 354 355 354 352 348 345 350 348 347 347 348 342 339 343 346 349 353 352 349 348 348 346 346 347 348 351 345 337 343 351 351 352 349 346 347 347 348 346 348
342 345 349 348 353 353 352 352 352 351 351 350 347 345 345 340 340 344 343 343 348 353 352 353 353 349 348 347 349 341 340 346 342 341 345 349 351 351 350 349 347 347 348
344 348 347 347 351 350 350 351 351 352 352 349 349 342 340 340 344 345 347 350 349 352 352 353 353 353 347 346 346 343 347 344 348 348 343 347 350 348 344 347 349 347 347
349 349 346 347 348 350 349 349 350 351 350 349 350 346 340 344 348 348 350 352 352 354 352 351 352 352 346 338 337 340 344 347 345 348 342 334 343 342 339 341 344 340 345
352 349 349 347 349 353 351 349 349 350 348 349 349 346 339 344 346 349 353 350 351 353 353 353 353 351 344 338 337 340 343 345 346 344 339 330 343 347 351 351 351 345 347
353 352 353 348 347 350 352 350 349 347 348 348 350 348 344 343 345 346 351 352 349 352 352 354 351 345 342 340 339 341 343 346 348 343 337 336 345 349 347 343 342 339 336
352 351 354 353 349 349 351 350 350 352 351 349 350 348 343 341 344 346 349 348 348 348 350 351 352 347 337 337 333 338 343 346 348 343 343 339 345 346 346 337 331 339 338
347 351 354 353 352 352 350 350 349 352 353 350 349 347 343 342 346 346 345 346 345 349 349 350 349 346 337 336 332 340 342 345 349 349 343 335 341 339 339 339 344 342 341
353 350 354 353 353 351 351 349 350 350 351 352 347 347 350 353 351 350 345 348 345 348 346 348 348 347 334 331 328 335 343 345 347 348 341 330 330 330 328 331 345 346 348
354 353 353 352 352 350 350 351 349 349 351 353 353 348 343 347 352 351 346 345 345 345 343 351 346 342 332 334 336 337 340 342 349 349 337 336 332 330 332 331 328 333 334
353 354 351 351 351 351 351 352 348 351 351 352 352 353 348 344 344 348 346 349 345 351 348 349 348 342 334 337 341 337 336 340 348 348 341 329 333 339 335 332 330 330 335
352 354 351 350 352 352 352 350 350 351 351 350 348 348 344 351 351 347 351 348 348 346 351 348 348 343 336 343 348 342 338 343 347 344 331 331 331 332 332 333 332 330 331
351 352 352 350 350 350 352 348 350 350 351 350 349 351 348 353 349 348 349 349 347 342 343 344 343 341 338 346 349 348 346 343 348 344 337 339 339 339 334 330 331 333 330
352 351 350 350 349 350 351 343 349 350 353 350 349 351 349 351 341 345 348 347 348 344 342 344 346 348 345 343 344 344 345 346 345 345 343 344 346 343 342 338 332 332 333
353 352 350 349 347 348 353 347 349 349 349 350 348 343 348 351 349 347 348 345 348 346 346 347 348 350 347 344 342 344 344 344 347 348 348 346 347 347 345 343 340 333 333
353 353 353 350 348 348 354 351 352 350 352 351 350 345 347 349 351 354 350 344 346 348 346 347 346 347 346 346 346 343 343 344 346 349 346 343 349 349 347 344 342 340 336
350 355 355 354 350 348 350 352 353 354 352 352 351 349 349 346 347 349 347 345 347 350 347 348 346 343 348 347 345 341 339 343 344 346 349 348 350 350 349 344 343 342 340
350 354 358 357 353 350 349 351 352 352 354 351 351 350 351 348 345 350 351 347 347 351 348 347 342 343 346 345 346 345 341 342 342 343 346 347 345 347 348 348 347 343 341
352 352 355 357 358 354 351 355 353 352 353 351 351 352 351 351 347 348 348 346 346 350 350 346 344 340 341 343 344 344 342 340 343 344 346 346 345 344 349 347 349 347 345
353 353 354 355 355 357 355 352 355 354 354 349 350 350 351 351 348 349 348 347 347 346 350 347 344 345 347 348 347 344 344 342 340 341 345 345 344 346 347 346 349 349 347
357 355 355 357 356 357 356 355 352 353 352 351 349 351 351 352 351 347 346 347 351 350 349 349 347 346 349 346 347 346 343 344 343 342 343 343 343 342 345 347 348 350 349
359 358 357 357 357 356 356 355 353 353 355 351 351 349 352 351 351 349 348 345 349 349 350 349 348 346 344 343 343 342 340 342 343 345 344 345 344 344 344 348 349 349 348
348 356 360 358 358 358 357 355 354 356 355 353 351 350 351 352 350 349 348 344 345 350 348 346 346 347 347 343 342 345 342 345 342 345 346 345 344 343 343 344 347 352 350
345 359 361 360 359 357 357 355 355 354 353 353 353 351 349 350 353 350 349 348 345 346 352 348 346 348 345 348 347 346 346 343 343 344 344 347 347 345 345 346 343 345 350
342 344 355 358 357 357 356 354 354 354 353 352 352 353 351 349 353 354 352 351 348 347 348 352 349 348 346 346 345 345 348 344 346 349 345 345 347 347 346 346 344 348 351

GFSSE_925_thetae_126.txt.gz
Theta_e
349 353 353 354 354 354 352 351 349 346 345 344 344 345 345 345 341 340 342 343 343 344 351 351 352 353 353 353 352 350 350 347 345 346 347 349 349 349 348 349 348 346 348
345 351 353 354 355 352 349 349 351 348 347 345 345 342 343 338 335 340 346 347 346 345 346 352 353 352 353 352 352 349 346 348 349 351 350 349 349 348 345 347 349 349 348
347 351 353 353 354 353 349 348 349 350 351 349 346 341 349 344 343 345 347 349 352 353 353 350 345 350 351 349 350 347 347 345 345 348 348 346 349 350 350 348 345 347 348
346 348 352 352 353 353 350 345 346 351 351 349 349 342 339 343 343 346 347 345 351 353 353 353 347 353 351 350 349 350 349 346 343 346 348 349 349 348 348 347 349 348 346
348 347 352 351 352 353 352 351 350 349 350 349 348 341 343 345 346 352 353 349 351 352 352 350 348 350 350 346 346 344 345 348 347 345 344 343 339 344 348 346 346 347 346
348 347 350 351 355 354 350 350 348 346 348 345 346 344 346 347 346 349 353 353 352 353 351 351 349 346 342 339 339 342 344 346 346 346 337 334 340 345 346 348 347 346 343
347 347 349 352 352 352 351 351 349 346 346 345 337 346 342 346 348 350 353 350 353 352 350 352 348 343 342 341 342 344 346 346 342 339 331 341 343 347 347 345 340 344 345
346 348 348 350 352 349 352 351 349 351 351 348 337 339 346 344 344 347 350 353 352 352 351 348 343 340 340 340 341 341 344 349 349 338 334 343 346 342 339 341 341 333 330
346 350 349 347 352 351 351 348 351 351 352 351 345 339 338 339 342 348 346 346 346 350 350 349 346 341 336 336 336 340 344 349 347 338 339 342 345 342 336 331 334 333 332
348 350 350 349 353 351 350 348 350 350 352 352 352 350 348 346 345 346 346 344 347 348 346 348 345 340 334 335 335 338 343 348 348 346 341 339 342 337 330 340 343 341 343
356 353 350 351 349 350 350 350 349 354 353 353 353 352 350 350 351 350 344 346 344 343 347 349 340 336 333 330 331 336 342 344 348 348 348 337 339 331 327 334 342 344 344
356 356 353 351 350 349 348 352 348 352 352 352 351 351 349 347 346 344 345 344 346 346 344 349 343 334 332 334 336 337 340 340 345 348 348 333 335 333 331 328 327 332 334
354 354 353 352 350 350 349 351 351 350 352 352 350 348 342 341 342 342 347 345 348 346 345 346 346 337 334 336 339 339 341 338 343 348 347 337 336 336 333 331 328 328 334
352 353 351 350 350 351 350 349 349 350 349 352 350 348 344 342 350 349 350 348 346 345 341 343 343 338 334 338 346 348 347 346 344 347 345 333 336 338 337 334 331 330 328
352 351 349 349 349 351 350 349 347 348 348 344 342 343 344 348 352 350 349 349 348 344 340 343 342 341 334 339 345 344 345 346 346 345 340 342 343 341 340 334 331 331 331
351 351 348 345 347 351 351 347 348 347 345 347 347 347 349 349 351 349 347 349 348 345 339 340 343 346 345 342 342 342 343 345 346 346 345 345 346 344 344 342 338 332 331
350 351 349 346 345 348 350 348 343 346 348 351 349 347 350 350 349 348 345 348 348 343 343 343 346 347 349 344 343 342 344 342 347 347 347 346 347 345 347 345 343 340 334
351 350 350 349 346 346 348 350 346 347 349 349 349 348 344 348 349 349 349 349 345 345 347 347 347 347 347 346 344 346 343 341 343 348 348 345 346 348 349 347 344 342 340
352 351 350 349 347 345 347 352 350 350 351 349 350 351 349 344 349 350 350 348 345 344 348 347 347 346 346 345 348 346 344 339 341 342 344 347 347 349 349 348 346 343 342
352 352 351 350 349 347 347 351 351 352 353 354 353 352 351 349 348 350 349 348 345 345 350 349 347 346 342 343 346 344 344 342 340 341 342 344 347 349 347 347 348 346 345
350 355 354 353 351 350 351 350 351 352 352 352 353 352 351 351 350 348 347 349 348 346 348 349 348 346 342 341 342 343 345 343 341 340 340 343 345 346 346 345 347 348 348
352 352 356 356 354 352 352 351 351 351 350 351 354 351 350 350 351 351 347 348 349 349 349 350 349 346 344 343 347 346 341 343 343 343 341 340 341 345 344 345 346 348 347
354 354 356 356 357 356 354 353 353 353 352 349 350 352 351 351 351 351 350 347 348 347 346 346 350 348 346 345 347 345 339 341 339 343 342 342 342 342 343 343 343 346 347
351 357 356 358 355 357 356 355 354 353 352 352 350 349 350 350 350 351 351 349 347 347 350 350 348 348 347 344 346 347 343 342 340 340 345 345 344 343 344 344 344 345 349
342 351 355 358 358 355 354 354 353 352 353 352 351 351 350 350 349 350 351 351 347 346 348 349 349 349 348 346 344 342 344 343 342 341 339 341 347 346 344 344 343 343 343
342 344 354 353 353 355 356 354 354 354 352 351 351 351 351 350 350 350 351 351 350 348 345 346 349 349 348 347 347 345 343 343 343 343 339 340 343 345 346 345 345 345 345